GFSMW_prec_cthk_000.txt.gz
RH
27 24 20 22 28 29 28 24 23 23 24 25 27 29 32 36 39 40 42 45 47 49 50 51 49 48 46 45 45 45 45 44 47 49 44 44 43 44 44 44 42 42 43
21 23 25 28 30 30 26 26 26 26 25 26 27 29 32 34 36 38 41 42 42 42 40 37 36 36 36 37 40 43 45 46 48 51 51 48 46 44 48 50 51 52 52
24 28 29 31 32 30 29 28 28 27 25 25 28 30 34 37 38 38 37 36 35 35 35 35 35 37 37 38 38 40 42 46 47 50 54 55 54 57 51 54 51 54 57
31 30 32 33 32 32 31 30 29 28 27 28 29 33 35 35 36 37 37 36 36 36 38 39 37 34 32 31 31 32 33 34 36 39 46 52 55 58 54 55 56 60 61
34 34 33 33 33 32 32 30 28 29 29 29 32 35 36 38 38 38 37 37 37 35 32 30 30 30 31 31 31 31 30 30 30 31 34 38 41 48 57 49 49 51 56
34 34 34 34 33 34 33 31 30 31 34 36 38 39 40 39 38 38 37 34 32 32 33 34 34 35 34 34 33 33 33 33 33 34 35 36 39 40 46 52 49 50 47
34 34 34 34 35 34 33 33 37 39 41 42 41 41 41 39 36 32 31 31 32 33 34 34 34 33 33 32 32 31 32 32 33 35 37 40 43 46 48 51 51 52 46
36 36 35 36 36 36 37 40 43 43 44 45 43 41 35 32 30 30 32 34 34 34 33 32 31 30 28 26 25 24 24 26 28 32 37 40 41 44 48 54 60 57 53
38 37 37 39 40 41 43 44 45 45 46 45 41 34 32 34 35 35 36 37 36 33 30 27 24 23 21 19 18 17 18 21 25 32 35 36 38 43 50 58 65 70 70
39 40 41 43 44 44 45 44 45 48 48 42 37 36 36 38 40 41 38 33 28 25 23 21 20 19 19 19 19 18 18 18 24 24 23 23 25 32 39 40 43 49 62
42 44 45 45 43 45 47 48 50 48 43 39 39 40 42 40 36 32 28 25 23 22 21 22 21 21 21 20 19 19 19 19 20 23 24 27 33 40 43 44 45 43 47
46 44 42 43 46 50 52 49 45 42 41 41 41 42 39 38 34 28 25 24 24 24 23 22 22 22 23 22 21 20 21 22 24 28 32 36 38 40 42 43 44 46 54
42 42 46 49 51 51 48 47 44 43 43 43 44 43 40 36 33 32 27 26 26 25 24 24 24 24 23 24 25 26 27 30 33 39 38 35 33 33 34 33 33 42 47
44 48 51 50 49 50 49 46 45 45 44 44 44 41 37 36 35 29 28 28 27 25 25 25 24 24 26 29 30 32 34 35 37 39 35 32 31 30 29 30 31 37 41
48 48 46 47 47 48 47 46 46 47 46 46 44 41 38 34 31 31 30 28 25 25 24 23 24 26 27 26 26 25 26 28 30 30 29 28 27 28 30 36 33 35 35
42 42 44 45 47 47 48 47 46 47 47 46 45 42 39 34 32 30 28 26 24 23 22 22 21 20 23 23 21 22 24 23 23 23 24 24 26 30 36 35 36 43 44
39 41 43 46 46 45 45 45 48 50 52 51 47 42 34 32 31 27 25 24 21 17 17 17 18 18 17 16 16 20 24 23 23 23 23 25 30 37 40 38 44 45 44
40 41 44 45 44 44 46 50 53 56 52 48 42 38 34 31 28 25 19 15 15 17 16 17 17 16 16 17 19 25 24 24 24 27 30 37 42 40 47 48 50 49 40
40 42 44 44 44 47 49 54 57 53 45 40 39 36 32 28 20 15 14 18 18 17 17 17 17 17 16 18 22 27 29 30 30 30 35 46 45 46 52 59 53 46 36
40 42 45 46 47 50 52 52 52 45 41 41 36 30 23 17 15 17 20 19 18 18 18 18 19 19 20 21 27 35 36 34 33 36 43 43 49 51 54 55 55 50 36
42 45 47 48 50 53 54 52 45 41 41 33 27 21 17 16 19 22 21 20 20 20 21 19 18 19 23 25 28 35 36 39 45 47 41 40 51 53 52 53 52 49 45
44 46 49 52 54 55 52 45 42 39 32 26 21 18 19 21 25 23 21 23 22 23 22 19 18 21 25 27 30 36 39 47 49 48 44 56 61 54 49 48 51 45 37
46 48 51 54 54 51 45 41 38 31 26 22 20 20 22 26 25 24 25 24 24 24 22 23 24 24 27 29 31 36 42 49 49 49 60 65 57 50 43 48 46 35 34
48 52 56 58 53 49 44 38 30 27 24 23 22 23 27 26 25 27 27 25 25 26 27 28 30 30 33 34 36 44 48 48 50 56 65 60 53 43 47 48 38 33 40
52 54 52 51 51 47 37 31 29 26 25 24 24 28 28 27 27 27 27 27 29 31 30 31 36 37 36 39 49 51 52 53 59 56 55 52 50 45 46 46 37 36 43
53 52 52 54 46 37 33 30 29 27 26 25 29 29 28 28 28 27 27 28 29 29 27 29 37 39 43 46 53 55 57 57 54 48 51 58 54 49 50 45 39 40 60

GFSMW_prec_cthk_003.txt.gz
RH
32 32 29 27 21 17 21 28 30 30 28 28 30 32 33 33 36 38 39 39 40 40 37 35 35 36 37 36 36 36 36 36 36 37 35 34 35 36 38 42 43 45 44
33 32 27 21 23 28 31 32 31 29 28 29 30 30 32 34 36 38 40 39 37 36 37 37 36 36 36 36 34 31 27 27 28 34 34 36 32 37 42 39 39 41 47
31 26 23 27 32 34 33 32 30 30 30 29 29 30 32 32 35 37 38 39 40 39 38 37 35 32 29 27 27 27 28 28 28 29 32 37 35 30 29 31 33 39 46
27 26 28 32 34 35 35 33 32 31 30 28 27 28 31 36 40 41 42 40 38 35 32 30 30 30 31 31 31 31 30 30 30 30 33 32 35 39 32 32 32 32 38
30 31 33 35 36 36 35 34 32 31 29 28 33 37 40 42 43 41 38 33 30 30 32 33 32 31 30 28 27 26 25 25 26 28 31 32 34 36 39 33 38 38 40
33 34 35 37 38 37 36 35 35 34 33 36 40 42 43 42 39 33 29 30 30 32 32 32 30 26 23 21 20 19 18 17 18 19 22 30 35 40 43 43 38 39 36
34 35 37 39 39 38 38 38 38 37 39 41 44 44 42 37 32 30 30 32 33 32 28 24 21 20 18 17 17 17 16 15 15 16 20 26 28 32 35 38 37 38 35
35 36 40 41 41 40 40 40 42 42 43 45 46 45 40 35 33 34 34 32 28 24 20 20 19 18 17 17 17 17 17 17 18 19 20 21 21 22 27 30 38 45 44
37 40 42 43 44 45 44 44 44 45 47 46 45 41 37 37 36 35 34 31 27 25 20 19 19 19 19 19 20 20 20 20 19 19 19 20 20 26 32 37 52 60 63
40 43 45 46 47 48 46 46 48 49 47 44 40 39 39 38 39 37 33 28 24 22 20 21 21 21 21 21 20 20 21 20 20 21 22 26 30 32 35 37 43 52 59
43 47 47 49 49 48 50 51 50 48 44 42 42 41 40 42 38 32 28 24 22 22 22 22 22 22 22 21 21 20 19 18 17 18 20 24 26 24 25 31 38 40 42
49 50 50 50 49 53 53 49 48 47 44 43 42 42 42 42 38 34 31 25 24 23 23 22 22 21 20 19 18 15 13 13 13 15 19 19 18 18 22 26 37 39 45
49 48 47 50 54 52 49 49 48 45 44 43 44 44 43 41 38 35 30 25 24 24 23 21 20 18 17 14 13 13 12 12 12 14 17 17 18 18 20 24 29 35 41
46 45 51 53 49 48 48 47 45 45 45 44 46 47 47 43 40 34 26 26 26 24 21 17 15 15 14 14 13 13 13 12 14 16 18 19 19 21 28 30 38 42 40
44 51 50 47 47 47 45 44 44 45 46 47 49 49 45 41 37 29 28 27 24 19 15 14 16 15 15 14 14 14 14 15 15 19 19 20 22 28 34 43 42 46 49
50 54 51 48 46 44 44 44 46 48 50 51 51 48 41 36 30 29 28 23 17 14 15 17 16 15 15 15 16 17 19 21 21 20 19 23 28 34 41 44 46 49 57
59 52 46 42 41 44 46 47 48 51 53 53 45 41 36 33 30 28 21 16 15 17 18 17 17 16 16 18 18 18 22 22 22 24 26 27 35 41 42 42 52 55 50
49 39 38 40 44 47 48 49 52 54 55 48 43 38 35 32 27 20 16 17 18 20 18 18 18 17 19 19 18 19 22 21 24 29 30 36 40 44 48 56 58 48 39
34 32 36 43 46 48 50 51 55 54 50 43 40 36 32 26 20 18 19 20 21 19 19 20 19 19 20 20 18 23 24 26 30 33 38 45 42 48 59 64 55 45 39
29 34 40 44 47 49 51 54 55 52 47 43 40 33 26 22 20 21 22 22 21 21 21 20 20 22 22 19 23 30 31 32 35 39 44 43 46 53 66 67 60 46 39
34 39 44 47 50 52 56 57 54 49 45 43 34 27 24 23 23 23 23 22 23 22 22 22 21 22 22 22 26 32 35 42 43 44 45 42 49 60 64 62 53 49 52
39 44 46 49 52 56 58 54 50 47 45 36 29 26 25 24 25 24 23 24 23 23 24 23 23 25 26 28 31 34 38 46 50 49 47 49 59 55 52 50 52 49 50
44 47 48 50 55 56 54 48 48 46 37 31 29 27 26 27 26 24 24 24 24 26 26 27 30 30 28 29 30 35 43 49 50 50 60 53 45 47 48 51 50 53 43
46 47 49 54 56 54 49 51 46 38 33 30 28 27 28 28 26 25 25 25 26 29 32 34 39 37 32 33 34 43 49 52 54 60 52 47 46 50 53 48 49 48 45
46 49 54 55 51 53 52 44 39 35 31 29 29 30 30 28 25 25 27 26 32 36 37 39 43 41 39 39 46 51 52 57 59 57 53 50 51 51 52 50 51 44 51
49 52 53 54 56 53 42 39 35 31 29 29 33 32 30 27 26 27 27 33 35 38 39 40 45 44 44 44 48 51 56 59 59 58 57 54 56 56 53 53 47 55 71

GFSMW_prec_cthk_006.txt.gz
RH
33 31 29 28 27 27 28 23 23 28 34 36 34 35 38 38 38 39 40 39 37 34 34 35 35 35 36 36 34 32 30 29 30 29 29 27 29 32 32 38 37 31 36
34 34 32 29 28 27 24 25 30 33 35 34 35 36 36 35 34 33 33 33 36 37 37 38 38 35 31 28 28 28 28 30 29 29 28 28 27 29 28 25 28 29 30
33 34 32 31 29 25 27 33 35 35 33 34 35 34 32 31 31 34 37 39 40 40 37 32 28 27 27 27 26 25 24 25 24 24 26 28 28 27 27 27 28 32 30
33 35 33 29 26 29 32 34 35 35 33 33 31 31 33 36 40 42 42 40 35 32 29 29 28 27 25 22 20 18 17 19 20 20 20 20 27 29 28 28 28 27 29
34 35 33 28 31 33 34 35 35 33 33 34 35 37 40 43 43 41 38 35 33 32 30 27 22 19 18 18 17 16 15 16 19 20 21 22 26 25 26 22 24 24 25
36 38 34 33 34 35 36 36 36 36 36 37 38 41 44 45 44 41 37 33 30 28 26 23 22 19 18 17 16 16 16 16 16 18 21 24 27 28 26 23 20 22 21
36 37 34 36 37 38 39 38 39 39 38 38 41 46 47 45 40 35 31 31 30 29 24 21 19 18 17 17 17 17 17 18 18 20 22 23 22 22 24 25 26 28 25
36 36 38 38 40 41 40 41 42 39 38 42 47 47 44 40 36 34 34 33 30 24 20 19 18 18 18 18 18 18 18 19 20 19 20 20 17 17 20 24 27 28 27
39 39 40 41 41 42 43 43 42 40 44 48 47 43 41 38 37 38 37 33 29 23 21 20 20 19 19 19 19 18 18 16 15 14 15 15 15 18 22 23 23 25 33
38 39 42 44 45 45 45 44 44 49 48 46 45 43 41 40 39 39 37 34 30 25 23 22 21 20 20 19 17 15 13 13 14 14 15 16 17 22 21 22 20 23 33
41 42 46 48 47 48 47 49 52 47 46 46 45 44 43 41 42 42 39 36 30 25 23 22 21 21 19 16 14 13 14 14 15 15 16 17 20 23 22 22 22 29 34
44 47 51 51 50 49 51 55 49 48 46 45 46 45 43 43 44 44 41 34 28 26 24 23 21 18 15 15 15 14 15 15 15 16 17 19 21 23 23 25 28 34 36
46 49 52 51 50 52 55 49 48 46 46 47 47 47 46 46 48 45 37 30 28 26 24 20 18 17 17 16 14 15 15 16 17 20 22 24 25 24 25 27 33 36 39
53 55 53 51 52 55 49 48 47 46 47 48 48 49 49 51 45 38 32 29 27 24 21 19 19 19 17 15 15 15 17 18 20 23 26 27 26 26 27 32 37 42 49
55 53 50 50 57 53 51 50 45 46 48 49 49 51 53 47 42 35 31 28 24 21 20 21 21 19 16 16 16 15 20 21 23 28 28 28 28 28 33 40 41 45 48
52 50 49 58 58 54 50 45 45 47 50 52 53 54 50 46 37 33 28 24 23 22 22 23 20 18 17 17 16 18 24 23 29 30 29 28 30 36 40 43 46 48 58
49 49 55 63 54 47 43 44 47 51 54 55 56 54 48 39 34 30 26 25 24 24 25 22 19 18 18 18 18 24 25 27 33 32 30 31 36 41 43 43 45 54 58
49 53 59 52 42 40 43 46 50 53 55 56 55 51 43 37 33 29 27 25 26 27 24 21 19 19 20 20 25 27 27 34 34 33 38 39 42 44 44 47 54 56 52
56 58 47 37 36 42 46 50 52 54 55 55 52 45 39 36 33 30 27 27 29 26 23 21 20 20 21 24 28 29 37 35 33 35 41 45 47 49 54 60 58 54 48
58 43 33 32 40 45 49 50 52 54 56 54 49 43 39 36 32 28 29 31 28 24 23 21 20 22 24 28 31 40 39 37 37 40 46 49 50 53 63 63 60 53 43
40 32 32 37 43 46 50 53 55 56 55 53 46 41 37 33 29 30 32 29 24 22 21 21 22 26 29 32 35 40 41 41 40 44 45 49 59 64 59 59 59 55 54
31 31 36 41 45 48 52 54 56 55 52 49 44 39 34 30 31 33 30 25 23 23 22 24 27 33 38 37 39 44 43 47 49 47 48 58 59 56 56 60 57 56 57
33 36 41 44 48 51 54 56 55 53 52 44 39 33 30 32 36 33 27 25 25 25 27 30 35 40 41 43 46 45 45 49 48 50 62 57 55 57 59 59 58 56 54
38 41 44 48 51 53 55 53 52 52 42 36 31 30 34 38 35 29 28 27 29 31 33 34 39 42 45 47 46 45 46 45 47 58 57 54 60 61 60 56 55 56 60
41 44 46 49 52 55 53 54 47 39 32 30 32 36 39 37 31 29 30 33 35 35 37 38 42 46 49 48 48 52 50 49 52 57 52 58 61 58 56 55 57 59 69
42 44 49 53 55 55 55 42 34 30 31 34 38 40 38 34 32 33 34 35 35 37 38 41 45 48 50 49 48 48 50 50 54 57 59 62 59 57 54 60 62 66 86

GFSMW_prec_cthk_009.txt.gz
RH
30 31 33 34 33 33 33 31 31 33 35 32 38 42 42 40 41 42 40 36 35 33 32 34 38 40 38 34 29 26 24 23 24 22 21 18 21 20 25 26 29 27 22
31 33 34 35 33 31 29 31 32 34 31 36 40 40 39 38 37 33 32 30 31 37 41 41 37 32 26 23 21 21 19 20 19 19 18 20 18 19 16 17 18 21 26
34 32 33 34 34 31 30 29 30 30 43 38 37 35 34 35 32 31 34 38 42 42 37 33 28 24 22 20 17 17 17 18 18 18 20 22 21 20 20 18 22 22 18
33 33 32 34 34 31 31 28 27 28 34 35 35 34 35 34 36 39 41 42 40 36 32 28 26 23 20 19 17 16 16 17 19 18 18 18 19 24 23 22 19 17 16
32 35 34 35 33 32 30 28 28 31 32 32 34 36 37 38 40 44 44 40 35 30 27 24 20 18 18 17 17 18 17 17 19 18 18 20 22 21 19 17 15 13 13
33 35 36 36 34 33 31 32 32 33 35 37 37 37 39 42 44 43 38 32 27 27 26 24 19 18 18 19 18 18 17 17 19 19 19 17 16 17 17 15 15 16 16
35 36 36 35 36 34 34 36 37 38 40 39 37 39 43 46 43 38 32 31 31 30 29 24 20 20 20 19 18 18 18 19 18 16 15 14 13 15 16 17 17 18 18
34 34 34 35 37 36 37 39 40 41 41 38 39 43 47 45 40 37 34 35 35 33 29 25 22 21 21 20 19 19 18 16 16 15 14 13 14 14 16 17 22 21 19
36 36 36 37 38 38 40 41 42 42 40 39 44 45 43 41 41 39 38 38 37 34 30 25 23 22 21 21 20 17 17 18 16 14 14 15 15 16 18 20 24 27 24
40 40 38 38 39 41 41 43 44 42 41 48 45 43 42 42 42 41 39 39 38 35 29 26 25 23 22 19 18 19 19 17 16 16 16 17 18 20 21 22 24 26 30
41 44 42 42 43 44 45 46 44 46 51 46 43 42 44 45 44 43 41 40 37 31 29 27 26 23 20 20 21 21 18 18 17 17 18 20 21 22 23 24 25 28 34
42 44 44 44 46 48 48 47 49 53 48 44 43 44 46 46 45 45 43 41 35 31 30 27 23 21 22 24 23 20 18 17 17 18 21 22 24 25 27 27 29 35 33
42 43 43 46 48 50 51 50 54 50 46 44 46 47 47 48 47 47 43 38 33 32 29 24 23 24 26 25 22 19 18 18 19 19 22 25 28 30 31 34 35 36 39
44 45 47 51 53 53 51 53 56 51 49 48 47 48 51 51 50 48 43 36 34 30 26 25 26 28 28 25 21 17 16 17 19 21 26 31 33 35 35 37 41 43 42
43 47 51 54 54 52 51 57 54 52 49 48 49 52 53 53 50 48 41 35 32 28 28 28 29 30 26 20 17 17 19 20 21 24 33 34 36 39 43 44 48 47 50
46 52 54 55 53 50 57 61 53 47 46 48 52 54 55 52 49 44 37 34 32 31 31 31 31 26 21 19 20 21 22 23 25 33 35 36 38 41 43 45 47 57 59
49 51 53 52 51 55 60 54 46 45 47 52 54 55 54 51 47 40 36 34 34 32 32 32 27 22 20 20 21 22 25 27 35 37 38 41 42 45 43 43 48 58 61
51 51 52 53 54 59 54 44 43 45 51 54 55 54 51 48 43 38 36 35 33 32 31 28 24 22 21 21 23 26 29 37 38 41 47 47 46 45 47 53 59 61 61
50 53 54 57 63 54 45 40 44 50 53 54 54 51 48 46 40 38 34 30 31 31 28 24 22 21 22 25 29 32 39 39 42 47 50 51 52 48 56 62 63 54 49
54 56 59 61 57 42 37 41 47 51 53 55 51 49 49 42 38 31 28 32 31 27 23 22 22 24 27 30 35 41 43 43 45 48 49 51 51 54 59 64 58 58 56
58 60 59 52 41 36 39 44 49 52 54 50 51 50 43 36 29 28 30 30 26 24 23 23 25 27 32 36 40 44 48 54 54 53 49 49 50 58 59 59 62 63 60
58 47 41 35 35 40 44 47 50 50 48 52 51 43 34 28 27 30 31 27 26 26 26 26 27 31 36 38 43 47 55 56 57 53 51 49 51 54 57 62 60 59 59
39 35 33 36 41 44 46 49 49 47 51 51 40 31 27 28 33 33 30 29 29 29 28 28 30 33 37 39 46 47 49 53 54 53 51 49 52 56 59 56 59 58 58
33 35 38 42 43 45 48 48 51 53 49 36 28 27 29 35 36 34 32 32 31 31 31 32 34 37 39 42 44 46 50 50 51 50 49 49 55 58 57 53 54 62 72
39 42 43 43 43 46 49 54 54 43 32 27 27 32 38 39 37 34 33 33 32 34 36 37 38 40 41 44 47 53 52 50 50 50 51 53 57 57 53 54 64 69 80
43 42 42 43 47 53 52 51 39 30 27 29 33 39 40 41 38 34 33 34 34 35 36 39 44 44 47 46 47 45 47 50 52 55 57 59 61 57 55 67 73 89 98

GFSMW_prec_cthk_012.txt.gz
RH
32 28 29 30 32 35 35 37 36 37 38 38 38 40 40 44 47 45 41 38 34 30 30 33 38 39 34 30 25 20 18 17 15 15 14 14 14 14 16 14 14 13 14
32 30 30 31 33 36 37 38 36 36 37 36 37 41 43 42 40 36 34 32 32 35 36 38 37 32 28 24 20 18 17 16 15 16 15 16 14 15 13 15 13 17 17
35 29 31 33 33 34 35 36 35 36 37 35 33 38 39 35 33 34 35 37 38 37 38 36 31 25 20 18 16 16 16 16 16 16 17 18 17 15 15 12 14 12 11
34 31 31 33 32 33 33 33 35 35 34 29 28 30 32 34 37 38 38 38 37 37 34 28 24 21 18 17 17 17 17 17 17 16 16 15 16 17 18 15 12 12 11
39 33 30 32 32 33 34 34 34 33 31 31 32 33 36 38 39 39 39 37 36 31 28 25 24 22 19 18 18 18 18 18 18 18 16 15 16 14 15 16 15 14 13
39 33 30 33 35 35 35 34 34 33 32 34 35 37 38 39 40 41 40 38 32 28 29 29 27 23 20 20 21 20 20 19 18 17 17 17 17 16 17 17 15 16 15
41 35 30 34 36 36 36 36 36 36 35 37 39 39 39 40 41 40 39 35 33 32 33 32 27 24 23 23 22 21 20 18 18 19 18 17 17 17 18 19 18 19 17
38 35 31 34 37 37 37 38 38 37 38 39 40 39 40 40 40 40 38 38 37 35 35 30 26 26 25 24 23 21 19 19 20 19 18 18 17 18 18 18 22 21 19
37 36 34 34 35 37 38 39 39 40 41 41 40 41 41 43 40 40 41 41 39 38 35 29 27 27 26 25 23 21 21 22 21 19 18 17 16 17 17 20 22 27 25
39 38 38 40 40 40 40 40 42 43 42 42 41 45 44 41 40 42 43 43 41 38 33 29 29 29 27 24 22 22 23 23 22 20 17 16 15 16 18 21 25 29 34
40 40 43 43 43 44 44 45 46 45 44 42 49 48 43 41 43 45 45 44 41 38 34 31 30 27 25 24 24 25 25 25 22 17 14 15 15 17 21 25 29 33 39
41 41 44 45 45 44 46 47 48 46 46 50 52 47 44 45 47 46 47 45 42 39 34 31 29 27 26 26 28 27 25 21 18 16 14 14 17 20 25 31 35 38 40
42 42 44 46 45 46 48 49 51 51 50 55 51 48 48 48 48 49 48 46 43 38 33 30 29 28 29 29 26 23 20 19 17 15 15 18 21 26 33 36 38 42 46
44 44 45 46 46 47 52 56 55 52 54 57 51 50 48 49 51 50 50 47 41 34 31 31 30 29 26 25 22 20 19 18 18 18 19 24 30 36 37 41 47 50 53
43 45 47 48 48 50 56 56 55 52 59 59 51 47 49 52 53 53 51 44 36 33 32 30 26 26 24 20 20 20 20 20 21 22 25 30 37 40 47 51 53 55 52
37 41 43 47 49 55 57 57 52 55 62 53 46 50 51 54 54 53 45 36 34 34 29 26 24 21 20 19 20 23 24 24 25 25 29 35 39 42 48 52 53 59 64
34 38 47 51 54 56 56 53 52 62 54 48 49 49 54 55 53 46 38 35 35 29 26 24 21 20 19 20 22 25 26 27 28 31 36 39 43 46 47 47 56 60 58
35 41 49 55 57 55 54 55 63 58 52 44 46 53 54 51 46 39 37 37 29 28 25 22 20 20 20 22 23 25 29 30 34 38 42 45 46 50 54 59 60 57 55
48 51 55 58 58 56 58 64 63 52 42 45 51 52 50 46 42 39 37 28 29 27 23 21 20 20 21 22 25 30 35 37 39 44 48 54 50 53 56 61 58 54 52
53 55 58 60 62 64 64 60 49 41 44 50 50 50 46 42 41 36 28 31 28 25 22 22 21 22 22 25 30 38 40 42 45 47 52 51 52 51 59 59 57 58 55
54 58 59 58 60 60 50 43 39 44 49 48 48 45 44 41 33 30 32 30 27 24 23 22 21 23 26 27 31 38 44 52 51 51 47 44 49 54 55 58 62 62 60
53 52 55 56 48 44 37 39 45 48 48 48 46 45 39 30 31 33 32 29 26 25 24 23 24 26 27 29 32 41 45 51 52 49 44 45 52 53 56 62 62 59 63
56 49 44 41 37 37 41 46 49 48 48 47 44 36 28 32 34 34 32 29 27 26 26 27 28 27 28 29 34 40 42 48 47 46 48 52 55 59 58 59 57 65 71
43 38 34 35 39 45 47 49 47 48 49 43 32 28 32 34 35 35 33 30 28 28 29 30 30 29 30 32 36 41 45 46 46 49 54 55 58 60 61 53 60 76 90
40 38 41 43 44 45 46 46 49 50 41 29 29 31 34 35 35 35 33 31 30 32 33 32 32 33 35 38 45 45 46 50 54 57 56 56 59 59 54 64 85 98 99
44 44 44 43 42 43 49 51 50 38 29 29 31 33 35 36 37 35 31 31 31 32 32 32 35 38 42 46 45 45 50 55 58 58 59 63 63 58 73 96 98 98 99

GFSMW_prec_cthk_015.txt.gz
RH
33 36 31 29 29 30 32 36 37 38 40 42 44 45 45 48 50 53 47 43 38 34 34 35 36 34 31 29 24 20 17 17 16 15 14 13 13 13 12 10 10 10 11
34 36 34 33 32 32 34 34 39 40 42 42 43 45 46 46 42 44 38 36 36 38 37 35 32 30 27 22 19 17 17 17 16 15 15 14 13 14 12 14 12 13 14
37 39 34 35 34 34 36 38 40 40 41 41 43 41 39 34 31 35 37 38 39 36 35 33 30 26 22 20 18 18 17 17 17 17 18 19 18 16 16 14 15 13 14
38 39 35 35 33 37 39 41 42 42 41 39 37 34 30 30 33 37 39 39 38 37 35 30 27 26 23 21 19 19 19 19 19 19 18 17 18 19 19 17 14 15 14
38 39 34 34 32 33 38 39 38 38 37 35 34 34 34 36 38 41 41 40 40 37 32 29 29 26 22 21 21 22 22 22 21 20 18 18 18 18 20 19 18 16 15
39 41 39 36 31 31 36 37 37 37 37 37 38 38 38 40 41 41 40 39 35 34 34 33 30 26 24 24 24 24 24 23 21 19 19 20 20 20 20 19 18 18 17
40 42 41 38 32 31 35 37 38 38 39 40 40 40 41 41 41 40 39 37 38 39 37 35 31 27 25 25 26 26 25 22 21 21 22 22 22 21 20 20 18 17 16
40 43 42 38 35 31 35 37 37 39 40 40 41 43 43 42 43 41 40 41 41 41 40 36 32 28 26 27 27 25 23 22 23 24 24 23 22 19 16 17 18 17 16
40 41 40 36 33 32 35 37 38 38 40 42 44 45 44 44 44 44 42 43 43 44 41 38 33 28 27 26 25 24 24 25 25 24 21 18 15 13 12 14 17 21 23
40 39 39 37 36 35 36 38 39 40 43 47 48 46 44 48 51 47 44 44 46 46 42 38 31 28 26 26 26 26 26 24 21 16 14 13 12 12 12 17 20 24 27
40 40 40 39 40 42 42 42 43 45 49 49 48 46 49 55 53 48 46 48 48 46 42 35 30 27 28 28 27 26 21 17 15 14 14 14 14 14 17 19 25 29 35
42 41 41 43 44 43 44 46 47 49 49 50 51 52 54 57 52 50 50 50 49 45 40 33 29 29 30 29 25 20 16 15 15 16 16 16 16 19 22 26 30 33 35
43 43 42 43 45 46 46 47 48 50 52 56 56 54 58 61 54 52 50 51 48 44 38 31 30 31 30 26 20 17 16 17 18 19 20 20 20 22 26 31 35 39 46
43 43 44 45 47 47 46 47 51 55 58 60 58 56 62 64 52 49 53 50 47 40 33 31 33 32 28 21 17 17 18 19 20 21 21 21 23 27 34 37 45 48 48
46 48 47 48 50 51 50 50 54 58 61 62 57 58 69 54 51 54 52 50 42 34 31 34 33 29 22 17 18 19 21 21 21 22 24 25 29 34 39 48 46 49 51
48 49 48 48 50 49 48 51 58 63 63 59 57 68 60 55 51 50 51 43 34 32 35 35 30 23 19 17 20 21 21 22 24 27 27 30 33 36 41 44 51 54 61
42 40 41 44 43 48 54 58 62 63 60 62 67 68 59 49 49 50 43 34 33 36 36 31 23 20 19 18 21 22 23 25 28 31 32 33 36 40 42 41 50 50 56
46 39 39 41 45 52 58 63 63 62 64 69 73 60 50 48 50 44 36 34 37 36 31 24 22 20 18 19 23 24 27 30 31 34 37 37 37 42 47 47 48 55 53
51 51 52 52 56 61 64 66 66 69 71 70 58 49 48 50 43 37 35 38 36 31 26 23 20 20 20 21 25 27 29 30 33 35 36 41 40 42 45 55 58 54 54
56 57 59 60 63 66 68 67 67 68 60 53 45 48 49 43 39 37 38 37 32 28 25 22 21 22 22 23 28 32 34 35 32 31 33 35 43 48 58 62 61 59 57
59 60 62 63 61 61 61 64 62 52 45 45 48 49 43 38 37 38 37 34 30 26 23 23 22 24 24 25 30 33 38 37 37 36 35 38 47 59 60 62 64 63 62
59 60 58 58 57 61 58 49 43 43 47 51 50 41 38 36 38 37 35 33 28 26 24 23 24 25 27 29 30 34 37 43 45 44 43 49 57 58 60 62 60 65 76
55 56 57 59 52 46 40 39 45 51 50 46 41 40 35 37 37 36 34 31 29 27 25 26 26 27 28 30 30 33 39 45 44 48 54 54 55 57 56 55 70 88 96
55 53 50 46 42 40 44 50 51 46 45 45 39 33 35 37 36 36 34 32 30 27 28 29 29 29 31 31 34 40 43 42 47 52 51 51 57 59 57 74 94 98 98
51 49 47 45 47 49 49 46 45 49 46 36 32 34 36 36 36 36 36 34 31 30 31 31 32 33 31 33 41 46 43 48 53 54 49 53 56 56 86 95 97 98 98
50 45 43 43 42 42 45 49 51 44 35 32 33 34 35 35 37 38 37 34 29 30 30 33 34 33 35 39 39 39 44 51 52 51 55 57 66 91 97 97 96 97 98

GFSMW_prec_cthk_018.txt.gz
RH
40 36 33 35 32 26 26 29 34 38 44 50 51 53 52 51 53 56 55 46 43 38 37 39 38 35 31 27 21 17 17 19 18 17 16 15 15 14 14 13 13 13 13
42 38 33 33 34 31 29 28 30 34 40 47 49 52 52 53 56 54 42 34 35 38 40 38 37 34 28 21 18 19 20 20 19 18 18 17 16 17 15 16 15 15 15
43 40 36 36 34 33 33 33 33 37 41 46 51 53 55 54 50 40 33 35 38 39 39 39 36 30 23 20 20 21 20 20 20 20 20 19 19 17 17 17 18 17 17
45 41 39 41 37 37 37 36 37 42 45 48 49 50 48 45 39 35 37 39 41 42 41 38 32 27 24 24 23 23 22 22 22 22 21 20 20 20 19 19 19 19 18
45 43 41 44 41 37 39 39 40 42 43 44 45 43 40 37 39 41 41 43 42 41 37 34 31 31 28 26 25 24 23 24 23 22 21 21 21 21 23 23 20 17 14
46 43 44 46 45 41 42 41 40 43 42 41 39 38 39 41 43 43 44 42 42 39 36 36 37 34 30 27 25 25 24 23 23 22 22 23 23 23 22 19 16 15 13
45 44 45 46 48 45 41 40 38 39 38 37 38 40 42 45 45 45 45 43 42 39 40 42 40 36 31 27 26 24 23 23 24 24 25 24 22 19 16 15 13 13 13
46 46 46 49 49 47 41 37 35 36 38 39 41 43 45 46 46 47 46 46 44 44 44 43 41 37 32 27 25 25 24 26 26 26 24 20 17 15 14 13 14 15 14
46 48 48 50 50 47 43 38 37 38 41 42 42 43 46 48 49 48 48 51 51 46 45 45 42 37 30 28 27 26 27 28 28 24 20 17 14 13 13 13 14 20 20
50 51 51 50 49 44 41 38 38 38 39 42 44 47 51 52 50 48 54 59 52 48 47 48 43 36 31 29 27 28 30 29 25 21 17 15 15 16 15 15 18 21 26
49 48 48 48 45 42 40 39 41 43 45 47 49 53 54 53 52 55 59 61 54 51 50 45 40 34 30 29 29 31 30 26 22 18 17 18 19 18 17 18 21 24 31
49 47 47 47 44 41 42 45 47 47 49 51 53 53 55 59 60 59 64 67 56 50 45 43 38 31 31 29 32 30 26 21 18 18 19 19 20 19 19 21 26 30 32
49 48 47 46 44 45 46 47 48 50 51 52 53 57 63 65 63 61 67 68 53 46 46 38 32 33 30 33 31 26 20 18 19 19 20 21 22 22 24 27 29 35 39
48 49 48 46 46 47 47 49 50 50 51 54 58 63 67 66 64 62 70 59 49 48 35 34 34 32 35 32 25 19 18 18 19 21 22 24 25 26 29 35 38 44 41
49 48 47 46 46 48 50 52 52 53 55 57 61 67 67 66 65 69 69 56 50 37 35 34 34 37 33 25 19 19 19 21 21 22 24 27 27 31 36 43 44 44 44
52 52 53 54 52 53 55 56 57 56 56 61 64 66 66 67 72 75 63 51 41 34 35 36 39 34 26 20 19 21 22 23 23 25 26 27 30 32 35 35 42 45 54
49 49 51 52 54 54 54 54 53 57 60 64 68 68 71 75 77 68 51 41 35 36 40 41 34 27 22 19 18 23 24 25 25 27 28 29 32 32 31 32 44 46 58
56 50 44 47 51 52 54 57 59 63 68 70 72 74 77 75 65 49 40 35 38 41 42 35 28 24 21 19 19 21 25 25 26 28 30 34 31 33 39 46 50 54 51
61 58 54 54 54 54 58 62 66 71 73 74 74 73 73 58 46 41 38 38 42 43 36 30 26 22 21 21 21 27 27 27 27 30 35 35 35 37 49 57 54 52 50
63 65 62 64 65 67 69 71 73 72 68 67 72 62 50 46 43 38 37 45 42 36 31 28 24 23 22 23 24 30 33 33 31 33 32 34 40 49 54 56 56 52 50
66 69 66 65 67 69 69 67 65 65 69 60 49 47 48 42 35 40 45 41 36 33 29 26 24 23 24 25 28 33 39 37 37 34 32 35 46 53 54 57 54 60 82
63 64 66 67 66 65 64 65 67 58 48 45 50 48 39 35 42 44 40 37 34 31 27 25 24 25 26 28 28 37 39 45 42 39 37 43 49 51 54 52 66 90 93
64 64 63 63 62 65 63 55 50 47 51 53 46 37 37 41 42 39 37 36 33 29 27 25 26 27 27 27 30 37 37 37 42 40 45 46 48 50 48 74 91 92 92
62 62 62 60 55 52 49 48 51 53 49 42 40 38 40 40 38 37 36 34 32 29 27 27 29 29 29 29 35 37 34 36 39 42 43 45 48 52 80 88 90 94 96
58 55 55 55 52 47 45 48 48 44 45 42 37 38 38 37 37 37 36 35 32 29 30 30 30 30 30 32 37 35 35 41 42 45 42 46 56 80 88 90 93 95 97
57 54 47 41 40 44 47 45 46 48 43 36 36 36 35 36 37 38 39 36 30 28 28 27 30 31 32 29 30 34 39 43 44 43 47 60 82 90 92 93 95 95 94

GFSMW_prec_cthk_021.txt.gz
RH
39 44 41 37 35 37 38 32 33 40 46 54 58 61 65 66 63 61 59 59 56 42 31 35 38 37 36 33 26 19 17 17 17 19 20 20 19 18 17 17 16 16 16
38 42 43 39 36 35 38 35 34 35 40 47 54 59 59 59 61 61 61 56 43 32 36 38 38 38 35 26 20 18 18 20 22 22 21 20 19 19 19 19 18 18 18
38 41 43 41 38 36 35 36 34 34 36 43 50 53 56 58 58 58 58 45 37 39 40 42 42 38 29 24 21 19 23 24 24 22 22 21 21 20 20 20 20 21 21
36 40 43 42 41 40 37 36 37 36 41 43 46 50 52 56 59 56 46 39 42 44 45 43 39 34 30 26 23 25 26 25 23 23 23 22 22 23 22 22 23 22 19
35 39 45 44 44 45 43 41 40 40 43 46 48 51 54 56 54 45 41 43 46 47 45 41 38 34 32 30 30 28 26 25 24 24 23 23 24 25 26 25 21 17 13
37 40 45 48 47 49 50 45 46 46 48 48 49 50 49 48 44 42 44 46 48 47 44 42 39 36 36 36 33 28 26 26 25 24 24 26 27 28 27 24 19 17 13
36 41 49 50 49 51 53 48 50 48 47 46 45 46 45 43 43 46 48 49 50 49 48 46 41 40 39 37 33 29 28 27 26 26 26 28 29 28 25 20 17 16 14
35 41 51 51 50 53 57 56 53 47 46 43 41 42 43 44 48 50 51 51 51 50 51 50 47 43 40 36 35 32 29 28 27 27 29 30 28 24 21 20 19 17 17
40 45 53 51 51 56 61 63 57 52 46 39 39 42 45 48 51 52 53 53 51 50 55 57 49 43 40 38 34 30 29 29 28 29 31 28 23 20 19 18 18 20 22
43 48 54 50 53 59 64 64 59 52 46 41 42 43 46 49 52 56 56 55 53 56 60 63 52 44 39 34 30 31 30 28 30 31 28 22 20 19 18 18 18 20 24
47 51 54 53 57 61 62 61 55 48 45 45 44 47 50 53 57 58 58 58 61 60 62 64 52 41 34 33 33 29 30 31 32 28 22 20 20 19 20 20 21 23 27
57 56 54 57 61 60 60 56 50 46 46 48 49 52 54 57 58 59 64 66 67 63 62 61 45 38 38 32 31 32 33 34 28 22 21 20 20 21 22 22 24 26 28
58 56 55 57 60 57 54 51 48 49 51 52 53 56 57 57 61 66 70 70 67 63 66 56 45 40 33 34 33 35 35 28 22 22 21 21 22 23 24 26 28 31 34
61 59 57 57 56 54 52 50 50 53 54 54 55 55 57 61 65 71 71 70 68 70 68 54 40 35 33 34 36 35 28 23 22 22 23 23 24 25 27 32 34 35 33
60 57 55 55 54 53 51 51 52 53 54 55 55 58 61 65 68 71 74 72 74 71 60 39 35 34 37 38 36 27 23 22 22 24 23 23 25 27 31 35 33 34 40
57 56 55 54 53 53 52 53 56 57 58 59 60 60 64 67 73 76 77 80 73 62 38 35 37 39 39 36 27 22 21 23 23 22 23 24 24 27 31 31 35 44 47
56 57 58 60 57 56 55 57 59 60 59 59 60 64 69 75 78 80 80 73 59 37 37 41 40 41 36 27 22 22 26 23 24 25 25 26 29 30 29 30 39 46 51
55 56 57 58 60 61 61 62 61 59 60 62 66 71 77 80 80 78 73 52 37 41 42 41 43 34 27 23 22 23 24 25 26 27 29 32 30 32 36 43 45 43 45
65 63 59 56 55 57 60 61 62 64 66 68 74 77 77 77 74 65 43 39 42 40 43 42 34 28 24 23 23 23 25 26 27 28 33 34 34 35 45 47 47 46 43
67 68 67 66 63 66 67 68 68 69 74 76 74 73 74 72 49 42 42 41 41 45 40 35 29 26 24 24 23 25 27 27 29 33 31 32 36 39 48 50 50 48 65
66 67 70 73 73 72 73 73 74 74 73 72 73 71 54 47 46 41 39 43 44 40 36 31 27 26 24 24 24 27 30 33 35 31 29 32 37 41 45 50 54 79 87
67 68 71 75 72 72 73 71 69 69 71 67 55 51 52 45 37 40 44 42 39 36 32 29 27 25 24 24 24 30 33 36 33 32 33 36 41 43 46 55 82 88 89
65 66 69 71 71 70 70 69 68 60 55 53 55 50 38 37 41 42 41 40 37 33 31 28 25 25 24 24 25 29 34 33 33 36 40 40 39 43 56 80 87 88 89
67 68 69 68 69 69 63 59 57 54 52 51 44 39 39 40 41 40 39 37 36 33 29 26 25 24 24 25 28 34 33 32 36 40 38 38 42 60 82 84 87 90 92
67 65 63 60 59 59 56 49 47 49 47 44 42 38 38 39 37 38 39 39 36 30 26 26 26 26 26 29 36 34 32 35 39 41 37 39 61 82 86 89 90 92 91
63 60 57 55 49 43 42 47 48 46 46 43 36 36 36 36 38 40 41 38 32 27 27 26 25 25 27 28 26 32 35 37 37 38 39 60 81 87 89 91 91 86 79

GFSMW_prec_cthk_024.txt.gz
RH
32 34 37 39 43 40 36 36 39 37 32 38 48 61 67 72 70 73 72 65 67 64 53 39 36 33 35 36 32 26 20 17 17 18 19 21 22 21 20 19 19 21 19
31 32 35 38 44 43 38 37 40 42 38 41 48 59 65 68 72 73 68 69 65 57 42 40 39 40 40 35 30 23 20 20 20 21 23 22 21 20 20 21 21 20 21
32 33 37 37 41 45 42 38 38 42 45 47 48 54 62 64 66 67 66 63 59 48 42 41 44 43 39 35 29 25 23 22 22 24 24 23 22 23 22 21 22 23 24
31 32 38 39 41 46 45 41 37 37 45 49 50 52 54 57 60 60 58 61 52 43 43 45 46 44 40 35 31 28 25 25 26 26 25 26 26 24 22 23 24 25 26
29 32 37 39 44 45 45 45 41 38 40 45 50 53 56 56 57 59 57 53 44 44 46 48 48 47 43 39 35 30 30 28 27 27 28 28 27 26 26 26 25 25 23
28 31 35 38 43 46 48 49 45 41 42 47 50 54 55 56 58 60 55 46 45 47 50 51 51 49 47 43 37 34 31 30 30 30 30 28 27 27 28 28 27 25 20
30 32 35 37 43 47 50 52 50 44 47 53 55 57 60 60 58 56 48 46 48 52 53 53 51 49 51 49 42 36 32 30 31 31 28 28 29 30 30 29 26 22 18
33 34 37 38 44 50 53 54 56 50 55 57 57 56 56 54 52 47 47 50 53 55 55 54 53 52 54 56 48 38 32 30 30 29 31 30 30 31 31 28 25 22 20
38 37 39 42 49 55 56 56 61 59 59 58 56 52 49 46 44 47 50 52 55 58 58 57 57 56 56 58 47 36 30 31 34 33 30 30 32 31 27 25 24 24 23
40 41 42 43 53 62 60 59 66 65 65 60 55 51 45 44 46 48 50 54 59 62 61 61 63 64 59 52 41 34 37 38 33 31 30 32 30 26 24 24 24 24 24
40 40 39 44 56 67 64 64 69 70 69 61 54 50 47 48 49 51 55 59 63 63 64 68 68 64 57 50 44 41 37 34 31 31 32 29 26 24 24 24 25 26 29
41 44 45 51 65 69 67 68 71 73 69 60 54 50 48 51 54 56 59 62 63 67 69 71 68 63 57 52 43 36 34 32 34 33 29 25 23 23 23 26 27 28 27
56 53 54 61 68 67 67 71 73 72 65 58 54 51 53 56 59 61 61 63 67 70 71 72 69 64 57 45 37 33 35 36 33 29 24 23 22 23 25 25 26 28 30
66 64 62 64 69 69 71 71 71 66 60 56 54 55 58 60 60 60 64 66 70 73 75 74 71 61 46 36 36 38 36 33 27 24 22 21 23 23 25 27 31 34 32
72 70 68 68 68 68 68 66 62 58 56 55 56 59 59 59 60 64 67 70 75 77 78 73 62 44 36 39 39 37 33 26 23 22 23 25 24 25 29 33 33 33 34
76 75 69 66 64 62 62 59 57 56 57 57 59 60 59 61 65 67 72 76 80 80 72 62 40 38 41 39 38 32 27 24 23 24 26 25 25 25 27 28 33 37 45
73 73 69 64 62 60 59 58 57 57 59 60 60 60 62 65 69 73 78 82 78 70 58 39 41 42 41 38 31 26 23 24 26 27 25 25 27 25 25 27 32 44 45
67 66 64 63 62 60 59 59 59 59 59 60 61 64 67 71 76 80 80 76 70 49 41 43 41 42 38 32 27 23 23 27 28 26 26 26 24 28 33 35 43 38 40
63 67 68 68 67 67 64 62 61 61 62 66 69 71 74 78 79 78 76 65 43 44 41 42 42 37 32 27 23 24 27 28 26 26 27 28 31 34 37 44 39 41 43
69 74 74 72 69 62 61 64 69 71 73 74 74 76 79 78 76 73 51 47 43 40 45 42 38 32 27 24 25 28 30 28 27 28 27 28 35 37 41 41 43 50 72
74 79 77 75 74 74 75 75 76 77 77 79 78 75 74 72 58 51 45 38 42 44 41 37 33 29 26 26 26 26 29 28 32 27 25 28 35 39 40 44 56 78 82
78 77 77 78 81 83 84 79 78 77 75 73 72 68 60 57 48 38 40 44 42 40 37 35 31 28 27 26 24 26 28 30 30 31 29 34 39 36 39 59 80 84 86
78 78 77 77 78 78 78 76 75 75 71 64 62 58 51 41 38 42 42 40 38 38 37 32 28 28 26 23 22 24 25 26 32 32 35 34 35 33 58 78 84 86 85
74 74 74 75 75 76 77 74 68 65 61 54 50 45 40 42 40 39 37 38 40 39 32 29 28 26 23 22 24 26 27 32 31 32 31 33 35 56 79 83 85 87 85
76 77 76 73 70 68 67 62 55 49 47 48 44 43 41 37 36 36 39 43 40 33 29 27 26 25 23 25 27 31 33 33 34 34 32 33 52 77 84 86 85 82 76
72 72 70 66 60 55 49 45 46 48 47 46 44 37 35 36 37 40 45 41 35 29 27 26 25 23 22 23 25 30 29 31 33 32 33 47 75 82 81 79 79 76 76

GFSMW_prec_cthk_027.txt.gz
RH
31 31 31 33 37 39 41 45 42 41 38 38 45 43 49 60 67 73 78 80 86 71 69 64 49 41 41 43 40 36 30 25 22 19 18 19 20 19 22 23 21 21 20
28 30 29 30 34 37 38 43 43 41 40 40 43 41 49 63 68 74 80 83 83 71 66 54 44 44 46 44 42 38 33 27 21 19 20 20 22 23 24 23 23 23 23
25 26 28 29 30 34 38 43 44 43 42 42 46 50 56 68 75 74 78 79 76 67 61 48 46 48 47 46 46 43 37 28 22 21 21 22 25 24 24 25 25 24 24
25 24 25 28 30 32 38 41 44 46 43 44 47 52 58 60 62 68 70 71 63 59 52 47 49 50 50 51 50 47 39 30 26 22 23 24 25 25 25 26 26 24 24
25 23 24 27 31 33 36 41 44 46 45 45 51 54 64 68 68 70 64 64 58 53 47 48 51 52 53 53 51 47 43 35 27 24 25 25 25 25 24 25 27 27 27
25 28 26 28 32 37 40 44 44 46 46 47 52 55 63 63 67 61 60 57 52 51 47 51 53 55 55 54 50 47 46 39 31 30 28 27 26 26 30 31 30 29 27
24 24 30 32 35 38 42 45 47 49 49 50 51 54 59 66 67 60 58 58 56 48 51 54 57 58 58 56 54 52 45 37 33 31 27 26 32 33 31 29 29 28 25
28 26 29 34 36 39 41 46 50 52 53 52 54 58 66 70 66 66 58 55 49 49 54 57 60 61 61 59 59 55 48 37 35 34 35 36 34 31 29 29 28 25 24
27 27 32 35 38 41 41 49 52 56 57 54 57 65 71 70 71 59 56 49 48 51 55 59 63 65 63 64 62 57 43 39 40 38 36 33 31 30 29 28 27 28 25
30 27 38 38 40 45 45 55 58 60 64 62 66 68 68 66 60 55 50 48 50 53 58 64 67 67 66 67 64 52 44 45 40 38 33 31 31 30 27 26 26 27 27
35 30 35 39 41 47 50 57 62 65 70 71 69 69 66 63 57 52 53 53 54 59 65 68 69 69 67 66 60 52 50 42 38 32 32 32 30 26 25 25 24 24 25
42 37 41 44 44 48 58 66 71 71 76 76 74 71 64 59 56 55 54 57 61 65 68 69 71 69 69 68 60 54 43 36 33 34 33 29 26 24 24 23 23 24 25
53 47 49 48 50 54 63 73 77 77 80 78 75 68 62 61 58 55 59 63 65 67 69 72 72 73 74 65 56 43 35 36 36 33 28 26 25 24 23 24 25 26 28
62 56 55 54 59 61 67 78 82 81 83 78 76 66 64 61 56 60 64 66 67 70 73 73 76 78 68 58 42 36 38 36 33 28 26 25 25 25 25 27 31 33 32
70 68 68 65 66 71 78 85 84 83 83 79 73 69 62 59 60 64 66 67 70 73 75 79 80 69 60 41 39 39 37 33 28 25 25 25 26 26 29 33 34 32 33
79 78 74 70 75 83 87 86 83 82 80 76 70 62 60 61 64 65 67 71 74 77 81 79 70 60 40 42 39 38 31 28 25 25 25 26 25 25 27 28 33 35 37
83 81 78 79 82 86 87 84 82 77 71 65 61 61 63 65 65 68 74 76 79 81 79 71 55 43 42 40 39 31 27 26 26 26 27 26 26 24 23 24 33 35 38
78 74 74 78 80 78 75 72 68 64 62 61 62 64 64 67 71 75 77 82 81 78 67 48 44 40 42 37 30 27 26 26 27 27 25 26 24 25 30 33 34 34 35
79 77 77 76 73 71 69 68 65 64 64 63 63 66 70 75 77 81 82 81 74 58 46 42 41 43 36 31 28 27 27 27 26 25 25 24 27 29 33 36 36 37 43
73 73 74 74 74 72 70 68 65 63 63 66 71 76 78 79 82 81 77 66 50 43 40 45 42 35 31 29 28 27 28 27 26 26 24 25 27 32 36 37 38 45 66
79 80 80 81 80 75 68 66 70 75 77 78 79 80 81 79 76 69 55 45 39 42 44 39 36 33 30 28 27 24 29 28 28 25 24 25 28 36 38 39 46 71 79
77 77 79 80 80 80 81 84 86 83 81 81 79 79 75 70 60 48 40 40 44 41 38 37 35 31 28 26 24 23 27 26 26 27 25 27 35 32 34 43 73 81 82
80 80 80 79 79 80 80 81 82 80 80 79 74 69 61 48 42 40 42 41 38 39 39 36 30 29 27 24 21 22 22 23 28 26 26 29 29 29 38 73 81 81 78
75 76 77 76 76 78 80 84 82 77 74 67 56 49 45 41 41 41 37 37 41 41 36 29 28 27 23 21 20 22 21 24 26 26 27 27 29 38 73 79 75 76 74
76 78 79 76 78 79 80 77 71 60 53 49 49 45 43 40 38 37 40 43 43 35 29 28 26 24 22 21 23 23 28 32 31 29 26 28 37 72 75 75 76 76 75
78 78 78 80 78 72 66 56 51 49 50 48 45 42 38 37 38 42 45 44 34 29 28 27 24 21 18 17 23 24 26 26 27 26 28 38 65 69 73 75 75 74 78

GFSMW_prec_cthk_030.txt.gz
RH
26 28 28 29 32 33 35 38 42 49 49 46 50 51 52 58 62 54 62 68 73 77 88 85 78 60 45 44 46 44 42 38 33 29 25 21 18 18 21 22 21 21 22
26 25 27 28 29 31 33 36 37 42 49 48 47 51 50 53 60 57 64 74 77 83 85 83 73 54 47 49 48 48 47 44 39 33 27 23 21 21 22 22 22 23 23
27 26 25 27 29 30 31 34 36 37 43 48 50 47 48 53 60 56 71 80 78 83 82 69 69 50 49 50 51 51 49 47 44 37 29 23 23 23 23 24 24 25 26
28 28 26 26 27 29 30 30 33 35 39 43 46 48 48 53 63 65 68 83 86 84 84 67 55 48 50 51 52 52 51 50 45 38 30 27 27 26 25 28 29 27 26
25 27 26 23 25 29 29 29 31 35 37 41 45 51 54 58 64 76 78 79 75 74 57 57 48 49 51 52 54 54 55 53 48 39 32 30 28 29 28 26 27 31 34
28 27 26 27 25 27 29 32 32 35 37 39 44 52 55 58 66 73 77 81 80 69 62 55 49 52 54 55 57 58 58 54 48 42 36 32 33 31 31 32 32 31 31
29 29 28 29 28 28 29 33 36 38 39 39 44 51 58 68 71 72 73 74 67 62 57 53 53 56 57 59 61 61 59 55 52 44 36 33 32 34 35 33 31 29 28
34 30 28 27 29 29 30 36 40 42 44 44 47 50 61 69 69 66 72 74 70 62 61 53 55 57 59 62 64 63 60 58 50 42 37 35 37 35 35 32 31 28 26
39 32 31 29 30 32 32 38 44 48 49 50 51 53 61 72 67 78 78 66 72 64 60 55 57 59 61 64 67 65 61 55 49 41 41 39 36 33 31 31 30 28 26
42 38 32 31 33 36 37 44 51 55 56 56 55 56 63 66 79 77 75 76 63 63 58 60 62 63 66 70 69 64 60 55 49 47 40 36 32 31 31 31 29 28 26
46 45 35 36 40 44 46 49 53 58 60 61 60 61 64 75 82 79 75 64 65 61 63 64 64 69 72 71 68 64 61 57 51 41 36 32 32 30 30 29 28 27 26
52 53 43 42 45 49 51 53 55 60 64 67 69 68 74 83 78 78 70 68 64 65 63 66 71 73 72 71 68 65 64 54 43 36 34 32 31 28 28 28 28 27 27
57 60 52 43 48 51 55 58 61 65 70 73 75 77 81 81 79 73 69 67 69 64 66 72 73 73 73 72 71 67 57 45 37 35 33 30 28 28 29 29 28 30 32
65 67 59 51 57 55 58 65 69 73 78 80 80 83 81 79 76 70 69 72 67 68 74 74 74 75 75 75 68 61 46 39 36 34 30 28 28 31 30 29 31 32 31
73 71 62 64 61 58 59 68 79 83 85 86 87 85 78 76 73 71 73 70 69 74 74 76 77 79 77 69 63 45 40 37 36 30 30 31 31 25 27 27 31 31 32
76 72 64 68 62 64 69 74 82 85 88 91 90 88 78 79 73 74 69 70 73 76 77 79 81 78 70 62 44 39 37 36 31 32 33 32 29 27 25 27 31 33 35
72 68 72 67 66 72 77 79 86 87 94 88 87 81 82 77 71 69 71 74 76 78 81 83 77 70 58 44 38 38 33 31 32 34 31 28 26 25 27 31 32 34 35
73 74 76 77 79 83 86 89 93 94 90 85 86 83 72 71 73 73 75 76 80 84 84 75 66 50 42 39 39 31 30 34 35 31 29 26 25 30 32 32 32 35 36
85 85 82 85 86 92 95 95 93 92 89 82 73 73 74 74 73 75 81 84 86 82 71 58 44 40 42 37 31 31 33 33 31 28 24 26 30 31 31 33 32 34 36
85 86 89 90 92 91 90 87 80 75 74 75 75 73 73 76 82 86 88 85 76 63 47 40 41 42 35 32 32 30 30 30 26 24 28 30 31 31 33 34 35 36 49
85 86 86 85 83 81 80 79 78 75 73 73 75 81 85 87 87 86 80 68 51 41 40 43 39 35 34 32 28 26 26 26 24 30 29 29 30 32 33 34 35 55 78
82 81 83 83 83 81 79 74 74 76 82 85 86 86 86 84 80 71 54 42 39 42 42 39 38 35 32 28 25 22 22 24 27 30 29 27 30 27 28 33 61 77 75
86 88 87 86 85 86 86 88 88 86 86 84 84 83 78 68 53 43 40 41 42 39 41 40 35 30 29 26 22 20 24 26 30 30 28 27 25 24 29 60 69 68 72
84 83 82 81 80 80 81 82 83 83 83 80 72 62 51 46 41 41 41 39 41 43 40 34 30 29 27 25 23 23 24 28 30 29 25 24 23 33 59 65 68 70 69
83 83 83 82 82 82 82 82 79 74 67 57 51 49 43 42 40 39 40 43 44 39 31 29 27 26 24 23 23 23 24 30 27 26 25 26 35 55 64 66 67 66 72
84 84 84 83 82 81 78 72 64 55 50 49 45 43 41 38 40 42 44 44 36 30 28 26 23 20 18 19 23 23 22 24 25 26 28 36 49 61 64 65 65 71 77

GFSMW_prec_cthk_033.txt.gz
RH
30 28 27 27 28 31 34 36 37 36 41 46 53 59 57 58 64 65 66 68 69 62 60 65 70 79 75 60 52 52 47 47 47 44 41 35 29 26 26 24 22 20 22
26 28 27 26 24 27 32 35 37 37 37 41 47 57 57 57 62 60 63 69 72 73 69 78 80 82 73 60 55 54 51 50 49 46 42 38 33 32 28 26 22 22 23
21 22 26 28 26 25 26 30 35 37 36 38 44 52 53 54 54 55 57 64 69 79 82 85 82 74 72 58 57 54 52 50 50 49 46 40 37 33 29 27 27 26 26
21 21 21 25 28 27 29 29 33 35 37 39 41 40 41 46 50 53 58 68 71 75 81 89 85 79 71 55 53 51 52 53 52 51 49 44 39 36 33 31 30 30 29
22 21 23 22 25 29 31 31 32 36 39 40 40 39 42 44 48 56 59 63 75 81 85 82 85 77 56 49 51 53 56 57 57 55 51 47 42 40 37 34 31 31 32
25 25 24 23 23 25 30 33 33 35 37 40 38 39 43 42 46 57 63 66 73 84 83 81 80 63 55 53 54 56 59 61 60 57 52 47 44 41 35 31 32 33 33
31 31 27 25 25 25 27 35 34 37 37 37 40 42 45 43 50 55 64 72 83 82 81 77 74 58 52 54 57 60 61 61 59 56 52 48 44 39 35 35 34 32 30
33 36 34 29 27 29 30 31 36 40 40 36 43 47 47 47 53 59 68 76 81 82 73 70 63 60 56 59 59 60 61 61 61 59 55 48 43 40 37 35 34 32 30
37 34 38 35 29 30 34 35 39 40 43 44 47 50 50 53 56 65 69 76 76 72 71 72 65 61 59 60 62 63 64 65 65 59 51 48 46 40 36 34 33 32 29
39 33 36 39 35 33 36 40 41 42 45 50 51 53 56 59 65 67 73 73 78 82 74 72 68 61 64 66 66 66 69 68 63 55 53 52 44 36 34 34 31 30 30
42 39 36 40 41 36 40 46 47 48 50 53 55 57 61 65 70 72 73 82 80 78 78 68 68 67 69 67 68 72 71 67 61 58 56 49 38 36 33 29 31 30 29
53 42 41 46 52 46 47 54 51 51 56 58 60 65 68 70 74 68 82 79 81 78 71 72 69 72 69 69 74 73 70 66 64 60 52 39 37 32 31 31 30 30 29
54 45 44 52 62 59 56 60 55 57 61 66 65 70 73 73 72 74 81 87 82 78 75 70 74 73 71 75 76 73 70 68 64 55 41 36 33 33 31 31 31 29 28
52 50 51 62 67 62 63 61 59 63 67 71 72 76 78 80 78 83 84 85 79 76 72 75 76 71 76 78 75 73 71 66 55 43 36 35 34 32 32 30 28 27 26
56 54 62 72 67 63 65 62 63 68 73 76 78 82 86 81 85 84 86 78 82 74 79 78 73 76 79 77 75 72 65 53 41 35 35 34 34 33 31 29 27 28 30
55 66 70 76 64 60 64 63 70 74 80 80 83 87 85 87 84 86 80 78 83 81 77 75 78 80 77 78 73 63 49 38 35 34 33 34 32 28 26 29 31 31 31
77 74 77 70 60 68 67 68 78 84 89 88 82 87 86 86 87 84 86 82 77 76 79 81 79 82 78 70 60 45 36 34 32 34 35 31 27 24 24 27 30 30 31
73 73 70 63 72 71 71 73 79 84 87 86 88 94 87 86 84 86 80 78 79 81 79 83 84 75 67 53 41 36 33 32 35 34 30 26 24 24 28 29 29 29 30
72 69 71 74 74 73 78 77 79 82 85 89 92 93 93 87 79 78 78 81 80 84 88 80 71 58 44 38 37 33 33 33 31 29 24 22 24 27 30 30 30 31 27
75 75 79 80 79 82 83 85 86 91 92 93 92 85 74 74 76 80 81 85 89 84 74 62 47 40 40 36 34 34 31 30 27 22 20 22 28 29 30 32 31 26 33
92 91 92 92 93 94 95 97 95 96 92 84 77 76 75 80 81 85 89 85 77 64 47 40 40 40 37 36 34 29 25 26 24 21 21 25 29 30 31 32 28 38 63
88 92 94 94 93 92 90 83 78 74 73 74 77 79 82 85 87 85 78 64 47 40 40 41 40 40 39 34 30 25 24 24 22 23 26 26 29 32 26 26 39 60 61
88 87 85 83 82 82 81 80 78 77 77 81 84 86 88 85 77 59 46 40 39 40 40 42 40 36 31 29 27 25 23 22 23 26 29 25 24 25 25 36 59 60 60
91 91 89 87 86 85 85 86 86 86 87 87 86 81 68 56 46 42 39 39 40 44 42 38 31 28 27 25 23 17 18 20 21 23 22 23 24 24 33 56 59 60 62
86 84 83 82 81 80 82 83 84 84 79 72 63 53 47 43 40 39 40 44 44 40 32 28 26 24 21 19 15 16 20 22 27 28 22 22 24 29 53 59 60 62 67
86 85 84 83 83 84 83 80 73 67 60 52 48 44 41 40 39 43 44 43 36 30 27 26 22 18 15 14 13 19 22 24 25 24 24 25 30 51 57 60 61 65 69

GFSMW_prec_cthk_036.txt.gz
RH
27 27 25 24 22 24 30 34 34 36 37 42 45 48 52 56 60 61 60 58 61 63 67 70 73 66 61 64 58 52 56 57 54 52 49 45 43 40 36 32 30 28 27
22 23 25 27 26 25 26 30 34 34 34 37 42 46 50 52 58 62 62 61 66 66 67 68 71 78 72 64 66 62 58 58 57 54 50 47 45 43 41 38 36 33 30
18 19 21 22 25 27 26 27 32 36 35 35 42 47 50 48 50 56 61 61 66 69 68 72 78 83 84 78 73 63 59 59 57 54 51 47 46 43 42 40 39 36 34
18 18 19 20 22 24 28 28 30 34 36 37 41 44 43 42 46 50 54 57 65 69 71 74 81 85 81 74 75 64 59 54 51 52 52 51 49 45 43 42 39 36 33
20 21 20 20 21 22 25 28 31 35 35 37 39 43 44 44 43 47 50 55 63 68 75 76 79 84 85 80 79 61 57 55 56 55 54 53 51 48 46 42 40 38 33
20 22 23 24 24 23 24 27 33 35 39 41 40 40 42 42 44 45 48 53 60 68 75 79 81 84 85 79 76 59 57 55 57 58 57 53 49 47 43 39 38 35 32
27 24 24 25 26 25 24 25 30 37 40 46 45 42 44 44 43 42 45 51 59 64 72 78 85 90 79 76 61 56 59 60 62 60 58 55 52 50 48 44 40 35 31
36 35 32 30 30 28 26 26 29 39 43 45 48 46 45 46 43 43 48 54 60 64 76 81 86 80 78 71 60 60 62 62 64 64 63 59 56 55 49 44 40 34 32
36 39 40 32 29 32 30 29 30 37 44 46 49 52 49 45 45 48 54 60 65 71 76 81 81 74 75 67 61 63 63 65 66 65 64 63 59 53 49 46 39 35 33
48 52 47 39 30 33 31 34 35 37 42 46 52 55 53 50 51 54 61 65 71 74 77 81 76 79 76 69 64 64 68 69 66 66 67 63 56 54 50 41 35 33 31
69 62 55 44 38 37 38 39 41 44 50 51 52 55 55 54 58 63 67 72 76 79 79 75 82 79 77 71 67 70 72 71 68 69 65 59 58 54 43 36 31 29 32
69 63 55 49 42 46 47 48 50 53 58 54 52 56 59 64 68 71 77 77 81 76 77 84 81 78 80 72 71 74 74 70 72 68 61 62 55 43 36 30 32 33 32
66 60 59 54 47 51 60 58 59 62 58 55 56 60 66 73 73 76 79 81 78 80 83 84 81 83 79 73 77 76 73 74 70 65 65 56 43 35 31 34 33 31 27
72 66 58 54 49 56 74 74 68 65 62 59 61 66 74 77 79 79 82 83 79 86 84 87 83 82 76 79 79 76 77 74 69 66 55 43 34 34 35 34 31 27 25
68 67 64 55 52 65 77 76 70 66 65 63 68 77 80 82 83 86 85 79 81 85 88 88 83 82 86 82 80 79 75 74 66 52 40 33 35 35 35 31 27 28 29
70 67 60 58 59 76 76 71 67 71 70 72 77 79 86 83 87 83 85 87 92 82 88 83 87 86 80 81 80 79 76 62 48 35 34 34 34 31 28 26 27 30 30
68 66 62 66 78 78 76 71 75 74 77 80 82 81 92 92 83 86 89 80 79 88 89 85 82 81 82 86 82 71 54 42 34 34 35 35 30 25 24 25 26 26 26
78 77 80 80 85 77 67 78 80 81 83 82 80 85 83 83 93 91 87 94 91 84 82 83 83 87 87 76 60 46 36 35 34 35 33 29 25 23 25 27 28 26 25
79 77 78 83 73 68 77 78 78 82 83 83 85 90 96 96 96 96 89 82 81 84 84 90 88 80 64 48 39 36 35 35 33 28 25 22 21 22 29 29 27 28 28
76 78 75 72 78 82 85 81 84 87 94 98 96 98 90 98 88 81 78 80 80 89 90 82 65 49 39 39 37 36 35 30 25 21 19 18 20 25 30 30 31 31 26
79 79 80 81 86 85 85 87 88 94 96 99 98 95 89 83 79 80 84 89 89 80 63 47 40 40 40 38 36 33 28 25 24 23 20 18 20 28 30 31 32 28 37
91 90 92 88 90 89 88 97 98 99 97 96 91 85 81 85 85 88 85 76 59 44 39 39 41 41 39 35 31 29 28 26 22 19 19 19 24 29 27 28 26 33 61
96 97 98 98 98 98 98 96 93 84 79 79 82 85 84 85 84 71 52 42 38 38 40 43 41 35 31 28 25 23 18 14 16 18 20 22 23 23 23 24 32 59 57
86 86 86 85 85 85 84 84 82 82 83 81 81 83 81 66 51 41 37 37 39 44 43 35 30 28 24 21 18 14 12 14 17 19 22 22 22 22 24 29 56 56 57
87 86 83 81 80 80 80 80 80 82 82 79 73 63 50 43 38 38 39 43 44 38 31 28 25 21 18 15 14 18 20 21 24 30 23 20 20 21 30 56 56 57 59
85 84 82 80 80 81 82 80 76 72 69 61 50 45 41 39 39 42 44 41 35 29 26 23 20 17 15 14 16 17 22 23 25 25 23 22 23 31 57 56 58 59 61

GFSMW_prec_cthk_039.txt.gz
RH
23 24 24 22 20 19 22 28 32 36 37 38 41 47 46 52 52 58 53 51 53 59 61 62 63 66 67 65 66 62 56 53 51 55 54 55 54 52 48 45 43 41 38
20 21 24 26 27 27 24 25 33 37 39 41 40 41 50 58 58 64 63 59 56 61 64 67 69 68 65 70 74 72 71 67 63 58 57 57 56 53 49 45 42 41 39
17 17 17 20 23 26 28 29 30 35 43 42 40 42 48 58 60 65 64 61 56 56 61 68 72 69 71 76 79 74 70 66 65 64 61 57 52 49 46 44 43 42 41
16 16 17 17 18 21 24 28 30 33 37 44 42 39 39 41 47 46 54 59 62 61 66 68 72 71 73 79 80 74 76 73 67 64 60 59 54 50 46 45 43 43 41
17 16 16 16 17 18 20 22 24 29 35 42 42 41 40 44 46 51 56 60 61 62 64 65 68 73 77 82 79 78 76 79 69 61 58 56 55 54 50 47 46 46 44
19 19 18 17 18 20 21 23 24 26 30 36 40 43 40 40 45 53 58 59 59 60 64 65 67 72 78 79 80 83 83 75 63 58 59 60 58 54 52 50 48 47 47
25 25 25 25 23 22 23 24 25 25 28 32 34 41 44 44 43 50 57 57 57 59 63 64 65 74 77 81 84 86 78 68 61 63 63 63 60 59 55 52 50 47 44
29 29 29 28 29 30 29 27 25 25 29 33 32 38 42 47 51 53 57 59 61 60 61 63 68 73 77 84 81 77 76 71 66 65 65 64 64 62 58 55 51 47 41
36 33 31 32 30 29 28 29 30 28 28 31 39 39 41 50 57 58 62 68 65 61 61 64 72 74 81 79 77 78 78 68 67 68 67 69 67 64 60 56 52 46 40
47 43 40 39 41 36 31 30 31 32 31 33 40 44 46 55 59 60 62 60 60 61 65 68 75 80 79 76 78 80 80 68 69 70 70 72 69 66 62 56 49 45 38
59 52 46 52 52 46 39 36 37 40 38 40 47 52 62 61 61 65 63 62 64 67 69 74 80 79 82 79 78 83 79 72 71 72 74 72 70 66 62 54 49 40 35
68 60 51 60 60 56 44 49 42 45 45 50 55 52 61 66 56 65 65 66 68 73 76 81 82 80 79 76 84 80 82 76 74 77 75 72 69 64 58 51 41 35 32
71 66 62 61 59 55 52 59 48 47 58 57 56 59 57 53 63 70 69 71 75 77 85 83 82 89 80 84 81 79 81 79 82 78 74 74 68 64 51 40 34 34 35
81 72 71 61 63 61 60 65 53 70 70 68 60 67 64 65 72 76 76 79 82 86 81 82 77 86 88 87 88 86 86 84 79 79 78 74 62 47 38 35 37 36 31
81 77 67 66 65 61 64 61 61 84 79 77 79 70 73 74 78 80 81 80 80 83 83 82 90 94 92 93 88 88 83 82 84 81 71 57 41 36 37 38 35 30 27
87 76 71 68 65 60 55 56 77 88 83 82 85 77 78 79 79 83 83 83 89 86 88 83 92 91 89 88 85 83 85 86 77 67 48 36 35 36 35 30 28 27 28
75 71 69 62 57 55 61 77 89 88 89 88 82 78 80 78 84 86 85 92 92 91 91 95 94 95 89 85 89 89 80 69 52 37 34 36 35 32 27 24 24 26 26
72 68 68 67 62 66 79 85 88 90 88 82 82 80 81 85 87 96 93 97 94 93 96 92 87 89 94 88 81 73 55 39 35 36 35 31 26 23 21 23 28 29 27
76 73 76 79 80 83 79 84 84 84 83 83 85 90 84 89 98 98 94 97 95 96 88 84 87 86 81 73 50 39 36 36 37 33 26 22 20 18 21 30 30 28 27
75 77 79 79 79 74 80 88 87 84 87 93 90 94 91 96 98 98 96 93 87 80 87 89 80 67 45 38 37 37 38 34 28 24 19 17 17 20 29 31 30 30 24
80 80 81 85 88 86 87 83 83 93 96 97 98 99 99 98 92 85 80 83 88 89 76 55 41 38 38 38 39 35 30 27 24 20 15 14 17 23 30 31 30 26 30
89 85 86 88 89 87 97 89 94 95 97 97 97 96 96 95 90 86 93 89 68 48 37 37 38 40 39 35 30 26 24 24 20 15 16 19 25 27 24 23 24 25 32
97 97 97 98 97 97 98 98 97 98 96 97 94 85 82 83 87 79 58 42 36 36 38 42 41 34 30 25 21 18 16 14 16 17 21 24 24 22 18 19 24 32 53
95 96 97 98 98 98 98 98 97 94 88 86 85 86 82 65 50 42 37 35 38 42 42 35 30 26 23 19 17 15 15 16 18 21 22 23 21 19 19 22 37 56 55
94 96 95 94 93 92 89 86 84 84 83 80 70 57 48 43 39 36 38 42 44 37 31 28 24 21 18 16 16 18 19 23 27 26 20 18 18 19 23 43 59 56 56
89 87 84 84 84 85 84 81 79 74 64 56 51 46 41 37 38 42 44 40 34 30 26 24 21 19 19 21 20 22 22 23 24 20 19 20 20 24 48 59 58 57 58

GFSMW_prec_cthk_042.txt.gz
RH
22 22 21 18 18 21 25 30 33 35 35 51 55 55 54 59 56 49 48 51 48 52 54 56 59 63 66 68 68 67 66 61 60 63 65 60 57 55 55 55 53 48 44
22 23 24 25 24 22 21 20 22 32 32 34 43 48 43 45 55 58 57 56 55 63 67 62 61 65 69 72 71 71 72 68 68 68 67 63 63 62 61 57 51 47 45
15 14 16 20 24 26 27 27 25 24 31 34 39 48 59 55 55 57 61 62 67 67 70 68 66 65 70 73 74 72 72 71 71 70 68 67 64 63 61 58 51 48 46
15 15 15 15 16 20 23 26 28 28 30 33 36 40 48 57 54 48 54 63 70 67 72 70 69 70 74 75 75 75 73 75 70 74 71 72 66 61 56 55 53 51 48
15 14 15 16 16 17 18 20 24 27 29 31 32 38 46 45 48 48 46 50 63 72 74 76 74 72 74 75 76 77 76 75 72 75 76 73 62 59 60 59 57 54 53
16 17 18 17 17 17 18 19 19 22 27 30 30 31 35 48 53 52 49 50 56 64 71 74 73 72 69 71 76 75 79 77 79 78 74 68 60 61 60 59 58 58 59
21 22 23 23 24 23 23 22 20 21 24 24 27 30 31 37 47 52 53 53 54 59 67 73 73 73 72 74 73 76 78 81 80 78 69 67 64 62 61 59 58 57 58
28 29 30 29 29 30 29 28 27 24 23 24 25 26 30 35 43 51 54 59 56 55 60 70 74 76 76 72 72 77 78 84 80 72 72 68 64 62 62 60 59 57 57
36 37 39 38 36 32 30 28 26 25 30 26 22 25 27 33 38 49 51 57 64 63 64 73 76 82 78 74 72 77 77 79 77 75 74 69 65 65 64 63 62 59 57
48 51 52 50 48 46 41 35 31 29 28 29 29 26 28 36 39 42 47 58 68 69 72 78 82 81 77 75 74 77 81 90 75 75 76 73 69 69 67 67 65 62 58
59 62 62 65 63 55 48 41 38 32 29 28 27 27 28 36 46 47 55 66 68 70 74 82 82 76 75 74 79 84 78 85 77 79 81 74 70 72 72 71 69 65 60
70 75 74 75 79 67 54 48 44 37 34 35 32 31 31 44 60 64 64 70 71 74 78 81 73 76 74 79 81 80 90 75 74 82 79 78 77 78 77 77 71 65 55
69 73 82 80 81 69 60 56 46 42 44 47 47 46 47 62 77 78 80 75 74 82 79 77 76 76 79 84 83 83 85 80 78 83 87 85 85 84 79 71 64 51 40
73 76 86 87 90 74 68 62 51 47 52 63 71 63 63 80 87 87 86 76 80 79 77 77 79 76 91 81 95 86 94 90 97 91 89 89 83 77 69 58 45 40 40
75 79 82 93 88 76 65 59 57 60 65 84 84 75 73 79 78 78 71 71 79 80 81 79 78 89 81 84 91 97 98 94 85 89 89 80 70 60 48 40 39 41 36
76 75 79 78 74 74 73 70 67 67 83 93 87 78 77 93 95 73 78 81 81 83 79 85 82 91 98 88 93 95 89 92 93 80 71 61 47 37 36 39 37 32 28
74 65 67 72 72 69 66 65 63 74 93 91 86 90 96 78 84 83 84 82 81 79 84 89 93 97 97 98 97 92 93 80 71 60 43 35 35 38 34 27 23 22 23
73 67 63 62 62 61 63 71 80 95 94 93 98 98 87 84 86 88 81 89 94 92 88 98 99 96 90 90 91 79 72 56 41 34 36 37 33 26 21 21 23 25 25
73 72 72 71 71 75 79 83 85 89 96 95 88 85 84 84 90 86 91 93 96 97 98 98 97 97 90 81 68 49 39 34 37 38 32 26 20 17 23 22 26 27 25
71 70 76 76 77 77 78 83 83 82 82 81 83 88 95 96 92 89 97 99 98 97 94 91 89 82 63 47 37 33 36 36 31 27 21 17 15 16 21 28 30 25 21
79 79 81 84 86 90 86 89 87 86 92 94 95 98 98 97 98 98 98 95 90 88 86 74 55 41 34 35 38 36 33 30 23 18 15 14 15 21 24 26 23 21 27
91 83 84 85 87 92 84 87 96 96 98 98 98 98 98 98 98 91 89 91 82 61 45 36 34 38 39 34 30 26 23 20 17 15 16 18 21 22 21 17 17 23 24
92 92 93 94 91 93 96 98 96 97 97 95 96 98 95 90 87 84 66 47 38 34 35 38 38 33 30 26 24 21 18 17 17 19 22 23 21 18 17 16 17 23 39
88 89 92 95 97 97 98 98 97 97 97 93 87 86 79 66 52 42 37 35 37 39 39 34 30 27 25 23 19 18 17 17 20 22 21 20 18 17 16 19 28 46 53
90 88 87 87 89 90 89 89 88 86 83 78 68 55 47 42 38 37 37 39 40 37 31 28 26 25 21 19 19 19 21 24 24 22 18 16 15 15 19 31 51 53 54
91 90 89 89 88 87 83 78 72 62 55 51 46 43 40 39 38 39 40 39 34 30 28 27 23 20 20 21 19 19 25 21 21 17 16 16 16 21 39 51 53 53 53

GFSMW_prec_cthk_045.txt.gz
RH
18 18 19 19 22 24 25 30 34 35 34 35 40 47 52 60 64 59 55 50 48 51 59 61 59 57 59 62 66 68 70 70 62 59 59 60 61 58 55 58 59 58 57
21 22 23 24 22 21 20 20 25 34 36 34 33 36 42 52 59 61 61 59 55 55 58 64 65 67 67 67 66 68 70 70 68 64 61 62 63 63 62 63 60 59 57
17 17 18 20 24 25 25 24 23 23 29 35 35 33 37 41 45 51 52 53 54 63 66 72 73 76 74 73 71 70 73 74 70 63 65 65 66 63 63 65 62 57 54
16 16 16 16 16 18 21 27 28 29 27 27 28 29 33 39 45 52 64 66 61 62 68 73 82 82 80 78 81 85 82 79 76 68 68 67 68 68 69 66 59 57 58
16 15 15 16 16 17 18 18 22 27 30 30 30 30 33 36 42 47 52 61 62 62 63 67 81 83 84 84 86 88 85 80 78 73 70 70 70 72 71 65 60 59 59
17 16 17 18 18 18 18 19 19 21 24 27 30 31 33 37 41 48 60 63 59 59 56 59 67 78 84 86 86 86 87 82 78 72 72 71 71 75 68 64 61 61 61
22 23 23 24 23 22 22 20 20 22 22 22 22 27 31 36 42 41 48 64 60 56 58 58 60 67 76 81 85 86 87 84 79 80 73 76 85 83 69 66 64 62 62
29 29 28 30 30 29 28 26 24 24 24 24 24 25 26 31 34 38 41 42 58 69 64 61 63 64 71 81 84 86 86 84 80 73 80 77 77 80 69 72 67 63 62
36 37 38 39 41 41 38 36 34 30 29 28 25 24 24 25 27 30 37 40 42 52 68 67 68 68 72 76 86 86 86 85 78 80 77 78 83 74 69 70 72 66 59
48 48 48 49 50 50 51 51 48 41 37 34 31 29 25 24 26 25 29 37 41 48 57 63 70 76 76 79 86 87 86 82 76 74 83 82 81 79 70 76 72 68 66
59 57 53 52 52 54 57 63 63 58 51 46 38 32 29 32 33 29 28 36 44 47 57 69 75 80 82 85 87 87 86 78 74 73 82 85 87 80 74 75 78 81 77
58 53 52 51 52 55 58 67 70 70 62 52 44 37 34 35 36 36 36 42 48 64 70 74 81 83 84 84 86 87 77 75 75 90 92 90 86 83 83 95 92 85 78
56 57 55 52 59 67 79 86 81 71 63 52 46 44 42 42 42 40 43 53 56 71 81 79 78 78 79 82 81 76 76 79 81 92 92 92 96 95 97 89 80 71 64
61 61 55 51 60 78 86 85 78 72 64 57 53 52 51 53 53 49 53 63 70 85 89 86 82 81 81 81 79 79 82 83 92 98 99 97 98 94 83 74 66 57 48
64 61 55 60 67 85 83 79 74 69 61 55 51 57 63 65 63 63 70 78 80 85 92 87 85 87 84 79 77 86 91 98 93 96 98 98 88 79 68 56 47 41 41
64 64 56 60 62 65 66 66 64 60 59 60 62 74 86 88 86 87 92 86 83 89 89 82 89 87 81 81 84 98 99 98 97 98 90 78 65 53 44 38 37 34 31
65 66 63 58 58 60 62 66 70 71 70 76 83 92 94 90 89 94 94 90 90 83 84 93 83 88 90 91 98 96 98 97 86 77 65 53 45 39 35 30 25 22 21
65 66 68 68 65 62 63 67 67 79 86 87 94 94 99 98 98 97 98 98 82 90 86 96 93 93 98 98 97 94 84 75 65 52 42 38 34 29 23 21 22 22 21
72 66 73 73 76 80 81 81 83 89 92 96 96 98 98 98 90 92 82 88 90 89 93 99 98 97 98 96 87 75 63 52 43 37 33 30 24 20 17 19 23 24 20
79 75 75 78 83 80 81 82 81 80 84 91 93 90 85 86 86 89 91 92 95 97 98 98 98 92 81 69 59 45 36 35 34 30 25 21 18 17 23 24 22 20 16
84 80 81 82 89 87 86 90 89 88 89 90 92 93 91 95 98 98 98 98 98 98 95 85 74 62 48 37 36 37 34 29 24 21 19 17 17 22 23 22 19 16 20
85 87 87 86 88 86 85 92 96 94 96 98 97 98 98 98 98 98 98 97 90 76 62 47 37 36 38 36 31 27 25 23 21 19 18 19 23 22 18 14 14 17 18
84 86 89 92 89 92 95 97 96 95 96 97 98 98 98 96 95 86 69 50 39 34 35 40 40 34 29 26 25 24 22 19 19 19 21 22 20 15 14 14 14 17 33
87 87 88 91 92 93 96 97 97 97 97 95 92 84 74 59 47 39 35 35 37 39 38 33 29 27 26 26 23 21 20 20 21 21 20 19 16 15 15 16 25 42 45
87 87 87 88 87 88 90 90 89 85 77 67 57 50 44 39 38 38 38 38 38 35 30 28 28 26 25 23 22 21 21 24 21 20 17 15 15 15 18 31 47 48 48
91 90 89 88 87 84 81 72 61 54 52 48 44 42 40 38 38 38 38 35 31 29 29 28 26 23 22 22 20 20 20 18 18 16 16 16 16 20 38 46 49 51 51

GFSMW_prec_cthk_048.txt.gz
RH
17 18 19 20 21 23 26 29 33 32 34 34 31 31 35 39 48 52 55 58 57 56 56 56 61 65 61 59 62 63 62 62 64 65 57 56 57 58 55 54 52 54 56
21 21 21 22 22 20 22 25 27 31 33 32 34 31 33 33 38 46 57 63 67 67 68 62 65 69 69 65 69 72 73 70 67 66 62 58 59 61 60 59 56 57 56
18 17 18 19 20 22 22 23 24 25 28 28 30 30 32 32 33 38 47 55 65 67 70 71 71 74 76 74 77 81 84 81 78 74 69 65 62 62 62 61 59 61 61
17 16 17 17 18 19 20 23 26 28 28 26 24 25 29 32 33 35 40 43 47 52 61 69 75 81 81 82 82 84 87 92 93 93 88 80 70 65 66 62 64 65 63
18 18 17 17 18 18 19 18 19 20 26 31 31 30 27 28 32 34 36 42 48 51 65 75 76 75 75 76 82 85 86 89 93 93 93 85 79 70 62 69 64 68 65
20 19 19 20 20 20 19 19 19 20 21 23 27 31 34 35 34 34 37 36 41 51 54 69 76 72 70 71 78 86 88 87 90 93 91 88 81 81 70 68 67 80 73
24 23 22 22 23 23 23 23 23 23 23 24 24 25 28 31 35 39 42 45 50 54 58 65 68 66 64 62 68 80 87 89 90 91 89 91 89 80 81 73 71 75 68
31 31 29 27 26 26 27 28 27 26 25 25 27 27 28 28 27 28 33 40 47 51 61 66 70 71 70 66 66 72 81 90 91 90 87 87 89 89 82 79 76 74 75
38 38 37 37 36 35 35 36 36 36 34 31 29 26 26 27 27 27 28 30 33 42 47 55 61 74 82 85 75 76 79 86 88 86 85 88 88 84 93 73 79 81 79
50 50 49 47 44 42 40 40 42 46 49 47 45 40 35 32 28 28 26 28 28 30 37 40 50 59 71 87 86 82 84 85 85 84 83 92 88 87 76 77 91 88 84
59 58 53 47 42 41 41 45 45 47 50 51 56 57 53 44 37 32 29 29 29 29 35 43 46 54 63 74 78 81 83 86 84 85 91 92 91 80 80 80 94 92 95
61 55 49 46 44 41 40 39 46 55 58 60 57 60 64 58 50 41 36 37 37 37 36 48 52 62 68 73 81 85 84 87 86 90 90 90 84 80 87 97 98 98 97
64 55 50 49 48 44 46 51 55 64 72 74 73 71 66 63 62 55 49 46 43 45 47 54 59 62 74 85 89 85 85 87 87 89 92 88 82 90 96 98 98 94 87
62 54 52 52 47 49 54 62 67 76 86 87 84 76 69 66 63 63 60 57 53 51 53 63 66 76 80 86 87 84 80 85 93 91 84 84 92 95 96 96 89 81 68
58 55 57 53 52 50 54 63 63 62 69 74 72 69 66 66 66 68 65 63 62 60 64 70 78 84 81 87 86 93 93 92 96 86 87 98 99 98 89 79 69 59 49
59 57 55 58 52 50 52 54 58 65 65 65 65 62 64 64 67 70 71 69 70 76 78 83 84 85 89 90 89 95 94 94 85 87 98 97 88 79 69 56 46 42 33
64 58 56 60 58 60 58 57 58 61 73 73 72 69 70 78 84 88 89 89 90 96 89 87 84 88 97 91 94 97 89 95 98 95 86 76 63 53 46 41 31 24 21
70 67 58 61 64 66 70 73 74 74 81 81 84 82 89 93 92 90 89 87 94 93 97 88 88 89 91 96 95 96 97 90 85 73 63 54 46 40 29 23 23 21 21
75 73 68 65 71 74 73 75 75 80 84 90 95 94 95 95 97 98 97 98 97 99 97 98 99 97 97 97 94 89 79 72 60 49 42 35 27 23 22 24 28 25 22
79 74 76 75 79 79 82 82 82 82 83 87 91 93 95 96 92 97 95 98 98 96 94 97 97 98 94 84 73 63 54 45 36 31 28 24 21 22 28 26 25 25 23
78 81 80 81 80 78 80 84 88 89 90 94 96 94 91 96 98 97 98 98 98 98 98 94 82 68 60 51 42 34 32 30 27 23 22 22 22 25 26 28 26 22 23
78 78 81 83 83 82 80 88 89 91 93 94 97 97 97 97 97 97 98 97 88 73 58 45 39 37 37 35 31 29 26 24 23 22 21 21 26 26 22 19 17 20 18
81 80 83 82 85 89 91 90 91 92 94 95 95 95 95 95 90 70 52 41 36 35 39 40 37 31 28 27 26 25 24 23 21 21 22 23 20 16 15 15 15 17 23
82 83 83 85 87 89 91 91 91 91 92 91 84 70 56 46 39 36 37 38 40 40 36 30 28 28 27 25 23 21 20 19 19 17 15 13 13 14 13 14 19 31 41
87 85 86 87 87 88 87 83 78 73 64 54 48 45 41 39 38 38 39 40 36 31 29 29 28 27 24 23 20 18 17 17 14 13 12 12 13 13 15 24 41 46 46
90 88 88 87 86 82 72 64 57 53 51 48 46 43 40 38 39 41 40 35 32 31 31 29 26 23 20 18 17 14 13 12 11 11 12 12 12 16 34 45 47 48 48

GFSMW_prec_cthk_051.txt.gz
RH
18 19 19 18 20 22 23 23 23 25 27 31 33 33 32 36 41 41 45 51 54 55 61 62 61 57 56 56 59 61 64 67 66 65 67 66 56 54 54 55 54 51 51
20 19 18 17 17 18 19 21 22 23 24 27 29 31 33 35 37 42 42 44 46 54 60 67 69 68 64 62 64 67 70 75 77 75 77 70 64 59 58 60 58 55 53
19 18 17 16 17 18 19 19 21 21 21 21 25 27 29 31 34 35 36 37 39 45 58 67 73 75 74 70 70 73 77 80 83 84 85 81 74 72 66 64 63 59 57
20 20 18 17 17 17 18 19 20 22 25 27 26 25 25 26 26 30 35 37 40 44 51 62 68 74 77 77 76 79 82 85 86 88 89 91 92 89 82 77 72 68 61
23 21 21 21 20 20 20 19 19 19 20 23 28 30 30 30 30 28 28 34 36 39 44 55 60 62 65 68 77 84 85 86 87 88 90 91 91 90 91 82 84 76 71
26 24 23 22 22 22 21 20 20 20 19 20 21 24 28 31 32 35 36 35 35 35 39 47 55 58 60 70 77 82 83 85 84 88 92 93 92 90 88 87 82 85 72
28 28 26 24 23 22 22 22 22 22 21 21 21 23 24 26 28 33 37 43 45 45 43 43 51 55 62 74 85 82 80 80 81 85 90 93 91 93 89 84 88 80 81
33 33 32 31 30 28 26 25 25 25 25 24 24 25 26 26 26 27 28 28 29 37 48 51 53 58 64 73 81 84 79 77 78 83 88 88 89 87 88 86 82 89 81
39 39 39 39 37 35 33 33 33 33 35 35 35 34 33 31 29 29 28 29 29 28 31 40 50 57 63 70 79 87 87 90 89 92 89 85 84 83 85 84 83 91 86
46 44 44 42 40 39 37 37 37 37 37 38 39 40 41 43 42 41 38 33 30 29 29 32 37 44 55 64 72 78 90 94 98 98 92 88 87 84 88 85 89 89 87
51 49 49 45 40 39 36 35 36 38 39 41 39 38 40 44 50 54 50 47 42 37 33 32 34 37 44 49 58 68 78 86 90 99 92 87 85 89 90 89 90 92 90
54 54 53 46 44 43 42 40 38 37 37 39 43 42 47 51 56 59 64 65 58 51 46 42 41 41 43 48 53 61 67 75 79 83 84 85 86 92 89 93 91 97 96
58 56 50 48 46 44 40 41 40 40 45 49 52 56 63 68 71 74 74 67 71 68 62 54 51 49 49 56 60 65 70 76 84 80 87 86 88 92 95 97 99 90 89
60 57 52 50 46 45 46 43 40 44 49 51 55 54 62 73 78 84 81 76 73 72 70 65 60 59 58 62 69 72 76 81 85 88 91 92 93 90 98 98 94 93 93
63 59 49 49 47 50 48 44 43 44 45 50 56 54 61 69 73 79 81 75 72 70 70 68 65 66 70 74 75 74 82 92 84 84 93 97 99 98 97 91 89 85 76
63 62 54 51 52 51 51 51 52 51 49 53 59 62 62 65 69 75 76 75 78 79 76 76 79 79 79 80 81 83 83 86 88 92 98 99 98 93 85 79 70 59 52
67 65 59 53 53 55 56 58 59 62 68 67 69 75 77 79 87 88 87 92 90 84 81 79 79 83 87 88 93 93 97 93 96 93 95 93 82 77 69 61 53 43 33
67 65 64 60 59 64 64 66 67 67 71 76 81 87 91 95 97 99 99 97 95 93 95 92 97 97 98 87 98 96 97 96 94 88 84 78 65 54 46 37 28 24 23
68 69 69 70 68 71 70 74 74 74 70 75 81 86 89 92 95 98 98 98 98 97 98 95 93 95 92 95 98 97 91 83 75 64 55 48 40 32 24 24 27 27 25
68 71 75 75 73 73 72 76 78 79 81 84 86 85 87 94 93 97 97 97 98 97 97 98 98 98 97 93 82 71 59 51 45 38 31 25 22 23 28 28 26 24 21
69 72 75 77 77 73 74 78 79 82 84 84 89 92 92 95 95 97 97 98 98 98 98 95 84 68 59 54 47 41 34 29 25 23 22 21 19 23 25 22 17 14 17
71 72 73 77 79 79 81 79 80 83 85 87 89 90 93 95 96 97 96 86 64 46 40 39 39 37 33 29 27 27 25 23 21 20 18 17 14 12 10 10 11 13 14
75 74 76 77 81 83 84 83 84 84 85 88 88 87 80 67 48 39 36 36 38 39 37 34 30 28 28 28 27 25 22 19 16 14 12 12 11 10 10 11 12 15 21
82 80 80 82 82 84 83 83 81 78 73 66 55 47 41 38 37 37 38 38 38 34 30 29 29 29 28 26 23 19 17 14 12 11 10 10 10 11 11 14 21 33 40
85 83 83 82 83 83 78 72 68 59 51 48 46 42 39 38 38 40 40 38 33 32 32 31 29 28 25 22 19 17 15 13 11 10 11 12 12 14 19 30 38 40 41
87 86 86 84 84 81 69 59 53 49 49 48 45 41 39 39 42 42 39 35 35 35 32 30 29 25 22 21 17 15 16 14 12 12 12 12 15 22 33 37 40 41 43

GFSMW_prec_cthk_054.txt.gz
RH
19 18 17 17 17 19 21 23 25 24 25 31 27 30 32 33 36 38 42 46 51 54 57 54 60 62 62 61 61 60 59 57 60 66 63 63 64 63 56 55 52 51 52
19 19 17 17 16 16 17 18 20 21 22 25 27 25 29 31 33 35 38 39 42 49 55 57 57 60 66 65 64 66 66 65 64 70 71 70 70 72 69 65 61 58 57
20 20 20 18 17 16 16 16 16 17 19 20 24 28 30 31 28 29 31 35 39 42 46 49 55 57 62 67 67 70 73 74 72 73 77 80 76 76 76 76 74 74 68
23 23 22 21 19 18 17 17 18 19 21 22 23 27 28 29 26 26 29 32 36 39 48 48 57 53 56 66 70 72 76 80 78 78 82 83 80 79 81 83 86 82 79
26 25 24 21 20 19 19 19 18 18 19 20 23 26 32 33 34 35 33 32 30 31 39 48 51 58 58 62 65 74 78 80 83 80 84 86 86 86 87 85 83 84 89
28 26 25 22 21 21 20 20 20 19 19 19 18 19 21 29 34 36 37 39 40 36 34 35 43 49 55 64 66 70 73 75 79 80 86 89 86 84 88 86 83 82 84
29 29 28 27 25 23 22 21 21 21 21 20 20 20 20 21 28 32 35 38 38 36 38 42 43 42 44 52 68 69 70 74 79 80 87 89 89 87 91 89 92 84 85
34 34 34 32 31 28 26 24 23 23 23 24 24 24 24 26 27 28 33 35 36 37 34 38 45 52 56 53 54 60 70 73 81 86 94 94 89 87 92 92 91 90 82
39 38 38 37 36 33 32 31 31 31 31 31 31 32 32 32 33 35 36 38 38 37 36 32 31 38 48 56 63 63 61 70 80 88 89 90 93 94 94 92 90 88 81
42 42 42 42 42 39 35 34 34 34 35 35 37 36 37 37 38 40 41 42 44 45 45 43 41 37 38 47 57 62 70 76 79 85 88 98 98 98 97 95 92 92 93
46 46 46 46 46 43 39 38 35 34 33 33 32 34 35 33 35 36 38 40 43 46 49 51 50 47 46 45 48 54 60 63 75 85 89 90 99 91 98 93 95 89 87
51 50 50 48 48 44 41 39 36 36 35 34 33 34 37 41 43 45 46 46 52 52 55 58 60 60 60 56 53 52 54 60 64 68 74 76 77 82 84 84 84 87 87
55 53 52 49 47 43 42 42 41 38 33 33 35 37 39 43 43 44 48 59 62 68 72 77 77 83 77 66 60 61 61 63 64 66 70 71 70 74 75 80 97 90 95
58 55 53 50 46 43 45 44 38 38 35 33 34 36 40 42 40 45 57 68 75 82 87 85 83 85 83 76 68 65 64 66 72 73 72 69 76 79 96 97 94 95 95
58 57 55 51 48 46 44 43 44 45 43 43 43 44 47 48 53 51 53 66 79 85 88 89 88 87 83 78 72 72 71 71 76 76 75 84 99 99 93 96 96 97 95
59 60 58 54 53 49 46 48 50 51 51 57 55 53 53 59 64 68 74 78 80 82 87 91 85 83 82 79 76 75 77 81 86 85 83 94 93 88 94 98 92 87 79
59 60 58 57 54 52 54 55 55 54 54 58 60 64 66 69 77 80 85 90 91 94 97 90 94 92 90 86 82 86 85 85 89 97 92 93 93 91 87 83 77 64 51
58 62 63 62 60 60 61 60 61 64 61 60 62 66 72 74 79 84 90 94 98 98 96 95 98 93 92 98 97 95 96 98 96 97 97 94 88 77 62 50 41 34 29
61 63 65 67 67 66 64 64 67 71 71 70 70 72 74 79 79 83 86 90 94 97 97 98 94 95 97 96 98 94 93 94 89 79 63 53 45 38 30 29 23 22 24
63 63 66 70 71 67 66 69 71 73 75 74 77 77 77 81 82 83 85 89 91 94 96 97 98 98 98 95 89 78 64 53 46 41 36 31 25 19 17 22 19 17 15
66 64 66 69 73 71 71 73 74 75 78 78 77 78 78 81 82 84 87 90 92 94 93 85 71 58 53 47 42 38 34 30 26 22 19 16 13 12 11 11 13 10 10
70 67 68 70 73 75 75 77 76 77 77 79 79 78 76 73 69 63 53 43 38 38 38 37 34 31 29 27 26 24 23 20 19 16 13 11 9 8 9 9 9 9 9
78 74 71 72 74 75 76 77 78 78 77 75 69 61 51 44 37 36 37 37 37 35 31 28 28 28 27 27 25 22 19 17 14 14 12 10 9 9 9 9 10 13 21
81 80 78 77 77 77 78 77 74 67 58 52 46 41 37 36 36 37 38 36 33 30 29 30 29 28 27 25 22 20 19 15 15 14 12 11 10 10 11 13 20 29 32
85 83 83 82 81 81 81 75 61 51 47 43 40 37 36 36 36 38 37 35 32 32 32 31 30 30 27 25 22 22 20 18 17 14 13 12 10 12 16 26 31 33 35
89 89 85 86 82 80 78 67 51 47 45 43 41 38 38 37 38 39 37 36 35 34 33 32 32 30 27 24 23 21 19 18 17 15 13 12 12 18 27 31 34 36 38

GFSMW_prec_cthk_057.txt.gz
RH
21 22 19 18 17 16 18 21 24 27 30 31 37 35 29 27 30 33 39 43 42 45 49 51 56 58 60 63 65 65 64 63 63 62 58 58 58 59 59 58 56 57 58
21 20 18 17 16 16 16 17 19 21 23 26 29 34 28 25 25 30 32 38 38 41 46 48 49 56 59 64 66 70 68 66 68 67 67 66 65 64 66 69 66 63 65
19 21 21 18 18 18 16 16 16 17 17 19 21 25 30 28 28 28 28 29 34 41 45 47 50 50 56 60 63 67 69 68 69 73 74 74 71 70 70 73 77 73 71
24 24 24 21 21 19 18 17 17 16 17 19 20 21 24 30 30 31 31 31 31 33 40 49 55 57 61 63 64 65 68 75 72 76 77 79 77 78 75 77 78 78 77
27 27 24 24 23 20 19 19 19 18 17 17 19 21 24 27 31 36 35 34 35 34 34 38 44 51 57 60 71 71 70 71 77 77 83 87 85 83 80 80 82 81 81
30 30 28 26 25 24 21 20 20 20 20 18 18 18 18 20 24 31 35 37 39 40 40 40 42 44 47 53 54 64 71 69 78 79 82 86 88 87 87 88 91 91 88
33 32 29 28 27 26 24 22 22 23 23 23 21 20 20 20 20 25 30 34 36 38 38 39 43 45 47 51 56 61 64 66 69 80 79 79 82 88 86 91 92 96 91
35 35 33 32 32 32 31 28 27 26 26 25 24 25 26 25 26 28 31 36 40 44 48 47 42 40 44 52 55 58 63 69 65 65 73 79 83 84 89 92 94 97 92
37 35 34 34 34 35 35 33 33 32 33 32 33 34 34 34 32 33 34 35 37 40 45 53 54 50 50 53 57 59 64 67 71 78 77 74 73 78 92 95 90 91 97
40 39 38 38 38 38 37 36 34 33 33 33 34 35 36 35 33 31 30 30 32 33 37 44 47 47 51 56 63 64 62 67 70 74 81 81 83 85 88 91 96 95 98
43 41 40 40 41 40 40 40 37 35 33 32 32 32 31 30 30 30 32 33 35 38 41 44 49 48 47 54 57 57 63 69 68 75 83 83 83 88 91 91 95 95 92
46 45 44 44 45 44 44 42 39 37 35 32 32 31 30 29 31 32 35 37 39 42 45 50 54 58 58 60 63 65 61 66 73 73 74 77 79 81 86 89 89 94 83
50 49 49 48 49 45 44 42 40 38 36 34 32 30 28 29 30 34 36 38 42 47 48 61 70 73 73 74 75 78 77 79 77 73 73 72 76 77 76 77 80 77 74
53 53 53 53 52 47 44 42 40 40 40 38 36 36 36 36 35 38 40 42 47 50 58 64 72 78 84 89 89 86 84 91 87 77 77 75 74 76 78 82 78 80 77
55 54 57 56 53 50 45 41 43 44 45 42 44 44 44 43 41 43 46 52 56 60 67 70 70 79 83 84 91 93 92 96 92 84 78 77 80 77 93 82 85 90 98
59 58 59 56 55 54 49 46 48 50 50 46 45 47 49 52 55 57 62 60 65 70 72 73 79 86 92 94 94 92 93 92 88 87 83 81 82 88 79 83 96 97 96
60 57 56 55 55 55 52 52 55 55 55 52 48 51 52 58 61 62 65 69 72 74 75 84 87 89 94 92 95 91 88 88 89 89 85 86 96 97 94 90 81 77 69
57 56 57 58 59 59 59 59 59 59 60 59 58 58 57 62 64 65 66 68 73 78 79 81 82 88 94 95 98 98 98 98 98 92 98 98 92 88 82 70 59 45 32
60 58 58 60 62 65 64 63 62 64 66 64 64 65 63 64 66 66 68 70 73 77 79 83 87 91 94 95 97 97 97 93 88 80 72 61 52 43 36 31 24 19 19
64 59 59 62 63 64 66 66 66 67 68 68 68 68 67 68 67 68 70 70 71 74 79 83 87 91 92 89 80 68 57 47 41 38 31 26 20 15 13 12 16 14 15
66 63 64 64 64 66 67 68 70 71 71 71 70 69 69 68 64 60 56 56 57 53 44 37 35 35 32 29 28 27 25 24 22 20 17 14 12 11 10 10 10 11 10
71 70 66 66 65 65 67 70 72 73 72 71 72 71 65 56 48 42 38 34 34 33 31 29 27 27 27 27 26 25 22 19 17 14 14 15 13 12 11 10 9 9 9
75 74 72 68 67 67 67 68 70 71 69 67 62 52 41 35 33 33 34 34 32 30 28 29 28 28 27 26 24 22 20 18 17 15 14 15 13 12 11 10 10 11 16
75 74 75 74 71 70 71 71 70 67 60 51 42 37 34 34 33 33 34 33 31 30 30 29 29 28 27 26 25 24 24 22 20 18 17 15 14 13 12 12 16 24 27
76 77 75 77 76 73 75 75 70 58 48 42 37 36 35 35 34 34 34 32 32 31 31 30 30 30 30 28 26 25 25 24 22 20 20 18 16 15 16 23 28 28 30
76 81 81 79 81 77 75 74 67 56 45 40 37 37 38 37 37 36 33 33 33 33 33 34 34 33 32 31 29 28 27 26 24 23 22 21 20 21 25 29 30 31 32

GFSMW_prec_cthk_060.txt.gz
RH
26 25 24 22 21 20 18 18 20 23 26 32 39 41 36 35 37 33 35 35 40 39 42 43 45 47 52 55 58 61 60 60 63 65 65 62 62 62 65 63 61 56 54
25 24 23 22 21 20 18 17 16 17 20 23 27 33 35 34 31 30 30 30 37 41 45 46 46 44 55 59 62 61 62 64 68 67 69 66 64 65 68 70 71 69 65
23 22 22 21 19 17 17 17 16 16 16 16 17 19 24 26 27 24 23 23 26 39 43 49 55 55 56 58 59 60 59 64 68 71 73 74 69 69 71 73 76 78 76
23 23 23 22 21 19 18 18 17 17 17 18 19 19 20 23 27 29 25 25 27 30 33 45 50 55 56 60 64 65 63 67 68 71 70 75 75 77 74 76 77 81 81
28 27 25 24 23 21 19 19 18 18 17 17 16 17 18 21 25 30 36 37 36 35 34 34 36 42 47 52 59 66 70 70 69 71 78 77 82 83 85 83 82 85 87
31 30 28 26 25 24 21 20 19 19 20 19 18 17 17 18 19 21 25 28 31 34 35 34 39 41 43 45 50 58 64 69 73 73 72 74 80 82 83 88 91 91 91
34 32 30 29 27 26 24 22 21 21 21 21 21 22 23 22 21 21 22 26 30 34 38 41 43 46 52 52 53 54 58 63 68 72 71 75 79 82 85 89 92 93 93
38 36 33 32 31 29 28 27 26 27 27 27 26 26 27 26 26 27 28 30 33 37 42 45 45 46 54 52 54 57 62 69 74 74 79 78 80 83 87 90 93 95 93
37 36 34 33 32 32 31 31 31 31 31 32 32 32 33 33 33 32 31 30 29 29 29 33 39 39 43 45 49 52 55 66 76 80 83 88 89 85 83 89 89 90 87
40 38 36 35 35 35 35 35 36 36 34 32 31 31 32 33 33 33 32 29 26 26 27 29 31 36 40 45 48 53 54 62 70 76 87 92 94 92 91 96 97 95 92
41 40 39 39 39 39 39 39 39 38 36 34 33 32 31 30 30 29 27 26 27 27 30 33 36 39 45 49 53 61 65 64 65 71 76 82 85 88 91 95 97 97 95
42 42 42 43 44 43 42 40 41 40 38 36 32 30 30 30 29 28 28 28 28 31 34 36 39 42 48 56 63 75 80 79 76 75 77 76 74 82 89 94 97 96 92
47 47 47 47 47 46 46 43 42 40 38 35 33 32 32 29 28 29 30 29 31 34 37 40 41 46 53 56 60 69 84 90 93 86 84 84 84 85 86 84 87 85 86
50 50 49 50 51 50 50 46 42 40 37 37 38 39 38 37 38 39 36 35 38 42 44 45 44 47 53 58 65 75 81 86 95 96 92 93 89 87 85 86 83 80 76
52 49 50 52 51 51 51 47 42 41 41 42 44 43 42 42 43 45 45 44 47 47 49 51 53 55 60 65 72 81 83 86 93 93 94 97 90 94 93 88 85 84 88
55 53 53 53 54 54 53 50 47 46 49 50 49 46 44 46 47 50 52 51 53 57 61 61 59 62 65 69 72 81 86 85 86 98 94 94 98 97 96 96 89 89 94
59 56 56 56 55 55 54 52 52 54 54 54 56 53 51 51 51 54 54 55 57 61 63 64 64 64 67 72 76 79 86 92 92 95 97 95 96 92 94 92 88 84 78
64 59 55 55 56 57 58 59 59 57 57 61 61 60 59 57 56 58 57 58 60 64 65 65 68 71 72 76 79 83 88 94 96 97 98 95 94 91 84 75 65 53 41
64 58 55 56 58 59 61 63 63 64 66 66 63 62 62 61 60 60 59 59 59 58 58 61 63 66 69 72 76 73 66 57 54 51 47 42 34 29 23 19 17 16 17
64 61 58 60 62 60 61 62 62 64 66 67 67 66 65 63 63 62 56 53 53 55 51 46 39 29 27 26 25 25 25 26 25 23 20 17 14 13 12 12 14 15 14
69 67 64 64 63 62 62 64 64 66 68 69 68 67 66 65 57 51 45 39 31 29 28 26 25 25 25 25 24 23 22 20 19 18 17 14 14 14 13 12 11 11 11
75 72 71 66 64 63 63 64 65 66 66 68 69 67 63 54 43 33 31 31 29 27 25 26 26 26 26 24 23 22 21 20 20 19 18 17 16 15 14 13 12 12 12
76 74 72 70 66 65 65 65 65 65 64 63 62 56 44 33 31 32 32 31 29 28 28 28 28 28 27 26 25 24 23 23 23 23 20 19 19 18 17 16 15 15 18
75 74 71 70 69 67 68 69 69 68 65 58 49 40 31 33 34 33 32 31 30 29 30 30 30 29 29 29 28 28 27 26 26 24 23 22 21 20 19 20 21 27 29
74 72 71 70 71 71 70 71 72 67 59 53 42 34 33 36 36 36 33 32 31 31 31 31 31 32 32 32 32 31 30 29 29 27 26 25 23 22 22 26 32 33 32
73 72 72 73 73 75 73 72 70 64 57 52 42 35 35 37 39 39 36 35 34 33 33 34 35 35 35 35 36 35 34 32 30 29 28 26 25 24 28 33 35 35 35

GFSMW_prec_cthk_063.txt.gz
RH
32 30 27 25 24 22 22 21 27 32 31 30 30 32 30 34 46 41 39 44 44 43 45 47 46 48 51 51 54 56 58 62 68 70 68 65 62 58 60 62 63 64 68
33 30 28 26 25 24 23 23 22 21 22 23 24 26 28 28 29 33 36 40 42 45 46 45 47 50 52 57 58 61 63 66 69 73 76 74 71 67 69 69 70 70 69
33 31 29 26 24 23 22 22 21 20 19 19 20 20 20 20 21 22 23 25 28 30 33 39 40 44 51 51 56 57 62 66 69 72 76 76 70 72 73 71 73 75 77
33 31 28 26 24 23 20 19 19 19 19 18 18 18 19 19 19 21 27 27 27 26 27 31 36 44 49 56 53 57 63 66 62 69 74 77 75 74 72 75 75 78 83
33 30 26 24 23 22 21 20 19 19 18 17 17 17 17 18 20 22 23 27 30 36 36 35 36 37 40 42 47 52 56 60 64 66 70 82 82 81 81 80 83 82 84
33 31 30 26 25 24 22 21 20 19 19 19 18 18 17 17 17 17 18 21 25 30 31 30 32 35 36 38 46 56 58 66 67 70 74 82 83 81 84 82 82 89 92
33 31 29 28 27 26 25 24 23 22 21 21 20 20 19 19 19 18 19 20 22 26 30 34 38 38 44 46 49 53 56 57 59 62 67 72 80 86 86 86 85 88 91
34 32 32 31 30 28 28 27 27 26 25 25 25 25 24 25 25 25 25 24 26 28 31 34 37 35 34 34 37 40 44 49 54 58 70 75 80 89 91 88 98 85 88
36 36 36 36 36 34 32 30 30 28 27 27 27 28 29 31 31 31 32 31 30 29 29 29 27 29 32 34 36 39 40 43 48 53 61 71 75 81 88 84 99 86 98
40 40 37 35 34 33 33 32 31 30 30 30 30 30 30 29 29 29 29 29 29 28 26 24 24 25 29 32 35 37 41 43 50 56 62 70 77 78 80 79 88 90 98
42 42 41 40 38 37 36 35 34 34 34 34 34 34 31 30 29 28 27 27 25 23 24 25 27 30 32 33 35 38 41 46 54 61 73 81 80 83 81 80 82 85 93
45 44 42 41 40 41 40 40 39 38 38 38 36 34 31 30 29 29 28 26 25 25 25 27 29 33 34 35 36 40 43 48 53 62 76 88 90 85 82 81 82 83 86
47 48 46 47 45 45 45 45 45 42 39 38 35 34 34 34 34 34 32 32 31 30 28 30 35 39 39 40 41 46 47 50 61 65 70 81 91 92 89 89 90 88 84
52 52 50 49 49 50 49 49 48 44 41 38 37 38 38 38 39 38 38 39 37 34 36 42 45 46 44 43 46 49 53 58 65 71 72 82 86 88 92 93 91 87 88
56 54 51 50 51 51 50 50 49 44 43 42 42 43 42 41 41 42 44 46 46 45 46 49 49 50 49 52 54 59 62 64 66 71 77 85 89 90 90 93 93 91 93
60 56 54 54 53 54 53 51 50 47 47 48 49 48 47 44 45 47 48 51 52 52 52 56 56 55 53 54 59 62 65 70 71 73 76 83 88 91 95 97 92 91 96
63 59 57 55 55 54 55 55 53 50 52 53 52 52 54 52 52 52 54 55 55 55 57 58 57 54 54 57 60 64 68 72 75 78 80 83 89 90 96 96 98 97 91
67 65 59 56 57 58 57 56 56 56 56 54 56 58 58 58 58 57 57 58 59 59 57 54 53 53 55 55 53 52 50 48 48 50 53 54 49 39 31 26 24 25 24
70 66 62 60 58 57 57 57 58 58 59 62 62 61 61 62 63 60 60 58 56 52 51 51 45 36 27 23 22 22 22 21 20 18 17 15 13 12 13 13 14 14 15
75 73 65 60 59 58 59 58 57 58 60 61 62 65 65 65 66 63 58 55 46 34 31 26 23 22 23 22 21 20 19 19 18 18 17 16 15 15 14 15 15 16 16
79 73 68 64 60 60 59 60 61 62 63 63 63 64 66 68 63 53 42 33 29 27 26 24 24 24 24 23 22 22 21 21 20 20 20 20 18 17 17 17 16 16 15
79 75 70 68 65 63 62 63 63 63 63 62 62 63 62 56 44 35 32 30 30 28 27 27 26 26 26 26 26 25 24 24 24 24 23 22 21 20 19 19 19 19 18
78 78 73 71 69 66 65 65 65 65 64 63 61 58 50 39 33 33 33 32 30 29 29 29 29 29 30 30 31 30 29 28 28 27 26 25 25 23 22 21 21 21 22
80 79 74 69 69 69 67 67 67 68 68 65 60 50 39 34 32 34 35 34 32 31 31 31 32 32 33 33 33 33 32 32 31 30 28 27 27 26 25 24 25 28 33
81 76 73 70 70 71 72 69 69 69 67 61 54 46 41 37 34 37 38 37 36 35 35 34 34 36 37 37 36 36 35 35 35 32 30 29 28 27 27 28 31 36 37
80 74 74 72 71 74 74 72 72 69 64 58 54 47 43 40 37 37 38 39 40 41 41 40 40 40 41 41 41 41 40 40 38 36 33 31 29 27 27 32 36 39 40

GFSMW_prec_cthk_069.txt.gz
RH
51 44 39 37 34 30 27 27 29 34 34 38 41 39 38 39 38 39 41 45 48 49 51 55 60 64 66 70 60 53 50 53 52 51 51 60 64 65 68 72 75 77 78
46 41 40 37 35 32 30 28 27 27 28 31 33 34 34 34 34 34 35 37 38 40 42 47 54 56 55 50 47 44 43 42 50 56 64 64 62 63 66 67 70 73 73
45 41 39 38 37 35 33 31 29 28 28 27 26 26 27 28 28 29 28 27 28 32 37 38 41 42 39 35 31 32 39 43 49 55 63 64 60 57 58 60 65 70 68
44 43 43 40 38 37 35 32 30 28 27 26 26 25 25 25 24 24 23 22 22 22 23 23 25 27 28 29 31 34 42 46 46 44 46 54 61 60 57 59 62 65 77
47 44 43 42 40 38 36 34 32 30 28 27 24 23 23 23 22 21 21 21 22 22 22 23 24 27 30 31 34 40 41 39 36 39 45 47 51 50 58 52 59 64 65
49 46 44 43 42 41 38 36 33 30 28 27 27 28 27 26 23 22 21 19 18 18 18 19 21 24 27 30 32 32 32 44 51 49 49 50 54 52 52 52 50 52 52
49 47 46 44 43 42 38 35 33 31 30 30 30 30 28 27 26 23 21 20 20 21 22 21 23 25 29 33 34 35 38 40 42 43 39 38 36 46 44 45 48 48 47
50 49 46 45 43 42 41 39 36 34 31 28 27 28 28 27 25 24 25 27 27 26 25 25 26 28 31 35 38 39 39 37 34 34 36 37 36 37 41 47 51 53 52
52 52 48 45 42 41 40 39 39 36 33 31 28 27 27 27 27 28 30 31 30 30 29 29 30 30 29 30 30 31 29 30 32 36 38 38 36 37 40 42 48 51 54
55 54 49 47 43 40 40 39 36 34 33 31 29 29 29 30 31 32 33 31 30 28 27 27 27 27 27 27 26 24 24 27 33 36 36 37 38 38 39 42 46 53 58
54 52 51 47 43 41 40 40 38 35 34 34 34 35 35 35 35 33 31 30 29 28 28 28 27 26 24 24 24 24 26 29 32 33 34 36 38 39 43 47 51 54 61
58 54 53 53 44 42 41 40 40 39 38 39 40 39 38 36 34 33 32 31 31 31 31 30 29 28 26 25 24 26 30 34 35 36 38 41 43 43 47 51 55 59 67
62 57 55 54 49 45 43 44 43 43 44 44 43 42 41 39 36 34 35 35 36 36 36 36 34 32 31 28 29 34 36 37 37 39 42 44 46 49 51 54 57 60 65
64 61 58 57 53 51 50 48 48 49 49 49 48 44 41 38 37 37 37 37 38 40 41 41 41 40 39 39 39 42 43 43 43 45 49 50 52 51 54 54 60 63 64
61 62 61 64 63 60 55 53 53 50 48 48 49 45 42 41 41 41 42 43 43 45 45 46 46 44 44 45 46 48 47 46 47 48 48 50 52 54 57 49 45 46 48
56 58 61 66 66 65 61 57 53 51 51 49 48 46 45 45 47 47 46 47 49 51 51 50 49 49 49 50 50 50 48 45 43 38 35 41 45 48 42 34 31 32 38
56 59 66 65 64 61 60 57 55 55 54 53 51 49 50 52 51 51 52 53 54 54 54 54 54 53 52 49 40 31 25 23 20 17 17 17 16 15 16 14 13 13 13
52 55 68 72 69 63 63 61 59 57 57 56 56 57 57 54 54 55 56 56 57 58 57 54 53 39 27 23 21 20 18 17 16 16 16 16 16 16 15 14 14 14 15
56 63 72 71 69 65 63 62 61 61 61 61 61 61 62 61 60 59 59 60 59 57 55 42 30 25 24 23 21 21 20 20 19 19 19 19 20 20 19 19 18 18 19
52 66 72 74 71 68 66 66 66 64 62 60 61 63 62 62 59 58 57 58 56 45 33 29 26 26 25 24 24 24 24 24 24 24 24 24 24 24 24 23 22 21 21
68 75 80 79 75 74 72 68 65 64 64 63 64 65 64 61 60 59 57 42 32 30 27 26 28 28 29 28 27 28 30 30 30 29 29 28 27 27 27 27 25 25 24
77 81 83 84 83 80 76 71 68 67 67 65 66 65 62 62 60 51 33 30 28 26 27 28 30 31 31 32 32 33 35 36 36 35 34 33 32 32 31 30 28 27 26
80 81 84 87 85 82 77 75 73 72 71 69 67 65 64 61 52 34 32 30 28 28 28 29 31 33 35 37 39 41 43 44 44 42 41 39 38 37 35 33 30 29 29
87 89 87 88 90 84 79 75 75 74 73 71 69 66 62 56 41 35 35 33 31 30 30 31 32 34 36 39 43 44 46 47 49 49 47 44 43 40 37 36 35 34 34
92 89 88 88 92 91 85 79 72 72 73 73 71 68 62 50 40 38 36 35 35 34 33 33 33 35 37 40 43 44 45 47 50 52 52 51 48 46 43 42 41 39 39
87 89 92 91 89 92 92 83 75 72 73 74 74 71 62 49 43 42 40 40 40 38 37 36 37 37 41 43 43 45 48 50 53 55 56 56 54 52 50 49 47 45 44

GFSMW_prec_cthk_072.txt.gz
RH
57 54 49 44 41 38 36 35 35 35 38 40 39 39 39 42 40 40 40 39 37 39 40 42 41 45 53 56 59 63 60 55 55 51 42 41 46 49 60 66 66 64 65
61 57 53 47 43 39 36 33 32 30 30 33 33 35 37 37 36 35 36 37 37 37 36 36 38 40 42 46 49 48 46 42 37 39 43 44 43 48 51 51 55 58 60
59 57 54 51 46 40 38 36 34 33 31 31 30 29 29 28 29 30 31 32 33 33 32 30 31 35 38 35 34 34 33 31 32 39 46 51 48 44 45 49 52 51 53
55 53 49 46 45 41 39 38 37 36 33 31 29 28 27 26 26 26 27 28 28 27 26 25 25 27 26 27 29 32 33 34 37 41 46 45 42 44 44 44 46 44 48
50 51 49 47 44 42 42 40 38 36 34 33 31 29 28 26 25 24 25 25 25 24 23 23 23 24 25 27 29 33 34 35 37 40 38 42 50 50 49 44 45 43 42
52 50 48 49 47 45 43 41 39 36 34 33 32 30 28 27 25 25 24 24 25 25 23 21 19 19 20 24 29 32 33 35 35 37 41 48 51 48 43 34 38 38 38
52 52 50 52 50 45 45 44 42 39 37 35 33 30 29 28 29 29 29 30 27 25 23 20 20 22 24 25 27 32 35 38 39 42 41 42 39 37 37 36 37 37 38
48 51 54 53 52 48 47 45 42 40 38 36 35 34 33 32 31 30 29 30 29 26 25 25 27 27 27 28 31 35 38 42 45 42 39 36 35 38 39 36 38 38 38
45 52 54 53 53 49 46 44 43 43 42 41 40 37 36 35 31 29 29 28 27 26 27 30 31 30 29 29 30 31 33 35 37 37 37 38 42 41 39 38 38 41 41
46 51 52 53 54 52 48 46 44 41 41 41 40 39 38 35 33 31 29 29 29 30 31 31 30 27 27 27 29 29 30 30 29 30 34 37 38 36 36 37 39 41 45
48 52 54 55 54 54 50 46 43 42 41 41 39 37 36 34 32 31 32 33 33 33 32 30 28 28 27 28 27 28 28 28 27 29 33 36 36 37 39 41 42 44 48
52 53 55 54 53 54 53 50 47 45 44 42 42 41 37 35 35 35 35 35 35 34 33 33 33 33 32 31 31 30 29 28 29 35 37 37 40 41 41 43 46 49 53
55 59 62 61 58 56 55 54 50 47 44 46 45 42 40 40 39 39 38 36 36 38 36 36 37 38 38 35 34 32 32 36 39 40 41 43 45 46 48 46 48 47 49
58 62 63 65 60 57 58 58 57 50 46 46 46 46 47 45 43 41 40 39 38 37 39 40 41 41 43 43 44 44 44 46 47 47 49 50 50 49 47 47 49 39 36
59 61 66 67 65 63 63 62 59 55 52 51 49 50 50 50 46 42 41 41 43 43 44 45 46 46 46 47 48 48 51 50 51 50 46 44 44 46 48 47 39 29 28
65 62 62 67 68 69 71 68 63 60 58 56 57 56 51 47 46 47 48 48 48 49 50 50 51 50 50 50 52 52 52 48 38 31 27 24 22 19 18 17 17 17 18
63 62 62 60 69 72 70 72 69 66 65 64 62 55 51 49 51 54 54 52 53 53 54 54 53 52 53 50 41 30 23 21 20 18 18 17 16 16 17 16 15 15 15
61 62 60 66 72 74 73 69 67 66 64 60 58 56 56 57 58 57 55 55 57 57 57 57 53 44 31 26 23 22 22 22 21 21 21 21 20 20 19 20 19 19 20
56 59 58 60 71 79 76 71 69 69 70 66 65 62 64 64 63 61 60 60 61 61 59 49 37 27 24 23 24 25 25 25 26 26 27 27 26 26 24 24 23 24 23
57 59 60 63 74 78 77 74 70 68 68 67 67 65 65 66 65 63 62 61 60 55 45 35 26 25 25 26 27 29 30 31 31 33 33 32 31 30 29 28 28 27 27
58 56 57 71 79 80 79 79 77 73 70 70 68 67 68 67 66 62 62 61 53 40 30 25 24 25 28 29 31 32 34 36 38 38 38 39 38 37 36 35 34 32 30
66 70 77 83 86 84 83 80 78 75 73 71 69 70 69 67 63 63 61 45 33 28 26 24 25 27 28 30 33 35 38 41 44 46 47 48 47 46 44 41 38 35 33
73 76 79 83 86 90 88 86 83 81 78 75 75 73 70 67 64 60 40 33 31 29 27 27 26 28 30 31 33 35 39 43 44 46 47 49 49 49 49 48 45 42 40
80 83 85 86 89 92 90 87 84 81 80 80 78 75 72 70 66 53 38 35 34 33 32 30 29 29 30 32 34 35 38 44 46 48 50 51 53 54 54 53 52 49 48
89 90 95 94 91 91 94 92 88 85 80 77 77 76 75 71 65 49 43 40 38 37 35 35 34 33 32 33 35 36 41 42 44 49 52 54 54 54 53 53 55 54 52
85 87 92 94 92 92 91 92 92 88 84 76 74 75 76 74 65 53 48 45 43 41 40 39 38 38 38 39 40 41 40 41 46 49 51 53 53 55 56 56 59 55 51

GFSMW_prec_cthk_075.txt.gz
RH
58 60 56 58 56 50 47 48 47 48 47 45 43 41 39 40 42 42 43 43 42 42 43 39 38 40 40 40 44 43 44 45 48 51 46 39 33 32 39 43 44 49 53
60 56 55 53 51 48 43 39 38 38 38 36 35 35 34 33 34 36 37 38 38 38 39 37 35 35 34 34 36 38 40 40 38 39 36 34 31 32 41 45 45 45 46
61 60 59 56 54 51 47 41 37 35 34 33 32 33 32 32 32 32 32 32 32 32 33 32 31 29 28 27 29 32 34 33 32 32 36 40 39 43 45 41 40 45 43
64 63 62 59 57 53 51 46 41 36 35 34 32 31 30 29 28 27 28 28 28 28 29 28 27 26 25 25 25 28 30 32 35 34 33 37 41 45 43 46 51 47 44
67 64 62 60 58 55 51 47 43 41 40 38 36 34 33 32 30 29 28 27 26 26 26 25 24 24 26 28 27 27 28 33 36 35 35 36 37 38 46 49 48 41 31
64 65 62 58 56 52 49 47 45 43 41 39 37 36 35 33 31 30 28 27 26 25 24 24 24 25 24 23 22 22 30 37 36 34 38 38 42 47 45 42 38 34 32
62 61 59 58 57 54 51 48 45 43 42 41 40 37 35 33 32 31 30 30 28 28 28 28 28 27 26 23 22 26 29 33 37 40 41 42 42 45 40 35 37 38 34
58 55 55 55 55 54 52 52 48 45 43 41 40 39 38 37 35 35 35 33 32 32 31 30 29 27 25 25 29 31 34 36 39 42 44 47 47 40 39 38 41 40 38
49 53 50 54 57 56 54 52 50 46 44 42 41 40 40 39 39 38 37 36 35 32 29 27 25 25 26 29 31 31 30 30 34 36 35 33 35 34 40 43 41 40 40
45 47 55 55 57 58 57 53 51 50 46 44 42 42 41 40 40 39 38 38 35 32 30 28 27 29 29 30 28 26 27 30 31 31 31 31 31 34 38 39 39 41 41
40 47 51 56 57 55 55 54 53 52 51 48 46 43 41 40 39 38 37 36 34 32 30 30 31 30 29 28 28 28 28 29 30 31 31 30 33 37 39 40 42 42 42
43 47 51 54 56 56 55 54 52 52 52 51 46 42 41 40 40 39 38 36 33 33 34 35 35 35 34 35 32 31 32 32 32 31 31 35 39 40 42 44 44 46 47
52 53 53 54 55 56 57 57 57 56 55 54 50 47 45 44 43 43 42 38 36 35 37 38 39 40 38 37 37 35 35 34 35 37 41 44 44 46 48 48 48 47 45
54 55 56 56 57 59 59 59 59 58 57 54 53 52 49 47 47 45 42 40 40 40 41 42 40 40 40 41 43 45 45 45 46 47 49 50 50 47 47 48 48 48 43
58 55 58 57 59 59 61 63 64 62 59 59 59 58 56 51 49 47 45 44 45 46 45 45 45 45 44 46 49 51 52 51 50 50 44 37 32 31 31 30 26 21 21
64 62 59 56 57 62 65 70 70 68 65 63 60 59 58 54 49 51 52 52 53 50 51 51 51 50 51 52 53 53 53 50 36 25 20 19 19 19 19 18 17 17 17
62 65 63 61 59 61 68 74 78 74 71 69 67 67 62 61 60 59 60 56 57 56 54 55 55 54 55 51 43 32 25 22 20 20 22 23 22 22 22 22 21 21 21
68 66 66 65 64 69 71 72 75 75 73 72 72 71 71 68 66 61 60 60 58 58 58 59 56 48 37 30 26 24 22 22 23 25 26 27 27 27 26 25 25 24 24
59 56 58 63 63 67 73 76 75 75 74 71 71 72 69 68 68 65 65 64 63 63 63 57 50 36 29 25 24 24 24 27 30 31 32 33 35 34 33 32 31 30 30
59 57 56 60 64 61 69 75 77 77 76 75 73 73 73 70 70 70 72 70 68 67 60 49 37 30 25 25 24 25 28 31 34 36 38 40 41 41 42 42 42 41 39
59 61 60 62 62 64 73 77 79 80 80 78 75 75 73 73 73 71 69 69 68 60 49 41 31 26 25 25 26 28 31 35 37 40 43 43 43 45 46 47 47 45 43
61 64 64 63 63 68 80 82 85 84 82 80 77 76 74 74 74 72 70 69 63 49 38 30 27 26 26 27 28 30 32 36 38 41 44 45 45 46 48 49 49 49 49
65 65 69 72 78 84 90 89 86 85 84 82 83 82 79 76 73 71 70 63 43 35 32 29 28 28 28 28 30 32 34 36 38 41 44 46 46 48 51 53 52 51 52
70 72 76 78 78 83 88 90 88 88 86 84 85 85 83 80 77 75 69 50 43 39 36 34 33 32 31 30 31 33 34 36 39 41 45 44 46 50 52 54 52 53 54
75 81 87 88 89 92 91 94 94 91 89 88 85 83 83 83 80 76 68 50 48 45 42 40 37 36 35 36 36 36 37 38 41 43 45 47 49 51 55 56 53 54 57
83 84 86 92 92 97 96 94 93 93 92 91 90 86 84 82 80 78 69 55 52 49 48 46 43 41 40 41 40 40 42 43 43 46 48 52 52 55 56 56 55 59 59

GFSMW_prec_cthk_078.txt.gz
RH
62 59 60 62 65 76 72 68 64 63 57 54 53 50 48 47 46 46 46 46 44 43 42 42 43 44 47 47 42 42 42 43 44 47 45 43 38 32 30 29 35 40 43
62 59 59 59 64 65 61 58 59 56 52 51 48 45 44 44 42 40 40 39 38 39 39 39 39 39 38 38 38 37 37 36 38 40 40 35 29 32 32 34 37 42 39
64 60 60 57 54 53 54 53 51 50 48 46 43 42 41 40 37 35 35 35 34 33 32 32 32 33 34 32 31 32 33 35 34 36 36 38 38 39 39 36 37 37 42
69 63 61 60 56 53 52 50 49 47 45 41 38 37 36 35 33 32 31 30 29 28 29 29 30 30 30 29 28 28 28 34 37 34 34 36 38 42 42 39 36 41 45
72 66 64 62 61 58 56 55 53 51 48 44 39 36 35 34 32 31 30 29 28 28 28 28 28 28 27 27 26 26 28 34 34 37 36 38 39 39 43 44 50 44 42
72 70 67 64 62 62 61 60 58 54 49 46 45 43 40 38 36 35 34 32 30 30 29 28 27 26 26 26 25 26 26 27 28 30 43 41 45 45 46 44 45 46 39
77 72 66 62 61 61 62 61 58 54 51 47 46 44 43 41 39 37 35 34 33 32 30 29 28 28 28 27 28 27 25 25 29 38 43 44 44 44 45 48 48 41 38
77 73 69 64 62 63 63 61 56 54 53 51 47 45 42 41 39 38 36 36 36 35 36 35 35 33 32 31 29 27 26 30 38 39 43 41 48 46 48 45 40 37 41
52 66 71 68 66 65 63 61 59 57 56 53 49 46 44 41 39 38 38 38 38 38 38 38 37 35 33 30 28 27 29 31 33 36 37 39 42 39 35 36 36 41 43
48 52 64 69 67 63 63 63 61 60 56 54 51 50 47 44 42 41 40 40 39 39 38 37 37 35 33 31 28 29 29 30 32 35 35 36 36 36 35 34 38 40 40
39 47 52 59 67 64 59 60 61 59 57 54 52 51 50 49 46 43 41 40 39 38 37 35 33 32 30 30 30 31 32 33 34 33 33 33 34 32 33 38 39 41 43
39 40 43 48 57 65 69 67 62 60 58 56 54 52 50 49 48 46 43 41 40 39 38 37 36 33 32 34 35 35 37 35 34 35 34 33 31 35 40 42 44 46 47
46 46 48 48 51 56 59 60 61 59 55 53 53 53 53 52 50 50 46 44 44 42 40 39 36 35 35 36 38 39 37 36 35 36 37 39 43 45 47 50 49 47 46
49 50 53 55 55 54 53 54 56 56 56 56 55 56 56 55 53 51 49 48 47 45 44 42 40 40 40 41 41 41 42 44 45 46 48 50 48 46 43 41 43 43 41
54 55 52 56 58 57 56 57 59 59 59 58 58 57 56 56 55 55 55 55 51 48 48 45 46 46 46 45 46 47 49 51 52 51 45 41 33 29 29 29 27 25 24
59 60 59 59 58 59 60 59 60 62 64 66 65 62 60 59 59 58 55 54 53 49 50 54 54 55 53 51 51 51 53 53 47 32 23 20 19 20 21 22 22 21 22
64 64 61 62 61 59 58 57 60 65 68 70 72 69 69 67 66 63 60 56 56 59 61 61 59 56 56 56 56 47 35 27 22 21 21 22 23 25 26 27 27 27 26
62 64 64 66 66 66 64 64 69 70 71 71 76 77 75 73 72 70 68 68 68 68 69 61 59 59 56 44 35 29 25 24 23 24 25 27 29 31 32 33 34 34 33
65 66 67 71 70 68 68 71 75 74 76 76 78 78 75 72 73 75 76 75 72 70 67 66 60 52 39 33 30 27 26 26 27 28 29 32 34 36 39 39 39 40 40
61 67 65 63 63 62 62 62 65 73 78 79 80 79 75 75 75 76 77 75 75 73 71 66 57 43 36 31 29 28 28 28 30 31 34 37 39 41 40 40 41 43 43
56 58 60 60 62 60 63 64 66 70 73 78 80 80 78 78 77 78 80 80 76 75 74 63 50 39 32 30 29 28 29 30 32 34 37 39 41 43 42 42 44 46 47
57 61 62 65 67 66 68 68 68 75 80 81 84 86 85 82 80 80 81 80 79 77 65 54 43 35 31 29 29 29 30 30 32 35 37 39 40 42 45 44 46 48 48
61 62 64 68 72 73 71 71 77 84 86 85 85 87 86 84 83 82 79 78 77 70 54 44 36 32 30 29 29 30 30 31 33 35 36 37 40 42 45 47 50 52 51
69 68 69 70 70 74 79 84 85 90 90 89 88 87 88 89 88 85 82 80 73 52 42 38 36 35 34 33 33 32 32 32 33 35 36 38 41 43 47 52 53 53 54
78 77 76 81 81 83 84 85 91 96 95 94 92 91 90 88 88 87 86 83 69 53 49 46 43 41 40 38 37 37 37 37 37 38 40 42 44 47 52 54 55 55 56
87 86 83 82 87 91 94 94 95 96 96 95 94 93 93 92 90 89 87 84 71 59 55 52 49 48 46 44 43 42 43 42 42 42 43 45 48 51 54 56 57 57 60

GFSMW_prec_cthk_081.txt.gz
RH
68 69 63 63 63 65 69 74 67 67 68 65 61 59 57 57 57 57 57 54 53 51 48 46 46 46 44 45 45 47 47 47 44 46 45 41 44 45 36 32 33 38 40
69 67 65 63 64 64 64 66 69 69 70 70 66 62 57 54 53 53 50 50 49 48 45 42 43 44 43 43 44 45 46 44 38 43 44 44 38 38 37 37 37 37 38
73 69 64 63 63 66 63 63 64 70 67 66 64 61 57 50 48 47 46 44 42 39 38 36 35 35 36 35 37 39 40 38 40 39 45 47 45 47 44 38 35 38 38
71 72 67 65 64 62 64 60 53 54 59 57 56 56 56 54 51 46 42 37 35 32 31 31 31 31 32 32 32 33 33 35 39 37 37 45 47 47 42 40 37 41 42
73 72 72 67 64 61 57 55 53 52 50 51 54 54 52 47 42 39 36 34 32 32 31 31 31 30 29 30 29 29 28 30 37 34 36 39 39 39 48 48 49 49 48
70 71 73 66 64 62 60 59 56 56 56 55 54 51 48 46 44 41 38 35 34 34 33 32 31 31 30 29 29 28 27 29 30 33 39 39 39 46 50 53 49 50 47
63 71 70 68 66 65 62 62 63 63 61 59 57 55 52 48 46 44 43 41 40 38 36 35 34 32 32 33 32 32 31 32 33 36 35 36 43 50 56 45 50 49 48
62 70 71 69 68 65 65 64 65 64 64 63 61 59 56 51 47 46 43 42 41 40 38 38 37 37 36 37 37 37 36 35 33 34 35 41 44 50 45 52 48 46 42
58 67 78 74 71 68 66 68 67 67 64 65 64 62 58 55 52 48 45 42 41 40 39 38 38 38 38 38 38 37 36 34 32 31 36 38 42 44 46 43 44 40 42
51 60 75 77 77 75 73 71 68 69 67 66 65 62 59 55 52 49 48 46 44 43 41 40 40 39 38 38 36 35 34 32 29 33 36 37 40 41 40 39 39 38 40
44 52 58 64 75 79 78 74 72 71 68 66 65 62 61 58 56 53 51 50 48 46 44 42 40 39 38 37 35 34 32 31 32 35 39 40 40 38 36 36 36 40 43
37 37 42 51 55 65 72 75 75 72 70 67 65 64 62 58 55 52 50 50 50 49 47 43 42 41 40 39 37 37 36 35 36 37 39 38 36 35 34 36 43 43 47
40 40 42 41 44 49 56 63 69 71 69 68 64 59 58 57 55 55 53 52 51 50 50 47 45 43 41 40 39 38 38 39 40 40 38 37 36 40 45 47 48 46 46
41 42 42 44 46 49 49 51 56 60 63 63 62 62 62 61 59 55 53 53 53 52 50 48 48 46 45 43 42 42 43 46 45 44 44 44 47 50 46 41 39 38 37
38 46 46 46 49 52 55 56 53 52 54 56 59 60 61 60 58 56 55 55 54 54 53 53 53 51 48 47 47 50 51 53 55 50 50 50 46 36 31 27 27 27 26
42 48 51 53 54 52 54 55 56 57 57 56 59 62 63 63 62 62 61 59 56 55 55 55 55 53 51 53 54 56 59 55 55 52 39 29 22 19 20 22 22 23 25
50 54 55 58 60 60 59 57 56 57 58 61 63 64 64 64 65 65 66 65 64 62 60 61 58 58 59 60 61 61 59 53 39 30 25 22 23 24 26 26 27 28 30
54 56 59 64 64 67 64 63 62 60 61 63 64 64 65 67 71 70 71 74 73 72 69 66 67 68 68 69 60 46 37 32 28 26 26 27 28 29 29 30 32 35 36
54 54 56 63 68 70 70 69 68 68 69 71 72 73 75 75 75 75 75 76 76 77 77 76 76 74 67 55 44 38 34 31 30 30 30 31 32 31 32 36 38 38 38
49 54 64 68 70 73 67 66 67 64 65 68 74 75 77 76 77 77 78 79 78 80 80 80 76 69 55 46 42 37 35 34 33 33 33 33 33 34 36 38 40 39 41
53 59 65 67 72 68 66 64 64 64 65 66 68 72 74 77 80 79 80 80 81 83 83 80 74 65 52 48 41 35 35 35 34 34 34 35 36 36 37 38 40 41 42
52 58 62 64 64 64 64 67 66 65 68 69 74 77 77 81 85 85 85 83 84 84 84 83 74 61 50 43 38 36 34 33 33 34 34 35 36 36 37 39 39 42 45
58 59 64 64 65 68 66 69 72 72 73 69 77 82 83 86 90 89 86 84 83 82 84 78 68 54 47 41 37 34 32 32 32 33 34 35 36 37 37 38 42 44 49
67 67 67 68 68 69 70 72 74 75 77 81 94 90 87 87 86 87 89 87 85 85 82 71 59 48 40 36 34 34 33 34 34 34 35 36 37 38 39 42 45 49 51
75 75 75 74 72 72 74 77 78 80 84 85 87 91 88 90 90 89 89 89 91 88 78 58 50 47 44 42 41 40 39 38 39 38 39 40 41 42 43 43 47 52 54
82 84 83 83 81 81 85 87 87 88 88 89 96 97 94 94 93 92 93 91 89 88 79 64 58 52 50 49 48 46 44 43 42 42 43 43 44 46 47 48 51 54 57

GFSMW_prec_cthk_084.txt.gz
RH
69 66 61 61 66 74 65 65 64 66 69 71 70 66 61 58 56 57 61 60 58 58 56 52 52 54 50 49 50 51 52 51 52 50 47 42 40 41 41 42 44 43 43
69 66 65 63 65 64 73 72 77 66 73 75 70 66 65 61 58 59 58 58 55 53 52 51 51 49 45 44 44 43 42 41 41 46 46 41 40 40 41 42 47 46 42
71 69 67 66 68 68 66 66 69 75 71 76 73 73 71 71 67 62 54 53 50 49 48 48 47 43 41 39 39 39 40 41 42 43 44 44 44 43 45 49 46 42 41
68 70 67 69 69 67 69 65 64 64 68 68 68 69 69 69 68 65 65 52 49 47 44 40 36 34 33 33 34 35 36 39 39 38 39 40 44 46 47 44 44 44 46
66 69 65 71 69 69 70 73 69 67 61 57 55 57 63 63 62 62 59 54 48 42 38 36 35 34 33 33 32 32 33 32 32 36 36 36 41 41 45 45 41 49 50
57 68 65 66 68 71 68 68 68 64 60 56 55 55 56 56 55 55 51 47 44 43 42 40 38 36 36 34 33 33 32 33 34 39 39 40 41 44 40 46 51 60 56
50 58 60 63 65 67 73 69 65 62 60 58 58 59 58 58 55 54 52 49 47 45 43 41 40 39 38 37 37 36 36 37 37 41 43 42 45 44 46 48 49 52 52
46 53 57 61 68 70 71 72 69 65 64 63 64 62 59 58 56 56 55 52 49 46 45 44 43 42 41 40 39 39 38 39 38 38 39 42 42 44 45 46 49 53 53
48 52 63 62 69 73 70 71 72 69 68 67 66 64 63 63 63 63 61 59 54 50 49 47 44 43 41 41 41 40 39 38 37 37 37 40 41 38 41 43 44 52 46
47 51 61 63 64 70 69 68 71 72 70 69 67 67 65 68 68 67 66 62 58 54 52 50 49 48 45 42 40 38 38 37 36 35 35 36 36 36 38 44 43 44 42
39 46 52 58 61 72 75 73 75 75 72 69 69 71 72 69 69 67 65 62 58 55 54 52 50 48 47 44 41 40 39 38 36 37 40 39 38 39 41 41 40 38 37
37 38 43 49 58 67 77 76 83 81 78 75 74 73 73 72 68 66 65 63 60 57 54 51 50 49 49 48 45 42 40 39 39 40 41 41 41 40 40 37 35 39 44
34 38 40 40 44 48 54 59 68 79 79 81 79 81 79 74 67 62 58 58 57 55 54 52 52 51 50 49 48 46 43 42 43 43 42 43 40 40 39 40 44 47 48
36 37 39 42 42 42 44 44 46 51 58 65 68 71 70 67 67 67 64 62 61 60 59 56 54 52 51 50 49 49 47 47 48 48 48 47 47 49 51 49 46 43 39
38 38 38 38 42 44 45 46 48 50 52 54 56 59 64 64 62 61 62 61 60 58 57 55 54 54 54 54 53 52 53 53 52 56 56 56 56 54 45 39 33 29 28
39 38 40 41 44 47 49 50 51 51 52 54 57 58 59 59 60 61 62 62 61 59 57 56 56 56 56 56 57 57 56 56 59 60 58 51 42 34 27 22 22 24 25
43 43 41 44 48 50 51 52 54 54 54 55 56 57 60 61 63 63 63 61 61 62 62 63 63 64 65 63 62 63 62 64 65 56 43 35 30 27 26 27 29 29 28
46 47 45 49 54 56 57 60 61 62 61 60 60 62 62 63 65 65 64 67 67 69 70 70 69 71 71 72 69 68 63 56 47 42 37 32 31 33 31 32 33 33 34
45 48 49 51 59 61 64 66 69 70 67 66 66 70 70 70 71 72 73 73 72 73 74 76 77 78 76 76 70 61 51 46 41 38 36 36 37 35 35 36 36 37 39
47 46 50 51 56 65 69 70 74 72 69 68 70 68 67 71 71 71 73 72 74 76 77 80 81 80 76 72 63 53 48 44 42 40 41 40 37 37 37 37 39 40 41
53 48 52 53 60 71 74 77 79 74 70 68 68 67 66 67 68 70 75 80 83 80 81 82 84 81 75 67 59 53 49 46 43 43 42 40 40 38 37 38 39 40 40
58 60 62 62 67 75 76 74 74 73 71 70 68 68 68 70 74 76 81 83 83 84 85 86 86 81 76 63 56 52 47 43 43 43 40 40 38 37 37 37 38 39 40
58 58 62 72 73 76 74 74 77 77 72 74 74 74 75 70 78 82 84 86 86 85 85 85 87 83 73 61 54 49 45 44 42 39 38 36 36 36 37 37 38 40 42
68 66 67 68 72 72 74 75 76 77 76 77 77 77 75 81 90 86 86 88 88 87 87 87 86 77 63 54 50 45 42 39 37 37 37 37 37 38 39 40 41 43 46
78 76 79 80 79 78 77 77 76 75 75 76 78 80 86 87 90 89 88 88 88 88 91 91 85 70 59 50 45 42 40 39 41 41 41 41 41 42 43 44 44 46 50
83 82 80 84 84 83 82 81 80 82 84 85 86 87 88 88 95 96 95 92 92 90 90 91 86 71 60 56 52 50 47 46 45 44 45 46 45 46 48 47 48 51 55

GFSMW_prec_cthk_087.txt.gz
RH
52 53 56 62 65 67 63 71 75 77 68 65 66 65 65 72 60 56 58 59 55 53 54 55 53 54 54 54 52 49 46 44 45 48 43 41 40 38 35 36 41 47 49
52 53 54 58 66 64 69 69 71 72 70 68 71 74 74 77 79 73 71 65 62 60 58 57 57 54 52 50 50 48 45 44 43 46 45 44 39 38 38 37 40 48 50
47 50 55 57 64 66 69 67 74 75 73 78 79 78 79 79 76 77 74 70 66 59 56 56 53 52 47 45 43 41 39 40 39 45 47 48 45 43 42 44 47 51 48
51 48 51 58 62 66 69 68 66 76 80 82 81 85 86 82 80 80 84 83 77 72 65 56 53 47 42 39 37 36 35 40 38 38 38 41 45 49 47 42 45 49 47
49 47 50 57 62 66 66 72 73 72 75 75 76 80 80 79 74 70 72 71 65 61 57 53 46 44 44 41 38 37 36 38 37 34 35 38 41 40 45 45 43 48 47
41 45 46 54 57 62 66 72 75 73 77 78 78 71 66 64 61 59 58 63 61 57 54 50 47 46 45 41 39 37 37 38 37 36 35 41 41 42 45 46 49 51 57
35 41 47 50 55 61 66 70 72 76 78 80 76 71 66 64 62 62 61 58 57 54 51 50 48 47 44 41 41 40 40 40 39 40 40 43 44 44 45 48 50 52 52
32 34 40 51 57 61 67 68 70 73 76 76 71 66 65 63 62 61 60 59 55 57 57 57 53 52 46 44 43 43 42 41 42 43 41 41 43 44 45 46 49 53 50
33 33 37 44 50 57 61 67 70 70 74 75 72 70 69 67 67 63 62 64 62 62 62 61 58 56 51 49 48 46 46 46 42 40 39 38 42 41 41 48 46 51 50
31 39 42 45 52 56 62 67 68 74 75 78 77 73 73 74 71 67 68 67 66 68 70 67 62 59 55 52 50 51 48 46 43 39 39 39 41 40 40 42 45 46 47
31 36 44 49 56 62 67 74 73 72 77 79 80 78 79 76 75 74 73 70 69 69 64 60 60 59 56 53 52 49 47 48 46 42 40 40 42 41 41 42 42 46 45
31 32 34 39 49 56 63 72 81 77 76 74 73 75 77 75 74 72 71 72 73 69 66 64 59 58 55 55 52 52 50 50 48 46 43 42 43 43 43 42 43 40 40
31 32 33 37 39 44 53 60 74 82 82 75 73 78 88 85 85 84 85 82 79 75 68 63 62 59 56 54 53 53 52 50 49 49 47 45 45 44 44 43 41 42 47
34 33 35 35 38 41 44 47 53 58 61 66 73 73 77 84 83 77 75 70 68 68 65 60 59 57 58 57 56 56 55 55 53 52 52 51 48 48 48 48 51 53 50
39 36 35 35 36 37 39 44 45 47 50 53 56 60 60 61 64 64 66 68 66 64 62 60 60 60 58 57 57 57 56 56 56 56 55 54 55 54 56 56 48 42 37
45 41 39 37 36 36 38 42 47 49 51 53 55 56 58 60 59 60 62 60 59 60 61 61 60 57 56 57 58 57 58 57 59 61 61 58 60 61 52 40 36 30 27
50 47 44 43 40 40 41 47 49 52 55 57 57 57 57 56 57 61 62 63 62 62 63 61 59 62 62 63 63 64 66 67 68 68 64 55 43 38 35 35 33 30 33
43 42 43 42 45 45 48 53 56 57 58 59 62 61 61 61 63 64 64 65 65 65 65 68 71 71 71 72 72 73 72 73 71 63 51 46 42 39 39 37 36 39 37
49 48 46 47 50 52 54 58 64 65 67 68 70 68 67 69 71 70 70 71 72 71 72 74 74 74 75 78 79 78 72 64 57 53 48 45 43 43 39 41 42 41 40
52 53 52 49 55 54 59 64 68 72 73 74 75 73 71 71 72 71 69 69 69 70 74 75 75 78 81 81 78 71 66 58 54 50 48 46 45 44 45 46 43 42 41
50 52 57 54 53 58 58 63 70 77 79 80 80 77 71 71 71 68 68 69 70 74 79 80 82 83 84 79 74 68 61 57 52 49 49 48 48 48 44 42 44 44 42
53 50 53 57 60 61 68 76 83 85 87 87 85 78 73 72 70 70 71 74 78 80 81 83 84 85 84 77 70 63 57 55 54 54 53 50 47 46 46 44 44 42 41
65 59 57 60 67 80 86 83 86 86 84 80 79 75 76 77 74 72 70 76 80 80 84 85 85 86 85 77 67 60 56 55 54 48 47 49 48 44 43 42 42 42 41
71 72 69 67 69 74 78 84 87 87 85 81 80 80 78 77 81 80 75 86 88 85 86 85 87 88 85 75 64 56 53 51 51 51 48 43 42 41 40 41 42 42 44
74 76 80 80 79 77 79 80 80 81 81 82 80 79 77 80 80 83 85 89 89 87 88 87 90 90 83 70 63 58 54 49 45 42 41 40 40 42 43 44 44 45 46
82 81 85 83 84 84 85 86 84 83 82 82 81 84 86 88 88 88 89 90 94 97 94 90 90 93 87 73 63 59 55 51 50 48 46 47 47 47 47 48 49 49 53

GFSMW_prec_cthk_093.txt.gz
RH
56 67 75 77 79 73 82 90 91 82 82 78 83 77 76 74 79 76 75 72 71 68 63 60 54 52 51 52 55 54 53 53 51 48 46 43 41 38 38 38 39 41 41
51 51 59 62 70 74 76 84 84 79 79 80 82 76 70 72 76 75 76 74 72 68 69 67 61 58 55 54 55 55 56 54 53 51 49 47 40 39 39 41 42 41 42
58 52 48 53 61 61 64 68 70 77 74 76 81 85 82 76 82 73 73 75 78 81 80 81 78 74 64 64 64 58 55 50 51 48 50 50 47 43 44 46 47 47 49
59 59 54 50 51 57 66 65 64 68 76 80 84 78 75 76 76 75 77 72 75 85 87 90 87 86 84 76 66 61 54 49 52 50 47 46 48 48 48 48 48 50 52
54 54 54 54 51 49 53 55 62 68 70 71 82 81 78 76 81 81 86 86 80 80 78 77 84 85 85 74 67 62 55 55 53 51 47 44 43 43 44 44 44 49 51
50 50 50 51 49 47 46 47 52 58 63 69 73 73 82 85 86 88 89 92 91 88 87 86 85 81 66 57 56 53 53 54 52 52 48 44 42 42 44 46 48 53 53
47 47 48 47 47 46 46 45 46 48 53 60 66 75 84 88 87 92 95 97 95 93 88 84 81 77 70 66 69 58 53 53 54 55 52 50 47 47 49 52 54 55 57
41 41 39 38 41 41 43 44 43 46 50 55 63 70 77 82 88 93 93 97 95 93 87 86 82 66 66 66 62 63 60 62 56 55 54 53 52 51 52 54 56 59 58
40 38 36 34 35 37 37 38 39 43 49 55 59 63 72 73 80 86 85 91 91 92 89 79 68 66 63 63 60 62 60 60 60 58 57 55 54 53 53 53 55 55 58
34 32 30 29 30 31 32 35 39 43 48 55 58 61 63 71 77 81 86 86 85 83 80 73 68 69 67 66 66 65 65 65 62 58 59 58 56 54 54 56 56 59 60
30 29 28 28 29 34 35 35 37 39 44 49 52 57 64 71 75 76 79 82 83 86 84 81 82 78 77 77 75 76 69 65 62 58 58 57 55 54 56 58 57 58 60
32 31 29 27 26 32 37 41 43 44 46 50 54 58 62 66 70 73 77 82 86 85 85 87 88 88 83 80 80 76 72 65 62 62 58 56 55 56 58 57 56 57 60
36 34 31 30 28 28 30 36 40 43 47 54 58 58 63 71 72 79 81 79 80 81 84 84 85 82 78 73 70 67 68 67 67 61 59 58 58 57 59 58 58 58 59
37 36 36 34 32 31 31 33 35 38 42 46 51 60 70 77 82 79 77 78 76 85 83 83 79 72 71 68 65 62 61 61 62 62 60 60 61 62 62 61 60 60 60
40 40 39 38 36 36 35 35 36 39 39 41 44 51 58 68 78 83 75 81 83 85 81 70 65 65 62 60 59 60 63 61 60 60 61 60 60 61 62 62 62 61 62
47 47 44 44 43 42 42 40 39 38 40 40 42 47 50 55 59 62 66 69 68 66 63 59 54 54 55 55 56 57 57 59 61 61 60 59 61 64 67 66 67 69 67
53 51 49 47 46 46 46 44 42 41 40 40 43 45 49 52 55 58 59 60 60 58 56 56 55 55 55 56 57 58 60 62 64 66 67 67 70 69 68 66 66 58 48
51 50 48 45 46 46 45 45 44 43 44 44 45 48 54 56 58 60 60 59 59 59 58 60 61 62 63 64 66 66 67 70 72 72 72 74 69 63 56 52 49 46 45
49 47 45 43 43 44 46 46 46 48 51 52 53 53 57 60 61 61 62 63 63 65 63 64 65 65 67 69 67 66 72 74 75 76 77 68 63 58 54 51 50 48 50
53 51 50 47 42 40 40 44 46 48 53 57 58 62 63 64 66 68 69 70 69 69 67 67 67 67 67 66 67 73 78 80 77 69 63 59 57 57 54 52 50 54 54
56 55 52 50 48 45 42 43 50 52 60 65 66 67 70 72 74 76 78 76 75 73 72 70 69 68 69 74 76 78 76 71 69 66 60 58 57 54 53 57 63 63 59
57 58 57 56 54 51 48 45 49 60 66 74 77 78 78 80 83 83 81 80 79 79 75 73 71 71 73 79 78 79 72 69 66 61 58 55 57 61 58 59 55 57 63
68 67 63 61 60 60 57 57 53 56 67 76 84 87 87 87 87 88 87 86 88 87 81 80 76 73 77 83 82 83 74 68 62 60 56 57 60 59 58 58 60 59 61
75 85 77 68 67 66 65 67 65 63 69 77 82 88 87 93 96 94 93 92 90 89 86 88 87 82 82 87 87 87 76 67 59 55 55 62 63 63 63 60 57 54 53
86 95 93 81 77 73 73 73 74 77 78 83 90 97 96 95 96 95 93 93 92 92 89 88 88 85 83 88 92 89 77 65 59 56 57 60 55 55 54 55 56 55 55
95 91 94 95 90 86 83 81 80 82 84 86 85 89 94 97 97 94 91 89 88 87 87 87 88 88 89 90 92 92 83 68 62 60 56 54 53 49 51 49 49 48 46

GFSMW_prec_cthk_096.txt.gz
RH
70 75 81 83 87 91 91 89 89 85 78 74 80 74 78 76 77 77 74 75 77 71 68 64 61 62 63 60 57 57 55 55 55 52 51 50 47 42 38 37 36 37 39
62 64 67 75 81 89 88 87 83 79 78 67 70 71 66 75 77 75 80 81 80 79 73 69 68 65 67 67 63 58 56 57 58 54 52 53 46 42 41 41 41 41 42
62 61 64 69 78 77 80 76 80 88 79 79 81 82 84 88 85 82 75 77 83 82 78 78 79 79 79 80 77 74 66 58 57 52 52 56 53 49 48 46 45 47 46
62 59 58 59 65 71 79 85 79 85 82 90 88 84 95 91 87 87 88 90 88 84 86 89 90 93 84 82 85 81 69 65 61 55 54 54 55 53 52 51 48 49 49
65 63 59 56 56 59 64 71 74 81 80 79 82 87 81 85 86 92 91 95 93 92 90 93 99 95 89 88 91 85 76 66 60 58 57 57 58 57 58 52 48 48 48
67 65 63 60 58 57 58 58 56 60 66 70 72 75 79 84 85 84 87 92 94 96 96 99 96 94 95 90 84 70 63 63 60 55 56 57 55 55 55 54 51 51 52
64 60 58 56 54 55 54 54 55 54 55 56 63 66 73 75 76 80 84 84 93 96 99 98 97 98 94 86 75 73 69 70 69 68 64 60 58 56 55 55 56 55 54
57 57 55 53 53 49 50 52 52 51 50 50 52 55 58 64 65 73 76 84 91 85 98 95 93 95 90 87 79 68 70 68 66 61 62 60 58 56 56 56 57 59 59
54 55 56 53 45 40 42 45 48 50 50 50 50 53 57 55 56 63 67 78 85 87 94 89 88 90 90 85 74 71 69 66 63 60 60 61 61 60 58 57 60 61 60
46 44 43 40 41 39 37 40 41 42 44 45 47 48 49 49 52 56 62 71 81 82 82 84 82 83 79 78 75 74 73 70 70 71 71 66 63 60 57 55 59 62 61
41 38 37 36 36 36 37 38 37 37 39 41 43 44 45 46 49 56 64 69 72 73 72 73 76 80 80 82 80 79 84 78 76 74 73 69 64 60 57 58 60 59 59
38 36 35 33 31 31 37 41 43 45 47 46 45 44 44 46 49 51 55 57 64 71 72 71 75 80 83 85 86 85 82 78 75 72 69 69 64 62 60 60 62 61 61
39 37 36 35 34 34 33 34 39 44 46 47 47 48 51 52 52 54 55 60 65 68 75 77 78 79 81 81 82 78 74 69 66 62 60 62 61 61 62 61 63 64 64
38 35 35 35 36 35 33 31 31 32 34 36 38 41 44 46 49 52 57 69 74 73 74 74 80 82 82 74 72 71 67 65 60 58 59 58 61 64 62 61 62 62 63
41 38 35 35 36 36 35 33 32 31 31 32 33 34 37 42 45 49 53 61 74 84 76 77 85 83 72 66 63 59 56 56 55 56 60 61 62 63 63 62 62 63 61
45 43 41 39 38 38 39 38 37 36 35 34 34 36 37 40 44 45 49 54 59 65 68 65 65 64 60 54 53 54 54 55 56 59 60 61 61 62 62 65 66 66 68
54 51 48 45 42 42 42 41 41 40 39 38 38 38 39 43 46 46 49 51 55 57 58 58 57 55 55 53 54 54 54 56 60 62 62 64 65 67 65 64 67 71 72
58 59 58 55 51 49 48 44 41 40 40 40 41 42 44 46 46 48 49 53 55 58 57 55 55 55 57 57 57 59 62 64 66 64 65 69 71 68 61 57 54 51 50
60 60 58 56 55 53 50 47 47 47 46 46 48 50 51 50 50 52 56 58 60 59 58 59 59 59 60 59 60 62 63 63 64 68 76 77 68 60 58 55 53 50 50
58 60 60 60 58 57 54 48 43 42 45 52 53 55 58 60 59 61 61 62 62 62 63 63 64 65 65 64 63 65 66 68 71 74 75 68 61 57 55 54 52 53 52
65 62 61 61 65 65 61 55 51 46 46 49 58 60 61 64 65 64 64 67 68 68 68 68 68 68 67 66 66 67 72 72 68 66 61 59 56 55 54 53 54 53 54
45 55 64 70 66 66 65 62 56 55 51 52 62 67 68 70 72 72 74 75 76 76 76 74 73 72 71 71 71 72 74 74 66 64 61 58 55 53 52 57 61 62 65
31 34 43 60 70 76 69 63 63 61 57 57 64 69 76 79 82 83 83 83 83 83 81 78 79 78 78 78 78 76 78 75 66 64 61 58 52 53 59 60 57 56 57
41 46 44 51 66 78 75 71 69 68 65 63 66 71 80 80 83 87 89 90 88 88 87 89 89 87 85 82 82 83 84 83 71 65 60 57 54 54 56 55 58 58 60
74 70 58 52 61 76 83 81 76 76 76 71 72 77 82 87 82 90 91 93 95 95 93 91 88 87 88 87 89 88 87 87 76 69 63 56 55 60 60 60 60 59 59
87 92 78 59 69 85 96 93 85 83 83 84 84 87 86 84 91 97 98 97 97 96 96 90 86 85 86 87 88 91 90 90 80 73 66 57 56 58 55 55 60 63 62

GFSMW_prec_cthk_099.txt.gz
RH
73 89 96 95 95 93 90 87 87 86 79 77 74 73 75 76 85 76 74 74 73 74 75 73 70 66 61 60 63 65 59 57 53 52 51 50 47 48 41 39 37 36 38
77 85 80 91 95 89 90 89 89 91 83 79 75 81 85 83 82 79 76 82 83 82 82 84 78 70 68 67 68 69 66 60 57 58 54 50 48 44 43 43 42 41 41
79 80 81 78 87 85 88 93 85 94 86 83 79 79 86 90 89 84 84 89 89 87 84 88 85 83 78 77 78 75 82 80 70 64 63 59 54 53 52 51 49 48 47
73 72 76 78 79 86 79 78 86 93 96 92 92 86 87 84 83 84 86 88 91 89 85 89 95 95 94 95 93 92 87 86 85 69 63 60 61 58 59 57 54 54 53
71 70 71 72 73 77 77 83 85 88 94 86 87 88 86 88 86 84 81 87 87 87 89 96 99 97 99 99 94 94 95 87 82 69 64 58 57 58 64 62 60 57 54
75 71 67 68 65 62 66 71 77 84 81 77 76 78 86 83 89 92 89 87 85 92 90 93 93 98 98 93 98 97 90 78 81 78 71 68 64 62 59 58 57 58 54
77 74 69 69 66 60 57 59 61 62 65 68 66 68 72 72 78 84 82 85 82 84 88 90 90 98 96 95 94 88 79 75 72 70 72 74 70 64 61 61 59 58 57
71 70 68 66 66 63 60 59 58 56 57 56 58 58 60 61 65 68 71 71 70 75 78 85 95 95 88 94 90 89 87 86 77 72 72 71 69 61 59 62 63 63 61
65 64 63 63 60 60 58 55 54 52 54 57 57 58 56 58 60 60 59 61 60 63 72 78 81 82 77 76 78 80 82 83 79 76 73 69 67 67 65 65 67 66 63
56 56 56 56 56 53 50 49 49 48 49 51 54 57 56 54 53 52 51 53 57 62 66 67 65 67 71 74 74 72 69 75 77 77 75 76 74 72 71 71 68 64 63
48 47 47 45 43 44 43 42 40 41 45 46 48 51 50 49 49 48 48 51 57 60 60 61 59 57 60 59 64 66 68 73 74 75 79 81 78 76 72 71 66 66 64
46 45 44 43 42 38 41 42 43 44 44 44 45 46 46 45 44 44 45 49 51 55 53 48 49 52 57 61 63 65 72 75 75 75 76 75 70 67 68 67 64 64 63
47 45 43 41 41 39 36 35 40 43 45 45 45 45 45 44 43 45 48 51 51 51 53 56 56 57 57 61 64 68 71 74 72 68 67 64 62 60 59 60 60 61 61
50 50 48 46 43 42 41 38 37 35 35 37 40 43 44 45 46 47 47 49 48 50 55 60 64 67 70 72 70 69 70 67 66 64 61 59 59 59 61 62 63 64 63
45 47 48 50 48 46 44 43 43 40 38 36 34 35 36 39 41 43 44 45 46 49 56 61 62 63 64 68 70 64 62 61 56 52 50 51 54 56 56 58 58 58 59
45 46 46 48 50 52 54 52 47 46 44 42 38 37 36 36 37 40 41 42 46 51 54 56 57 55 53 52 52 51 51 49 47 47 49 52 54 55 56 58 59 61 64
50 51 52 51 52 51 49 48 48 47 46 46 48 45 43 41 40 43 43 45 47 49 52 56 58 55 54 52 49 48 48 48 49 51 54 57 59 59 61 61 64 68 71
44 46 49 50 51 53 54 51 50 49 47 45 48 52 50 47 48 48 48 50 53 53 53 57 59 57 54 51 49 48 49 50 52 55 57 60 60 65 70 62 56 55 57
44 45 47 48 51 57 58 56 56 55 53 51 52 52 52 50 50 51 53 54 53 53 54 58 59 56 54 52 52 52 54 54 57 59 60 61 65 69 62 57 54 51 50
33 36 38 42 46 49 51 56 60 60 61 58 53 55 59 57 55 57 58 61 58 60 59 62 61 58 57 56 57 57 57 58 60 62 64 67 67 58 53 53 53 53 51
17 20 24 27 30 37 47 49 49 55 62 62 58 54 54 61 64 63 66 66 65 65 66 66 66 64 63 62 62 61 62 61 63 65 66 65 57 54 51 51 51 51 52
28 28 25 24 26 31 42 42 48 59 56 62 64 59 54 59 64 67 67 67 69 71 69 70 70 68 68 68 67 68 68 69 68 66 64 62 57 53 51 49 49 52 55
36 40 41 34 29 36 39 44 46 56 62 58 66 66 63 64 66 69 72 74 76 78 78 80 79 77 75 76 74 75 75 76 74 67 68 63 60 55 51 51 54 58 62
44 54 68 69 65 68 51 45 60 58 60 64 64 68 69 74 70 73 78 82 83 86 87 86 86 83 83 82 80 82 82 83 83 76 70 67 63 58 54 58 59 57 57
61 80 89 89 82 81 76 55 68 68 64 65 68 69 71 78 78 75 80 83 88 92 92 92 93 91 90 88 88 84 84 87 91 83 74 72 65 59 55 57 58 59 59
69 87 96 96 95 97 84 62 74 72 70 73 76 77 75 80 85 95 95 86 86 89 93 94 94 95 94 91 85 83 86 89 93 90 80 69 64 57 58 63 63 60 57

GFSMW_prec_cthk_102.txt.gz
RH
95 93 91 99 97 93 87 88 95 91 82 75 70 69 69 69 67 73 68 65 59 65 73 65 67 65 63 60 58 59 62 60 57 57 55 53 51 46 42 43 41 39 38
95 96 95 94 99 96 97 96 95 91 84 86 74 72 74 74 75 76 80 72 72 80 85 82 77 76 78 74 70 71 70 69 69 64 59 58 57 55 49 50 50 46 46
94 97 93 87 93 98 98 96 94 93 90 84 82 77 84 82 78 79 81 79 80 83 93 92 87 86 86 83 77 77 78 83 78 71 68 70 67 61 60 55 57 55 53
90 98 95 95 86 84 88 92 88 91 88 83 84 88 91 87 87 85 81 81 84 88 92 93 95 93 96 97 92 87 88 87 91 93 85 71 66 64 63 65 60 60 60
90 92 96 95 97 94 89 87 85 80 86 94 95 95 93 92 89 89 84 84 87 88 87 86 94 93 94 98 98 99 98 95 93 94 90 78 63 62 68 66 68 63 61
88 87 86 82 81 87 91 84 87 79 88 96 87 88 88 87 95 93 89 87 86 86 84 88 88 91 90 92 95 94 97 95 94 87 85 85 77 73 71 69 68 68 67
84 80 78 78 73 74 78 79 80 83 82 82 87 86 85 93 94 95 89 84 88 90 86 88 91 90 92 94 94 88 87 89 82 85 83 78 85 78 75 75 73 70 67
78 74 77 77 74 73 70 69 67 68 70 72 73 74 81 78 85 76 82 80 81 80 83 82 86 86 88 89 85 87 82 84 80 76 69 67 71 70 72 71 70 72 67
69 74 74 72 72 72 70 69 66 67 66 65 65 66 69 68 67 66 69 68 71 72 76 74 74 76 85 79 75 74 75 78 76 70 68 70 71 73 78 75 72 72 73
66 67 66 65 63 63 63 63 62 63 62 60 59 59 59 62 63 63 62 61 62 64 64 65 69 72 67 69 65 67 64 63 62 62 64 64 64 65 68 74 75 75 74
60 56 52 50 50 50 51 52 53 54 53 52 52 53 56 59 60 61 59 55 54 58 60 64 64 58 57 55 54 52 50 51 57 60 61 63 64 65 71 70 68 68 69
49 48 46 44 45 44 44 47 44 43 46 48 47 47 49 53 54 55 54 52 52 56 59 62 56 53 48 45 44 45 49 51 54 58 61 63 67 72 71 66 63 59 60
43 41 39 39 40 40 41 40 43 49 48 47 46 47 48 50 51 51 49 47 49 52 54 54 52 48 48 51 52 53 54 59 58 59 61 62 63 61 61 61 60 60 62
43 44 45 44 44 42 41 40 38 38 38 42 47 48 48 49 49 47 47 49 52 56 58 55 50 50 53 56 56 58 57 58 57 58 60 63 61 57 55 54 53 53 52
43 45 47 49 48 45 44 46 46 44 42 42 40 39 40 41 41 43 45 48 49 49 50 48 50 52 56 55 56 54 52 49 46 46 48 49 48 45 45 46 48 50 52
46 48 49 47 46 49 49 47 47 48 49 48 47 45 43 42 41 41 42 43 47 47 47 48 52 51 53 54 54 51 47 45 42 42 44 43 43 45 48 49 51 52 53
41 42 44 46 49 50 51 51 53 54 53 52 51 51 50 47 46 46 44 43 43 46 45 49 49 51 53 52 51 50 46 44 44 43 45 47 47 49 50 53 52 56 58
34 34 35 36 38 40 44 44 47 51 55 57 56 54 52 52 52 51 49 49 49 48 47 49 52 51 50 51 52 51 47 48 47 46 47 50 50 52 53 53 51 50 54
23 21 21 22 25 27 32 37 41 46 47 50 58 62 62 58 57 56 55 53 54 54 53 52 54 52 54 55 55 52 50 51 50 49 53 55 56 56 56 55 49 48 47
19 20 21 20 19 17 19 25 31 35 41 48 51 54 62 62 62 65 65 60 57 58 60 58 57 57 58 58 57 54 56 54 54 52 55 57 59 59 61 52 49 47 46
26 28 29 29 30 31 30 25 24 28 37 49 51 52 55 61 65 64 72 71 70 67 66 67 65 65 66 65 61 60 62 61 59 57 59 62 65 65 54 51 50 47 46
32 35 37 37 36 41 44 40 32 31 30 42 52 56 58 62 62 69 70 75 79 78 77 77 75 75 72 68 67 66 66 66 64 65 66 64 62 59 54 51 47 46 47
31 34 36 39 40 49 61 65 60 60 47 41 56 62 65 67 68 68 76 77 79 82 83 85 85 83 77 73 73 74 75 75 72 72 67 62 61 58 57 54 50 46 50
33 35 37 39 46 62 68 78 82 76 72 51 56 72 68 75 72 73 82 84 80 83 87 87 88 87 85 83 84 83 84 82 77 75 70 64 64 63 62 59 53 54 57
33 34 37 45 60 75 81 92 86 92 84 65 65 80 74 76 79 80 84 89 86 88 91 92 92 90 91 91 91 92 89 87 83 81 73 67 66 65 62 63 60 62 61
35 38 41 49 64 83 92 79 93 99 93 68 79 85 80 82 87 85 91 94 94 92 94 95 94 96 95 95 94 93 92 89 84 78 78 72 68 66 67 63 59 62 63

GFSMW_prec_cthk_105.txt.gz
RH
78 85 89 98 98 96 98 97 96 89 79 74 68 62 59 59 60 59 60 59 60 59 65 66 62 65 61 62 58 56 54 54 60 61 59 58 58 50 48 47 48 48 43
85 87 90 98 99 99 97 98 96 90 90 90 78 78 79 74 71 69 66 66 64 69 73 71 70 73 80 75 72 72 67 68 69 69 77 74 66 60 54 48 49 52 51
88 89 95 97 90 94 98 97 95 95 94 90 88 83 78 89 89 81 77 74 77 75 74 77 72 75 86 88 87 81 80 79 81 84 85 82 77 72 63 60 58 54 57
91 95 95 95 92 92 99 96 95 88 94 94 96 91 91 88 88 83 82 82 86 78 78 76 74 82 90 92 91 96 92 92 93 93 90 89 86 77 67 68 64 60 60
95 92 91 97 95 92 98 97 96 93 94 94 95 94 95 88 89 89 88 90 89 91 83 79 80 83 89 92 90 94 92 98 98 96 94 92 90 87 80 77 75 73 68
91 89 88 89 93 90 92 92 92 92 89 88 89 88 90 84 86 88 91 91 90 88 84 83 82 87 91 94 91 93 92 89 96 93 80 83 85 88 81 73 69 70 71
92 93 87 86 85 85 90 91 89 91 94 91 91 85 83 86 87 85 84 87 85 89 85 84 86 92 92 96 96 97 92 89 85 83 82 80 76 76 72 73 71 66 67
83 86 83 79 74 76 76 81 83 84 87 87 89 96 95 94 94 93 96 86 90 92 88 90 95 97 98 95 96 93 87 82 77 76 71 67 68 63 60 58 59 63 64
87 80 79 80 77 75 72 71 68 69 70 72 74 78 79 83 83 82 91 87 84 82 85 88 93 92 88 83 82 83 81 72 68 63 60 61 59 55 52 52 56 61 66
75 76 77 78 75 70 67 63 64 64 62 63 66 66 66 66 69 68 71 73 70 69 70 73 72 75 78 76 71 73 68 63 61 60 57 53 53 54 55 57 60 64 66
72 68 67 65 61 59 55 52 53 55 55 55 58 59 57 58 61 63 62 63 65 69 70 66 67 70 72 70 65 62 58 56 55 52 50 50 51 53 56 59 61 65 70
57 56 55 52 49 46 44 46 46 42 44 48 51 54 52 53 56 57 58 60 59 60 65 67 69 68 71 63 58 53 49 46 47 49 49 50 51 53 56 58 60 57 59
43 42 42 41 40 39 37 37 37 40 46 47 47 49 51 52 53 52 53 55 58 58 60 64 64 68 72 60 53 49 47 50 53 53 52 51 51 53 52 53 53 56 57
39 39 43 40 39 39 39 38 36 36 36 37 43 49 52 54 55 54 52 53 53 56 57 58 64 69 60 56 53 54 54 58 55 53 50 47 46 46 49 50 47 44 43
40 41 40 40 41 42 41 40 39 38 38 38 38 38 39 44 49 53 53 52 53 56 59 65 74 72 61 57 55 57 58 56 55 48 46 44 39 41 40 42 42 42 43
41 38 36 37 37 37 38 39 41 41 40 40 43 44 46 47 47 46 47 48 51 55 59 62 66 63 55 54 59 55 59 56 54 47 42 40 39 39 40 42 45 45 48
33 33 32 31 30 28 27 25 26 28 32 38 45 47 47 48 48 49 50 51 49 49 52 57 57 55 55 59 58 56 59 55 49 46 42 40 39 41 43 46 47 50 51
23 22 21 20 17 16 16 18 22 24 23 23 26 32 42 51 55 54 53 51 51 50 51 51 53 54 54 59 56 60 56 54 50 47 43 41 41 43 46 49 52 52 48
13 14 16 17 18 20 23 24 21 18 18 25 28 29 30 32 39 49 57 60 60 57 55 57 59 56 54 58 60 58 57 57 53 48 45 44 46 49 51 52 53 49 45
18 20 21 21 22 23 25 28 31 33 30 28 21 28 41 39 39 40 42 56 69 66 64 60 60 63 61 62 62 62 62 60 56 51 50 50 51 52 55 54 52 47 46
21 20 22 24 27 29 32 34 37 39 44 45 40 30 22 38 51 52 50 47 54 71 73 70 65 65 65 67 66 66 64 66 59 58 54 57 57 57 57 58 50 49 47
26 28 29 29 29 31 36 40 43 48 51 54 50 48 39 31 40 65 67 61 56 62 77 77 76 72 70 69 71 74 74 70 68 64 63 62 61 59 59 53 50 49 47
31 32 32 32 32 34 39 43 44 49 51 55 60 65 65 53 45 54 74 76 69 65 75 84 78 81 81 81 84 83 78 76 73 72 70 66 63 60 57 54 53 51 50
31 30 30 31 32 37 42 47 50 54 65 73 73 73 80 74 60 53 77 80 78 70 71 86 86 81 87 89 92 93 90 83 81 80 75 70 65 62 58 58 57 53 53
30 31 32 33 35 38 42 49 56 71 78 73 78 93 94 86 67 64 84 85 84 79 79 88 93 88 86 90 95 95 92 91 88 85 81 76 68 64 64 61 57 56 56
30 30 32 34 37 40 44 48 60 81 84 70 84 98 95 87 66 77 96 88 89 86 89 95 97 92 94 96 97 95 95 95 94 94 89 83 74 65 63 60 59 60 65

GFSMW_prec_cthk_108.txt.gz
RH
50 68 77 78 88 94 94 95 96 94 92 85 73 71 68 76 72 61 52 49 52 54 53 54 56 58 56 56 70 61 58 55 60 59 61 62 57 60 56 47 44 45 44
58 70 72 86 92 95 97 98 97 92 92 86 71 58 56 52 52 53 55 58 61 62 61 61 63 61 66 77 79 67 72 64 65 64 66 65 70 74 72 64 55 53 50
74 78 80 93 93 93 98 97 98 95 95 91 80 79 71 64 63 58 59 62 63 63 67 70 73 75 82 84 79 82 81 85 75 82 88 88 83 80 78 73 64 62 59
79 84 92 93 93 93 95 97 98 96 94 96 90 88 89 84 77 79 84 82 80 80 79 83 84 86 87 86 80 85 94 94 98 97 95 96 91 87 86 79 78 73 67
89 92 94 93 89 88 93 96 98 96 94 98 92 92 93 94 92 95 92 94 89 96 94 91 90 87 92 83 77 77 83 86 92 95 96 97 91 85 77 85 79 73 72
99 95 92 90 84 93 97 98 98 97 94 94 92 91 92 92 93 92 92 92 93 91 92 93 89 87 90 82 79 78 84 84 90 90 98 96 90 82 79 81 81 76 70
92 91 89 86 90 93 90 92 89 90 87 88 88 87 91 91 93 92 92 95 91 89 88 90 89 90 88 84 82 81 87 90 90 94 93 92 92 86 81 79 79 72 69
97 95 94 93 88 89 94 95 92 89 89 87 89 88 87 95 93 93 91 90 90 87 86 84 85 86 91 86 86 84 94 89 90 90 90 86 81 77 70 67 60 54 51
94 90 86 82 81 80 81 83 85 87 87 93 91 93 92 93 92 93 91 90 90 88 87 89 92 95 89 88 93 94 94 87 84 86 82 74 64 60 58 56 53 51 55
87 84 83 80 79 77 74 73 73 74 77 77 79 80 82 81 77 84 85 82 84 84 87 88 88 88 90 90 90 85 83 84 76 77 71 63 58 58 57 54 52 52 55
79 76 74 71 66 66 62 58 55 57 60 62 63 65 66 68 67 67 68 71 69 67 70 70 69 74 71 73 72 75 78 73 70 72 62 58 56 56 52 53 53 54 56
68 66 60 53 50 47 44 43 46 49 46 47 50 54 54 56 58 62 60 61 61 63 67 70 67 69 72 71 74 70 73 69 64 62 55 54 49 52 53 52 52 53 53
56 52 46 46 45 43 40 37 35 37 37 41 45 45 45 48 51 54 54 53 54 55 57 60 65 67 68 70 72 80 72 68 59 49 50 51 52 54 53 51 49 48 48
46 46 45 44 43 42 40 39 38 36 36 37 36 36 38 44 47 47 47 50 52 53 55 58 63 65 69 70 73 77 69 63 53 49 53 55 54 51 47 45 43 42 41
40 37 34 34 34 33 33 32 33 33 34 34 36 38 39 40 40 39 42 44 48 51 54 58 59 63 65 72 79 80 72 58 56 55 56 56 50 47 42 41 39 38 38
28 26 25 25 23 22 21 22 23 24 27 30 32 33 35 36 39 42 43 45 45 47 49 54 59 65 68 74 86 83 71 63 60 57 58 56 45 44 41 39 40 39 40
18 12 10 10 11 11 12 12 12 14 15 17 20 21 25 31 34 39 41 44 46 49 50 49 53 58 65 74 90 81 69 64 61 62 59 53 46 44 43 42 42 43 42
14 12 13 13 12 11 11 10 10 11 12 13 15 17 20 24 28 30 34 39 45 48 50 54 55 55 57 67 80 71 71 70 65 63 61 54 50 45 44 44 45 45 47
16 16 16 16 16 18 18 16 14 15 17 18 19 19 20 20 23 30 36 37 41 45 53 56 59 64 62 64 62 65 73 72 69 65 61 58 53 49 47 48 49 48 49
26 28 25 26 29 28 28 27 28 29 29 28 27 27 29 28 26 25 30 39 42 41 44 52 60 65 70 73 72 64 63 66 68 69 65 61 57 54 52 51 51 53 50
23 26 30 32 31 34 35 35 38 39 42 42 39 39 42 42 41 37 29 26 35 47 47 47 54 66 67 80 80 76 72 68 67 67 67 64 62 58 56 55 53 55 51
23 23 22 20 22 25 28 30 33 38 43 46 49 51 51 52 54 53 50 46 36 42 47 54 56 59 69 78 86 85 81 80 77 74 74 69 67 62 62 62 61 57 49
22 21 20 20 22 25 27 28 31 35 38 43 47 54 59 61 62 64 66 67 59 51 50 52 59 59 69 75 88 93 91 82 79 80 78 76 73 69 70 69 66 55 50
19 18 18 19 23 26 29 33 37 41 43 44 47 54 62 66 61 65 71 71 70 66 63 60 62 71 74 79 87 96 94 89 85 81 81 79 76 75 78 71 61 54 53
19 18 19 23 26 28 30 34 36 41 43 44 49 55 71 82 69 75 87 90 88 83 76 71 74 86 86 80 92 95 95 93 92 92 88 84 80 80 81 73 63 60 57
19 20 22 27 29 30 33 36 40 42 44 44 48 55 73 80 80 87 90 94 88 77 70 86 82 87 92 92 97 98 98 98 98 95 94 91 89 86 83 75 70 67 62

GFSMW_prec_cthk_111.txt.gz
RH
31 33 32 36 49 63 73 83 95 90 86 90 98 99 96 85 65 57 55 45 41 40 42 42 44 46 47 49 50 49 51 52 56 61 66 59 64 62 55 57 53 50 47
33 30 36 41 58 70 80 95 99 91 94 99 99 95 95 85 67 60 51 46 45 47 47 47 51 54 59 60 62 59 59 62 73 76 74 74 69 61 61 64 67 60 58
39 36 44 58 68 74 80 95 98 94 91 97 94 98 98 92 86 79 69 64 54 56 53 56 62 65 64 64 72 68 69 83 85 83 82 89 83 73 83 82 81 68 68
47 55 64 72 78 81 85 93 93 99 96 92 92 92 89 90 91 88 84 75 74 68 67 72 68 69 74 77 79 83 78 88 88 86 82 94 95 90 91 90 85 80 83
69 76 82 78 76 85 91 95 93 99 93 94 93 91 86 88 85 86 83 77 71 77 75 77 86 88 95 95 93 91 88 88 86 82 86 90 91 97 93 92 85 82 84
83 93 91 85 96 95 94 91 95 98 96 96 96 93 92 87 85 89 86 83 90 90 86 90 89 92 92 94 93 88 88 89 85 83 85 82 88 94 88 84 80 79 79
98 95 92 95 97 95 92 98 99 98 97 99 96 97 94 95 97 94 94 92 97 95 92 95 93 91 92 93 93 91 89 89 88 87 87 87 88 94 92 92 88 83 79
96 97 99 99 99 98 93 95 96 95 94 95 96 95 95 95 94 91 93 94 93 90 89 96 99 96 91 92 93 93 91 90 91 85 94 91 90 88 88 90 87 82 71
96 96 95 92 89 88 91 95 96 93 95 95 92 91 88 88 88 89 90 94 89 92 94 94 93 91 93 92 91 97 92 92 93 88 89 90 91 86 84 76 65 60 57
93 91 90 88 87 83 81 79 82 85 85 86 87 87 91 93 95 96 95 94 92 96 91 91 90 89 86 92 94 97 98 92 91 88 91 89 85 81 75 64 60 59 57
84 82 80 78 72 68 66 63 63 63 65 68 71 72 74 76 76 79 83 87 88 91 89 91 92 91 88 85 85 90 91 92 87 86 88 82 75 71 60 58 58 55 54
76 71 68 61 54 48 45 43 43 44 45 46 49 55 61 64 64 65 64 64 66 69 72 74 75 76 72 74 77 76 79 80 78 82 77 76 73 67 59 52 51 51 52
66 60 54 49 46 43 42 39 36 34 36 36 37 43 46 46 47 51 54 58 62 61 62 63 66 66 71 75 75 75 75 76 76 79 76 72 67 62 54 51 51 52 51
46 43 41 39 38 36 33 31 30 30 30 31 31 31 32 34 37 41 47 50 51 50 50 51 52 54 60 65 72 76 75 78 83 82 79 72 61 56 55 55 54 52 48
31 29 25 27 24 22 22 20 20 21 22 23 24 25 26 28 30 31 33 33 38 45 48 47 52 55 55 58 65 70 77 81 87 83 76 67 64 61 59 60 58 48 44
23 20 11 10 12 11 11 10 10 10 10 10 11 13 17 21 25 28 30 31 32 35 38 40 46 50 54 58 59 60 70 80 92 86 75 75 70 71 64 58 51 47 44
19 14 14 16 14 14 14 13 16 14 13 13 14 13 13 13 15 19 25 28 31 36 39 41 43 43 47 53 58 62 65 74 95 89 83 83 76 70 72 61 52 48 44
16 15 16 16 16 15 13 13 13 13 13 13 15 17 19 20 20 18 17 20 27 30 32 39 44 47 47 49 56 60 65 72 86 92 93 88 77 71 67 58 52 48 46
12 13 14 14 13 12 11 10 11 12 13 15 17 18 20 20 21 23 24 23 21 24 34 36 40 45 50 57 62 61 61 67 72 77 87 87 82 72 71 62 56 51 48
16 16 15 15 16 16 15 15 15 14 13 14 16 18 23 26 29 31 34 33 33 30 26 28 41 46 46 56 68 71 71 71 69 73 75 81 74 66 63 60 58 53 52
20 20 21 22 22 20 19 19 22 21 21 21 24 26 29 30 33 35 38 38 38 38 36 30 27 35 48 53 67 76 79 80 78 78 80 77 76 69 68 61 59 56 56
24 25 25 24 24 26 28 28 28 29 32 35 35 33 32 34 37 42 43 47 48 49 47 46 40 34 43 52 61 70 85 87 89 89 89 90 85 73 68 67 65 59 60
22 20 20 20 21 23 26 28 30 32 33 34 35 37 37 40 44 46 52 61 60 57 56 60 58 45 45 51 57 64 71 88 94 94 95 96 96 88 80 74 70 66 65
20 20 20 21 21 22 25 27 28 29 30 31 33 35 38 42 47 54 60 67 74 67 66 63 66 70 60 62 68 66 72 77 91 92 99 97 96 91 91 86 80 77 76
20 20 20 19 19 18 20 23 24 24 26 27 30 34 38 43 48 58 65 80 88 85 85 87 86 78 79 67 76 82 77 81 89 99 99 97 92 96 91 91 86 84 76
20 19 18 18 17 15 18 20 21 23 25 27 30 35 39 45 53 62 72 93 92 85 88 94 95 95 85 95 82 93 91 81 91 99 92 93 93 94 94 93 89 85 78

GFSMW_prec_cthk_114.txt.gz
RH
44 46 47 40 31 28 30 42 45 56 75 80 86 70 74 90 91 89 96 97 92 87 59 43 42 43 42 42 44 44 43 45 47 50 50 53 53 57 65 61 60 58 55
37 44 33 29 30 29 35 43 51 74 84 89 93 78 80 90 94 92 88 90 92 83 52 45 44 45 44 47 46 47 50 54 55 57 60 61 62 65 73 71 64 68 63
39 36 32 28 31 34 38 44 55 66 85 80 95 94 91 93 91 89 91 79 76 65 51 46 46 47 51 50 56 54 56 63 68 67 66 70 72 78 82 82 80 81 79
48 39 41 37 39 48 54 60 65 78 77 89 94 99 97 98 90 91 88 75 65 64 54 48 52 56 55 62 68 66 71 80 88 83 74 78 80 82 84 84 85 90 91
48 44 50 54 57 61 63 69 71 77 83 89 99 98 99 98 98 98 94 90 80 61 57 55 60 62 64 67 70 82 89 93 94 93 88 88 87 87 88 86 86 92 93
54 71 78 89 76 81 78 72 83 87 87 96 99 98 97 97 98 97 96 95 96 92 86 85 83 86 83 87 84 87 94 91 90 90 91 88 87 84 87 85 87 91 92
85 93 98 94 92 87 97 90 91 92 92 98 98 98 96 94 95 93 94 94 94 92 88 92 91 90 86 93 96 93 90 90 91 91 90 88 84 86 86 91 93 91 88
97 98 95 97 97 98 99 96 98 98 99 99 98 98 98 97 97 97 94 93 92 92 90 90 92 94 95 97 96 94 91 94 94 93 92 89 89 90 89 89 97 96 92
98 95 95 95 94 94 96 95 95 95 95 97 96 97 97 98 96 94 94 93 92 90 89 90 93 95 98 96 96 94 93 92 92 94 94 92 91 93 95 90 91 87 87
93 93 93 93 91 90 89 87 89 95 97 96 98 96 94 96 93 92 92 93 93 92 91 90 93 92 91 94 94 93 93 93 94 95 98 96 93 90 92 95 91 85 79
89 85 80 76 75 72 71 72 74 77 78 79 80 86 89 87 91 90 92 94 93 92 94 93 94 95 97 93 93 96 96 96 89 93 99 96 92 91 91 92 86 77 73
73 70 67 58 55 54 55 55 55 52 52 55 58 62 65 69 70 70 73 77 77 79 83 85 83 88 91 94 92 93 94 91 90 88 92 95 96 95 98 94 83 78 72
64 57 53 48 44 41 39 37 36 34 33 32 32 35 39 43 46 48 54 58 63 68 73 68 68 72 78 85 86 86 84 81 83 87 87 93 96 92 94 82 80 74 67
41 37 32 28 27 26 25 24 23 23 24 24 25 25 26 26 27 28 32 37 40 44 52 56 59 60 61 63 63 68 71 73 76 78 82 87 91 89 87 83 78 69 62
28 24 18 17 16 14 14 12 12 12 11 11 12 14 17 19 21 24 25 26 27 29 34 38 44 48 55 59 63 65 65 65 71 76 77 84 90 91 88 84 71 73 70
21 16 12 12 12 11 11 10 10 8 9 9 9 9 9 9 9 10 13 19 24 28 31 32 32 35 39 48 56 63 66 70 71 75 77 80 94 93 87 78 77 76 71
19 14 14 13 13 13 12 13 12 13 14 13 13 13 12 11 12 12 12 12 11 12 20 28 35 38 38 40 46 53 58 63 67 73 71 80 81 94 84 84 81 76 69
19 15 15 16 16 14 13 13 12 13 12 12 12 12 12 13 15 16 17 18 18 17 16 15 21 31 39 44 48 53 59 61 62 66 75 88 83 89 92 92 87 81 79
18 15 14 12 12 13 13 12 11 11 12 12 13 14 16 16 17 19 21 21 21 22 24 24 22 21 26 40 50 60 64 65 67 73 76 96 84 89 96 96 90 87 83
13 12 12 11 11 11 11 10 10 10 10 10 12 14 15 17 18 19 21 24 27 28 28 30 30 29 26 24 39 53 66 70 74 76 81 77 98 86 95 95 94 89 86
14 14 13 12 12 12 12 12 12 13 14 12 12 13 13 15 17 19 21 23 27 31 34 38 38 37 36 34 31 43 49 62 76 84 83 88 80 95 83 97 93 89 85
16 15 14 13 13 14 15 15 17 18 17 17 17 14 14 15 16 18 20 24 27 30 35 41 43 44 44 45 44 40 46 49 60 77 89 91 89 91 94 94 94 89 87
18 18 18 18 20 21 23 25 23 25 25 25 24 23 23 23 21 23 23 27 32 38 40 46 47 51 56 51 51 50 49 57 53 59 76 90 95 96 89 98 88 87 83
18 20 21 21 20 23 24 25 24 24 23 25 26 27 27 27 28 31 35 38 41 46 52 55 59 63 60 59 59 60 54 60 63 63 66 82 91 98 90 91 97 92 88
22 23 23 21 19 20 19 20 23 24 25 27 28 28 30 33 34 39 44 48 51 59 62 67 83 81 72 67 69 72 73 72 71 74 72 81 91 88 90 93 90 96 90
21 22 22 21 19 19 20 20 24 25 27 28 32 34 37 39 42 45 47 61 67 71 90 92 89 78 78 80 80 81 74 86 86 87 82 73 76 98 89 93 90 98 89

GFSMW_prec_cthk_117.txt.gz
RH
21 25 42 56 60 57 51 45 40 39 38 40 42 47 54 54 55 61 63 71 90 97 97 80 69 64 61 53 43 41 41 42 44 46 46 46 46 48 47 49 49 55 56
22 18 23 46 55 56 49 42 36 34 39 42 46 55 65 65 73 75 59 73 89 96 96 86 76 70 60 51 46 45 43 44 48 48 50 52 56 59 57 57 54 61 65
28 26 25 37 45 41 35 30 25 29 38 47 53 65 74 77 80 75 63 85 92 97 95 93 84 73 63 54 48 50 48 53 52 59 61 58 57 63 69 67 64 70 75
42 37 39 48 41 35 30 26 29 33 41 52 62 70 76 84 75 76 73 88 95 98 98 97 92 77 69 56 53 56 56 56 61 67 65 70 69 77 76 70 72 76 80
52 46 43 47 34 33 36 36 36 40 46 61 66 77 75 86 92 87 96 97 97 98 96 91 90 84 68 59 57 65 59 63 73 79 83 86 89 90 85 78 78 86 87
54 49 49 49 51 53 48 42 40 48 57 65 76 84 92 94 98 99 96 89 91 93 94 95 94 79 63 59 64 69 66 75 86 89 93 95 93 94 92 92 90 88 91
60 72 84 91 88 81 73 62 58 66 73 81 87 97 95 99 98 98 99 99 98 95 95 94 92 88 79 83 80 80 83 86 90 93 92 94 94 95 93 92 92 88 90
89 96 98 97 96 94 94 92 86 90 90 96 98 98 97 98 98 97 98 99 98 98 97 95 96 96 95 94 95 95 91 90 92 93 91 91 93 94 94 94 93 92 90
99 98 99 96 96 97 98 99 97 93 99 99 99 97 99 98 97 95 97 96 95 94 95 97 95 94 95 93 94 97 94 94 92 96 94 96 94 98 94 94 95 97 94
97 96 96 95 94 95 96 97 98 98 98 97 96 96 97 96 97 95 95 96 94 93 92 92 91 92 92 94 97 95 96 98 98 97 96 97 96 97 96 97 99 99 97
90 83 78 78 75 77 80 82 83 85 86 88 89 90 93 95 94 95 95 94 94 93 92 93 92 93 93 93 95 96 97 96 96 96 95 96 96 96 95 99 99 99 96
75 70 65 59 56 53 51 50 52 50 52 60 61 72 76 81 76 74 73 76 78 76 78 86 88 90 91 92 93 94 96 98 98 98 94 99 95 92 95 99 98 99 95
52 46 41 37 35 33 31 29 28 28 27 30 32 36 39 41 43 46 48 49 53 57 56 61 65 70 79 83 87 85 88 93 94 95 94 93 95 92 92 97 95 95 98
34 27 22 20 19 18 16 16 16 16 17 17 17 18 20 22 23 25 25 27 29 33 36 39 43 46 50 56 66 74 80 86 87 91 91 91 91 89 92 92 96 99 98
21 14 10 10 10 9 9 9 8 8 8 8 8 8 8 9 11 13 15 17 20 22 26 28 32 36 41 43 46 49 56 68 74 76 82 83 86 88 89 89 90 96 97
19 15 12 12 12 12 11 11 11 9 9 10 10 9 9 9 8 8 8 8 9 9 10 13 19 27 31 35 42 51 56 57 60 68 74 75 84 84 89 92 94 94 95
21 16 12 13 14 15 13 12 12 11 11 12 11 11 11 10 10 10 11 11 11 11 11 12 12 13 14 23 37 47 50 57 64 66 67 73 79 84 89 93 92 93 95
20 16 15 15 15 14 13 12 12 11 11 11 11 10 10 10 10 10 11 11 11 12 12 13 14 15 16 18 18 26 44 54 56 67 72 73 74 84 85 99 97 98 91
19 16 16 15 14 13 12 12 12 12 12 11 10 10 10 10 10 10 11 11 13 15 18 20 18 18 18 20 22 25 25 34 50 64 72 76 77 81 99 97 98 96 88
16 16 15 15 13 13 12 12 12 11 11 11 11 11 10 10 11 11 11 12 14 15 20 21 23 26 26 26 30 34 34 30 32 45 64 77 84 84 86 91 97 97 95
15 15 15 14 13 13 13 12 12 11 11 10 10 10 11 12 13 14 13 16 19 19 17 23 26 28 32 33 32 39 43 41 37 38 42 64 80 88 85 93 95 99 99
15 16 15 14 14 14 13 12 11 12 13 12 12 12 12 13 15 17 17 19 24 28 27 29 28 30 36 38 41 44 48 52 49 41 45 46 64 82 89 87 92 96 98
17 17 15 15 15 15 14 14 15 19 21 22 21 22 23 21 22 25 26 28 30 35 38 40 39 38 41 45 49 52 57 62 57 50 45 51 59 69 80 84 89 95 96
19 17 17 17 18 18 18 21 20 23 24 24 23 24 24 24 22 22 26 30 35 42 50 53 54 53 54 56 58 64 63 68 66 61 56 55 60 71 75 81 92 96 98
20 19 19 19 19 17 18 21 22 24 24 23 23 21 22 22 21 22 29 36 44 57 62 65 66 67 72 76 72 73 73 74 73 68 67 68 63 71 78 76 81 90 96
20 20 20 20 19 19 20 22 22 24 23 21 22 22 25 25 26 30 28 39 53 62 73 81 89 89 88 87 87 81 81 81 83 78 74 68 74 70 74 79 83 87 97

GFSMW_prec_cthk_120.txt.gz
RH
24 23 22 22 33 48 57 57 58 54 52 48 42 40 36 37 39 40 43 46 48 48 52 60 86 98 97 83 78 74 67 64 50 46 43 41 41 41 40 43 45 47 52
30 26 22 19 22 44 54 58 57 52 46 43 39 39 39 39 39 41 46 51 51 50 52 56 77 92 93 82 77 73 68 65 57 51 50 49 46 44 44 46 56 55 57
33 26 22 18 17 30 49 55 54 49 43 41 41 41 41 42 40 40 44 53 60 66 63 63 65 90 92 83 81 78 68 66 61 57 56 57 50 49 53 56 57 57 66
36 32 27 21 18 27 49 52 48 41 40 38 39 36 37 39 38 42 52 64 76 78 82 69 71 86 90 90 85 81 73 68 66 64 60 60 60 63 57 64 66 64 70
73 44 37 41 46 43 40 48 47 33 34 37 38 39 38 39 40 52 62 70 79 76 75 76 81 93 95 88 84 81 75 74 73 66 64 66 69 70 68 72 72 74 79
80 81 70 52 53 53 54 48 42 29 29 33 39 43 43 48 61 72 79 86 84 80 81 94 98 97 96 96 92 84 78 79 76 71 75 68 73 76 85 84 87 89 90
87 88 83 80 70 68 57 42 34 29 30 35 43 48 53 67 75 90 95 98 95 96 99 96 97 98 97 97 94 93 87 79 74 76 79 81 86 91 89 96 87 92 92
89 89 91 92 91 87 76 69 55 50 48 51 60 69 75 84 94 96 98 98 98 97 95 94 95 99 99 98 93 94 91 86 87 90 85 92 92 95 94 95 92 94 95
94 97 99 98 98 96 99 96 81 69 70 81 84 96 93 97 98 95 96 94 96 98 98 99 97 97 94 95 94 93 91 89 88 92 97 97 93 94 95 96 94 95 98
98 97 94 96 97 96 97 97 96 87 91 94 98 99 96 99 98 98 96 95 95 93 95 96 96 97 97 96 98 97 95 98 99 98 98 98 97 95 95 97 97 98 98
87 87 81 84 83 80 79 83 87 90 90 95 97 99 93 92 90 86 91 88 95 88 82 79 81 86 89 90 88 87 93 93 93 93 95 95 95 99 97 95 95 96 99
61 58 54 56 56 56 55 57 59 55 56 64 69 77 85 78 81 79 75 75 72 72 72 72 75 76 79 80 82 81 81 86 85 86 96 95 96 98 97 96 95 97 97
45 38 33 30 28 28 27 28 27 30 29 30 33 35 37 42 46 46 45 47 47 48 49 53 56 59 67 73 74 76 78 81 82 84 87 89 95 96 97 99 97 99 98
27 18 13 12 11 11 11 10 9 10 10 10 10 11 13 15 17 18 19 21 22 23 25 28 31 36 41 46 50 53 57 63 69 76 84 88 93 87 89 98 97 98 98
20 14 11 11 11 11 11 10 10 10 10 10 9 9 8 8 8 8 8 8 8 9 10 11 14 17 21 26 32 37 42 48 52 56 61 65 68 79 93 92 94 95 95
21 16 12 13 12 12 12 11 11 10 10 10 10 10 9 9 8 8 8 8 8 9 9 9 10 10 10 11 12 14 21 34 39 45 53 57 59 63 65 83 94 95 98
21 17 14 15 14 13 12 11 11 11 12 13 12 11 10 9 9 8 8 8 8 7 8 8 9 9 10 11 14 15 17 17 17 30 44 50 59 65 66 72 75 88 95
20 16 14 14 14 13 13 13 13 13 13 12 11 11 10 9 8 8 8 7 7 7 8 9 11 10 10 12 14 17 19 20 21 20 23 33 49 59 71 76 78 81 90
18 14 15 16 15 14 14 13 13 12 11 11 11 10 10 9 8 7 7 7 8 8 8 9 10 11 12 18 15 22 25 25 24 24 23 27 33 51 66 79 85 92 90
14 16 17 17 15 14 13 13 12 11 11 11 10 10 10 9 8 9 9 10 10 10 11 11 12 15 17 19 23 25 31 29 30 31 31 27 32 39 51 79 84 94 93
16 16 16 16 15 14 13 13 12 11 11 11 11 11 11 11 12 12 13 14 16 15 15 16 18 21 26 27 30 34 37 39 40 37 35 34 34 44 52 59 83 85 93
17 16 16 16 15 15 14 13 11 11 12 12 12 12 12 13 14 15 15 15 18 25 28 29 31 36 42 44 44 44 43 44 46 42 41 43 45 41 54 64 65 88 95
17 17 18 18 17 16 15 13 12 12 13 14 14 15 16 17 19 23 25 26 28 30 31 35 40 42 48 54 57 57 53 50 52 51 51 51 50 48 53 64 72 74 90
19 18 20 18 17 16 15 13 14 15 17 18 21 22 21 23 26 26 27 28 30 32 36 41 47 52 58 63 70 75 71 63 61 60 61 62 60 57 58 61 75 75 78
20 19 21 18 17 17 15 16 17 18 21 24 25 24 26 26 26 24 26 28 32 36 41 50 58 64 70 80 85 86 87 91 83 77 74 72 71 68 64 61 73 80 79
21 22 22 20 20 18 17 18 19 22 26 28 29 29 28 27 27 26 22 26 28 31 46 59 68 70 75 79 83 89 87 87 86 85 87 86 79 75 70 67 59 84 78

GFSMW_prec_cthk_123.txt.gz
RH
26 29 22 23 20 16 25 41 49 55 60 58 53 51 47 42 39 36 33 34 34 37 39 41 44 48 62 77 97 96 95 82 77 77 70 63 53 44 38 38 41 41 43
31 28 29 24 23 17 17 29 40 49 56 55 52 47 44 39 37 35 34 36 37 37 39 43 45 46 49 61 75 99 93 87 85 83 81 75 61 50 41 42 46 48 51
55 33 31 29 23 20 16 26 32 40 48 51 49 46 42 40 39 37 36 34 36 40 39 38 48 53 49 53 58 84 95 90 88 86 82 82 70 57 48 47 50 53 55
76 62 35 34 27 21 17 23 33 38 40 44 43 42 41 46 43 43 39 35 34 35 38 41 52 61 64 58 60 63 88 89 88 85 89 85 77 68 59 54 52 58 61
85 82 54 45 40 28 24 23 39 37 36 39 43 45 46 45 45 44 40 36 39 42 45 53 67 74 80 82 79 74 78 91 92 86 86 88 84 75 71 63 62 62 63
93 90 90 78 68 48 45 39 38 37 36 38 44 46 42 42 43 40 38 37 53 65 69 69 73 78 79 81 83 86 75 89 90 85 90 89 82 78 77 73 67 66 70
93 98 96 90 85 70 50 41 35 39 41 45 46 39 39 40 45 46 53 67 78 79 79 87 84 85 86 91 92 93 91 92 94 92 90 87 82 83 87 87 87 83 85
97 98 98 98 97 85 67 56 54 58 52 42 39 39 44 50 63 66 72 80 84 91 94 95 97 96 98 99 98 97 96 98 98 96 94 91 90 91 92 96 96 96 91
94 97 96 99 92 97 93 88 69 61 60 49 45 50 57 72 76 80 81 95 96 94 99 99 97 97 97 98 98 98 97 98 95 94 96 94 89 87 94 93 94 95 98
94 94 97 93 93 94 95 97 86 75 74 76 77 82 97 95 94 97 95 97 96 97 97 94 95 94 89 92 93 92 93 93 92 93 94 94 94 94 93 94 96 96 97
65 65 68 72 75 82 82 92 84 95 89 86 95 99 99 98 96 95 93 92 96 85 80 78 76 72 70 74 75 79 79 77 82 89 89 85 88 91 93 98 98 97 98
49 49 47 48 49 52 55 62 64 61 67 74 79 73 74 78 79 77 77 72 75 74 72 68 65 65 69 70 72 70 70 73 77 77 75 77 84 85 87 87 93 95 94
33 25 23 26 32 31 34 38 36 37 38 40 42 38 39 41 43 41 40 37 37 38 38 38 41 44 51 57 61 65 70 70 69 71 74 76 77 75 80 79 80 87 92
22 15 14 14 14 12 12 10 10 10 10 10 10 11 11 10 13 11 10 10 10 10 11 12 14 15 17 20 24 29 35 41 50 58 66 69 73 76 78 81 82 88 93
23 17 14 14 14 13 12 12 11 10 10 10 9 9 9 9 8 8 8 8 8 8 8 8 7 7 7 7 7 8 10 13 17 23 31 41 49 55 62 74 85 94 85
23 19 14 14 13 12 11 11 10 10 11 11 11 10 10 9 9 8 8 7 7 7 7 7 7 7 7 7 7 7 8 9 11 11 11 14 23 39 47 60 67 78 80
23 19 14 14 13 12 12 11 11 11 11 11 11 10 10 10 9 9 8 8 8 8 8 7 7 7 7 7 7 7 7 7 9 11 13 14 15 16 26 44 59 68 71
21 18 14 14 14 13 13 13 13 12 12 11 11 11 11 10 10 10 9 9 8 8 8 7 7 8 8 9 10 11 14 14 13 12 13 16 16 17 20 27 36 56 72
18 15 13 14 15 15 14 13 13 12 11 11 11 11 11 11 10 9 9 9 8 8 9 10 10 11 10 12 15 18 19 18 22 25 24 26 26 25 25 29 36 42 56
17 13 14 15 16 16 15 13 12 12 11 11 11 12 12 12 11 11 11 11 11 12 13 12 13 14 15 17 20 26 27 27 30 31 31 29 34 33 33 39 38 40 48
16 16 17 17 18 18 16 14 13 13 12 11 12 13 13 13 13 13 13 14 14 14 16 16 18 19 22 25 31 37 42 42 42 38 35 33 35 42 40 44 42 39 56
18 18 19 19 19 19 17 15 14 13 12 12 13 14 15 16 15 15 15 15 17 17 17 20 20 22 29 38 39 42 50 57 61 62 51 44 40 47 49 50 46 45 55
21 20 20 19 20 20 19 17 15 13 13 13 14 15 17 18 18 18 18 19 23 28 30 31 31 32 37 39 43 50 57 61 66 69 70 64 52 49 50 55 52 54 56
24 23 22 21 22 22 20 18 16 15 15 15 16 18 19 21 22 24 28 31 33 32 31 33 32 35 40 46 52 57 62 66 69 69 74 74 66 57 55 60 60 59 56
32 28 25 24 25 25 22 20 18 17 17 17 18 19 22 27 33 34 32 33 34 35 35 36 37 40 43 48 55 61 63 66 69 69 71 70 75 75 69 65 66 67 64
37 37 34 30 29 28 25 22 20 20 20 20 21 22 27 35 38 38 29 32 34 33 32 34 39 42 50 52 56 60 64 67 71 73 75 72 78 88 87 75 73 75 72